Date StartTime U_cm/s V_cm/s W_cm/s Ustd_cm/s Vstd_cm/s Wstd_cm/s Uvar_(cm/s)^2 Vvar_(cm/s)^2 Wvar_(cm/s)^2 KE_(m/s)^2 TurbulentKE_(m/s)^2 HorizWindSpeed_cm/s FrictionSpeec_cm/s DragCoef SpeedOfSound_m/s SonicTemperature_C Pressure_mb 
11/13/2013  00:00:00     -129.854      -48.494       -6.830       48.443       23.693       17.008     2346.703      561.373      289.280        1.123        0.160      138.614       16.435        0.014      336.211        7.359      870.255
11/13/2013  00:01:00     -113.023      -30.958       -0.406       40.304       31.234       23.749     1624.377      975.539      564.002        0.845        0.158      117.187       24.981        0.045      336.220        7.376      870.256
11/13/2013  00:02:00     -118.275      -43.147       -5.523       17.326       15.912       11.050      300.191      253.180      122.098        0.828        0.034      125.899        8.844        0.005      336.231        7.395      870.245
11/13/2013  00:03:00     -102.232      -14.357       -2.902       33.420       29.946       19.253     1116.881      896.759      370.695        0.652        0.119      103.235       13.949        0.018      336.169        7.290      870.250
11/13/2013  00:04:00     -104.867      -52.881       -2.604       57.160       33.907       22.931     3267.231     1149.692      525.841        0.937        0.247      117.446       24.935        0.045      336.185        7.317      870.263
11/13/2013  00:05:00      -88.730      -71.893       -6.514       28.783       27.795       16.266      828.452      772.578      264.568        0.747        0.093      114.200       10.827        0.009      336.196        7.335      870.264
11/13/2013  00:06:00     -102.331      -29.711       -9.527       29.461       20.129       12.399      867.964      405.193      153.728        0.644        0.071      106.557        9.003        0.007      336.168        7.288      870.257
11/13/2013  00:07:00     -109.976      -29.535      -13.706       20.475       14.113        8.857      419.206      199.176       78.447        0.693        0.035      113.873        5.441        0.002      336.195        7.334      870.257
11/13/2013  00:08:00      -95.348      -47.053       -7.200       11.879       20.830       11.980      141.115      433.887      143.526        0.604        0.036      106.326       10.967        0.011      336.193        7.332      870.242
11/13/2013  00:09:00      -98.864      -45.147      -14.538       23.940       20.566       17.535      573.130      422.956      307.467        0.666        0.065      108.684        9.953        0.008      336.212        7.362      870.226
11/13/2013  00:10:00     -103.022      -54.291      -12.860       30.881       20.591       15.162      953.645      424.006      229.872        0.767        0.080      116.452        9.825        0.007      336.219        7.376      870.214
11/13/2013  00:11:00     -127.738      -57.526      -12.400       16.506       17.769       12.806      272.461      315.749      163.998        1.027        0.038      140.094        6.941        0.002      336.184        7.316      870.213
11/13/2013  00:12:00     -128.902      -33.626       -8.555       18.743       18.340       13.475      351.301      336.361      181.576        0.934        0.043      133.216       10.545        0.006      336.181        7.309      870.199
11/13/2013  00:13:00      -96.381      -41.570       -7.059       19.152       11.086       10.802      366.803      122.896      116.675        0.584        0.030      104.964        4.439        0.002      336.261        7.445      870.182
11/13/2013  00:14:00      -71.820      -39.789       -4.178       15.332       14.394        9.299      235.065      207.189       86.474        0.364        0.026       82.105        6.900        0.007      336.267        7.454      870.168
11/13/2013  00:15:00      -89.061      -27.255       -7.922       10.653       17.950        6.701      113.482      322.201       44.909        0.461        0.024       93.138        5.660        0.004      336.297        7.504      870.167
11/13/2013  00:16:00      -90.781      -12.944      -19.409       11.308        8.632        7.783      127.876       74.510       60.571        0.452        0.013       91.699        5.238        0.003      336.292        7.496      870.156
11/13/2013  00:17:00     -114.617       -7.434      -18.440       12.258       11.754        9.065      150.268      138.167       82.174        0.695        0.019      114.858        5.269        0.002      336.232        7.396      870.148
11/13/2013  00:18:00     -112.991      -19.878      -13.359       12.981       11.355        9.823      168.513      128.937       96.498        0.687        0.020      114.726        4.287        0.001      336.229        7.391      870.149
11/13/2013  00:19:00      -99.886      -32.425      -14.416       24.224       16.105       13.501      586.802      259.373      182.288        0.613        0.051      105.017       12.410        0.014      336.198        7.339      870.147
11/13/2013  00:20:00      -68.998      -24.709       -5.346       14.868       14.076       12.734      221.050      198.140      162.157        0.299        0.029       73.289        4.484        0.004      336.234        7.398      870.158
11/13/2013  00:21:00      -67.423      -51.126       -4.886       19.668       19.305       15.864      386.844      372.691      251.664        0.410        0.051       84.615        9.799        0.013      336.227        7.387      870.176
11/13/2013  00:22:00      -51.037      -37.405       -2.876       23.387       27.209       18.162      546.955      740.356      329.875        0.281        0.081       63.277       11.862        0.035      336.198        7.340      870.185
11/13/2013  00:23:00      -96.472      -40.248      -20.649       17.026       14.372       13.189      289.879      206.560      173.955        0.601        0.034      104.531        8.179        0.006      336.056        7.100      870.191
11/13/2013  00:24:00     -112.593      -30.135      -13.867       19.033       18.407       15.474      362.258      338.808      239.445        0.736        0.047      116.556       13.340        0.013      336.018        7.035      870.204
11/13/2013  00:25:00      -98.264      -27.498      -15.737       18.790       15.000        8.664      353.067      225.006       75.066        0.566        0.033      102.039        6.796        0.004      335.978        6.970      870.215
11/13/2013  00:26:00      -90.166      -21.900       -4.718       31.354       16.233       12.024      983.062      263.498      144.584        0.501        0.070       92.787       11.567        0.016      336.017        7.036      870.213
11/13/2013  00:27:00      -87.610      -19.919       -7.875       21.991       13.680       12.009      483.599      187.131      144.217        0.447        0.041       89.846       12.166        0.018      336.050        7.090      870.210
11/13/2013  00:28:00      -91.012      -19.967      -15.304       13.144       10.779        9.499      172.768      116.189       90.229        0.465        0.019       93.177        5.626        0.004      336.066        7.119      870.192
11/13/2013  00:29:00      -73.618      -20.871      -10.524       21.556       11.915        9.579      464.671      141.971       91.765        0.333        0.035       76.519       11.040        0.021      336.031        7.060      870.181
11/13/2013  00:30:00      -75.223       -4.940       -4.175       23.046       12.931       13.691      531.113      167.208      187.454        0.329        0.044       75.385       13.954        0.034      336.004        7.015      870.173
11/13/2013  00:31:00      -78.507      -15.311       -7.892       16.423       12.053       11.783      269.726      145.269      138.836        0.351        0.028       79.987        7.847        0.010      336.011        7.028      870.178
11/13/2013  00:32:00      -87.404      -21.475       -9.369       20.985       11.404       10.638      440.358      130.052      113.176        0.444        0.034       90.004        6.773        0.006      336.035        7.066      870.173
11/13/2013  00:33:00     -102.025      -29.209      -17.549        9.567       10.200        9.893       91.535      104.049       97.867        0.593        0.015      106.124        6.461        0.004      335.972        6.960      870.167
11/13/2013  00:34:00     -107.364      -33.996      -12.116       14.749       12.545        7.907      217.531      157.384       62.522        0.663        0.022      112.618        2.647        0.001      335.959        6.939      870.169
11/13/2013  00:35:00     -109.129      -36.341      -15.051        8.255        8.924        6.648       68.139       79.638       44.202        0.682        0.010      115.021        2.528        0.000      335.943        6.914      870.181
11/13/2013  00:36:00      -98.130      -30.110       -8.936       15.830       17.130       11.425      250.580      293.448      130.534        0.565        0.034      102.646        9.773        0.009      335.941        6.909      870.181
11/13/2013  00:37:00     -102.361      -28.941       -8.820       12.167       12.575        8.347      148.026      158.137       69.676        0.588        0.019      106.374        6.149        0.003      336.043        7.079      870.173
11/13/2013  00:38:00     -115.143       -6.430      -17.747       14.540        9.717        8.083      211.413       94.412       65.330        0.699        0.019      115.323        2.660        0.001      336.050        7.092      870.158
11/13/2013  00:39:00     -100.010       -8.222      -12.789       20.343       18.696       12.531      413.831      349.535      157.023        0.558        0.046      100.347       11.347        0.013      335.935        6.900      870.151
11/13/2013  00:40:00      -91.170      -43.360      -10.570       28.122       24.193       17.374      790.840      585.318      301.872        0.599        0.084      100.955       16.902        0.028      335.831        6.727      870.143
11/13/2013  00:41:00     -115.300      -51.193      -13.742       12.451       15.892       11.226      155.038      252.549      126.016        0.832        0.027      126.154        6.307        0.002      335.811        6.695      870.146
11/13/2013  00:42:00     -133.006      -45.592      -13.493       19.599       14.741        8.781      384.115      217.290       77.099        1.031        0.034      140.603        5.242        0.001      335.817        6.703      870.148
11/13/2013  00:43:00     -135.690      -35.880      -16.862       15.239       11.497        9.177      232.241      132.184       84.219        1.022        0.022      140.353        7.116        0.003      335.799        6.674      870.149
11/13/2013  00:44:00     -109.111      -46.231       -1.168       24.785       21.907       15.866      614.315      479.922      251.729        0.769        0.067      118.501       14.439        0.015      335.742        6.578      870.157
11/13/2013  00:45:00      -94.609      -41.496       -4.872       33.760       24.281       15.388     1139.707      589.553      236.791        0.633        0.098      103.309       16.063        0.024      335.686        6.486      870.162
11/13/2013  00:46:00     -122.077      -32.476      -10.842       15.331       13.852       11.445      235.041      191.873      130.991        0.832        0.028      126.323        5.415        0.002      335.649        6.425      870.162
11/13/2013  00:47:00     -118.736      -42.600      -16.687       11.044       16.146       11.370      121.974      260.678      129.284        0.835        0.026      126.147        8.390        0.004      335.651        6.428      870.149
11/13/2013  00:48:00     -112.418      -32.405      -14.443       14.054       14.444        9.077      197.511      208.618       82.396        0.719        0.024      116.995        4.440        0.001      335.620        6.377      870.131
11/13/2013  00:49:00     -120.441      -30.401      -17.075       17.999       19.212        9.782      323.981      369.106       95.691        0.826        0.039      124.219        4.742        0.001      335.676        6.468      870.122
11/13/2013  00:50:00     -102.529      -30.916       -6.991       19.806       16.804       12.005      392.280      282.370      144.121        0.617        0.041      107.089        9.534        0.008      335.668        6.454      870.114
11/13/2013  00:51:00     -111.995      -27.460      -13.050       10.700       15.072       12.648      114.500      227.180      159.982        0.698        0.025      115.312        8.103        0.005      335.822        6.712      870.087
11/13/2013  00:52:00     -136.119      -43.090      -16.202       16.162       13.340       11.328      261.213      177.953      128.326        1.061        0.028      142.776        7.843        0.003      335.746        6.585      870.070
11/13/2013  00:53:00     -121.150      -58.576      -12.697       13.982       19.869       11.386      195.510      394.771      129.650        0.949        0.036      134.568        9.561        0.005      335.693        6.498      870.067
11/13/2013  00:54:00     -115.871      -68.172      -11.309       25.295       27.254       17.978      639.862      742.759      323.224        0.995        0.085      134.437       11.378        0.007      335.571        6.293      870.062
11/13/2013  00:55:00     -118.210      -52.337      -13.261       22.238       21.016       21.376      494.516      441.682      456.913        0.914        0.070      129.278       12.511        0.009      335.497        6.170      870.054
11/13/2013  00:56:00      -95.704      -51.622       -3.667       25.605       32.825       15.785      655.637     1077.490      249.173        0.691        0.099      108.738       12.853        0.014      335.441        6.076      870.048
11/13/2013  00:57:00      -99.903      -50.343      -12.623       24.473       31.534       22.467      598.907      994.389      504.760        0.739        0.105      111.871       15.775        0.020      335.478        6.137      870.045
11/13/2013  00:58:00      -87.440      -48.149       -8.789       29.303       32.733       19.708      858.639     1071.428      388.402        0.618        0.116       99.821       15.404        0.024      335.393        5.995      870.048
11/13/2013  00:59:00      -85.212      -39.808       -9.176       28.462       19.482       18.857      810.060      379.531      355.585        0.524        0.077       94.052       10.125        0.012      335.439        6.074      870.044
11/13/2013  01:00:00     -125.471      -60.373      -14.585       24.144       21.253       14.615      582.939      451.708      213.590        1.042        0.062      139.240        5.883        0.002      335.406        6.017      870.028
11/13/2013  01:01:00     -145.349      -32.280      -13.971       16.519       30.457       12.916      272.888      927.601      166.822        1.187        0.068      148.890        5.632        0.001      335.507        6.185      870.035
11/13/2013  01:02:00     -117.934      -58.825       -5.400       17.335       16.428       10.168      300.499      269.892      103.389        0.904        0.034      131.790        7.182        0.003      335.563        6.281      870.036
11/13/2013  01:03:00     -104.014      -49.727      -11.281       12.539       15.592        9.017      157.216      243.126       81.299        0.695        0.024      115.289        2.790        0.001      335.621        6.376      870.030
11/13/2013  01:04:00      -98.130      -54.835      -10.502       13.050       15.451       10.770      170.300      238.732      115.987        0.664        0.026      112.412        6.220        0.003      335.645        6.418      870.029
11/13/2013  01:05:00      -90.215      -52.932      -12.485       15.568       17.230       11.852      242.361      296.874      140.466        0.589        0.034      104.597        5.937        0.003      335.638        6.405      870.028
11/13/2013  01:06:00     -117.706      -29.030      -16.955       16.408       14.003        8.950      269.234      196.095       80.108        0.777        0.027      121.233        6.669        0.003      335.597        6.337      870.026
11/13/2013  01:07:00     -133.544      -32.660      -15.021       13.664       11.680        9.865      186.697      136.424       97.323        0.977        0.021      137.480        5.201        0.001      335.588        6.321      870.021
11/13/2013  01:08:00     -106.523      -40.450       -9.729       16.987       16.264       12.136      288.541      264.529      147.276        0.689        0.035      113.945        9.057        0.006      335.605        6.351      870.016
11/13/2013  01:09:00     -112.503      -43.218       -5.976        9.690       12.486        6.822       93.889      155.893       46.534        0.743        0.015      120.519        2.928        0.001      335.631        6.393      870.012
11/13/2013  01:10:00     -112.381      -41.003       -4.776       15.210       18.841        9.416      231.348      354.998       88.655        0.750        0.034      119.628        8.482        0.005      335.700        6.510      870.000
11/13/2013  01:11:00     -109.876      -40.511       -9.449       14.361       13.347       11.085      206.246      178.134      122.885        0.716        0.025      117.106        8.041        0.005      335.689        6.491      869.985
11/13/2013  01:12:00     -123.309      -33.674      -16.107       15.370       10.766       11.613      236.245      115.916      134.870        0.854        0.024      127.825        9.396        0.005      335.675        6.467      869.982
11/13/2013  01:13:00     -124.898      -47.766      -18.736        9.138        8.563        6.959       83.504       73.328       48.426        0.922        0.010      133.721        2.546        0.000      335.603        6.347      869.976
11/13/2013  01:14:00      -96.188      -48.692      -13.393       19.921       19.468       14.781      396.835      379.011      218.486        0.640        0.050      107.811       10.107        0.009      335.498        6.170      869.975
11/13/2013  01:15:00     -117.624      -62.526      -15.236       11.449       15.913       11.303      131.072      253.218      127.758        0.924        0.026      133.210        7.480        0.003      335.501        6.177      869.974
11/13/2013  01:16:00     -125.982      -42.980      -21.686       16.144       13.513       13.170      260.613      182.604      173.451        0.940        0.031      133.112        8.642        0.004      335.399        6.007      869.976
11/13/2013  01:17:00      -99.730      -62.194       -9.157       41.060       21.883       15.940     1685.910      478.851      254.096        0.816        0.121      117.534       17.976        0.023      335.406        6.018      869.970
11/13/2013  01:18:00      -93.366      -27.895       -9.595       43.050       25.049       15.639     1853.312      627.460      244.585        0.616        0.136       97.444       12.887        0.017      335.369        5.956      869.962
11/13/2013  01:19:00      -95.045      -57.142       -0.832       32.625       26.834       19.416     1064.420      720.037      376.999        0.723        0.108      110.900       16.801        0.023      335.373        5.962      869.952
11/13/2013  01:20:00      -89.294      -43.342       -1.652       38.536       21.978       20.417     1485.002      483.047      416.868        0.612        0.119       99.257       20.611        0.043      335.374        5.964      869.948
11/13/2013  01:21:00     -100.874      -34.132      -12.817       41.027       25.195       15.076     1683.249      634.773      227.275        0.702        0.127      106.493       14.063        0.017      335.341        5.911      869.951
11/13/2013  01:22:00      -42.923      -31.241        2.563       35.691       25.318       17.295     1273.819      640.995      299.130        0.252        0.111       53.088       15.720        0.088      335.313        5.863      869.947
11/13/2013  01:23:00      -94.929      -45.540       -7.948       33.934       31.701       19.076     1151.543     1004.942      363.884        0.683        0.126      105.287       14.371        0.019      335.301        5.842      869.939
11/13/2013  01:24:00     -102.442      -49.286      -12.865       25.193       26.104       20.273      634.679      681.421      410.988        0.741        0.086      113.681       11.753        0.011      335.276        5.800      869.945
11/13/2013  01:25:00     -104.829      -38.088       -5.021       17.330       19.891       15.357      300.331      395.640      235.834        0.670        0.047      111.534       11.093        0.010      335.296        5.834      869.936
11/13/2013  01:26:00     -102.857      -65.096       -9.722       17.259       26.170       14.334      297.882      684.844      205.460        0.805        0.059      121.726        7.540        0.004      335.409        6.024      869.925
11/13/2013  01:27:00     -108.392      -45.328      -12.518       17.152       18.841       14.490      294.185      354.978      209.970        0.741        0.043      117.488        8.375        0.005      335.417        6.035      869.913
11/13/2013  01:28:00      -93.161      -38.041       -6.376       17.829       19.827       10.654      317.881      393.095      113.506        0.550        0.041      100.629        9.420        0.009      335.383        5.981      869.905
11/13/2013  01:29:00      -90.943      -21.602       -8.289       20.856       17.422       11.903      434.965      303.524      141.678        0.484        0.044       93.474        9.788        0.011      335.466        6.117      869.907
11/13/2013  01:30:00     -123.768      -12.510      -18.473       20.473       13.763        9.579      419.152      189.419       91.767        0.826        0.035      124.398        7.433        0.004      335.512        6.195      869.898
11/13/2013  01:31:00     -126.568      -10.219      -18.541       10.390        9.954        9.526      107.956       99.087       90.748        0.838        0.015      126.980        6.516        0.003      335.512        6.196      869.897
11/13/2013  01:32:00     -124.898       -8.286      -19.865        8.241        7.359        5.897       67.920       54.155       34.770        0.811        0.008      125.173        4.210        0.001      335.501        6.177      869.890
11/13/2013  01:33:00     -127.550       -7.615      -17.736       20.178       13.017       13.718      407.162      169.452      188.195        0.870        0.038      127.777       10.053        0.006      335.395        5.999      869.908
11/13/2013  01:34:00     -151.774      -23.012      -18.357       16.762       17.771       14.947      280.954      315.798      223.414        1.236        0.041      153.508       10.270        0.004      335.358        5.938      869.911
11/13/2013  01:35:00      -95.428      -45.478      -10.817       29.501       25.092       18.156      870.282      629.618      329.649        0.656        0.091      105.710       15.678        0.022      335.306        5.852      869.909
11/13/2013  01:36:00      -88.599      -20.486      -15.431       16.928       17.190       14.883      286.543      295.501      221.502        0.466        0.040       90.937        8.070        0.008      335.327        5.886      869.906
11/13/2013  01:37:00     -117.848      -12.298      -14.852       24.992       28.592       12.829      624.596      817.497      164.591        0.793        0.080      118.487       10.040        0.007      335.373        5.963      869.903
11/13/2013  01:38:00      -92.817      -13.565      -12.863       28.960       17.906       15.315      838.689      320.617      234.562        0.518        0.070       93.803       10.051        0.011      335.306        5.850      869.901
11/13/2013  01:39:00      -44.716      -12.209       -6.625       10.203       11.183        9.975      104.110      125.055       99.511        0.126        0.016       46.352        6.419        0.019      335.265        5.782      869.890
11/13/2013  01:40:00      -62.686      -14.606      -10.962       11.841       11.746       10.335      140.207      137.967      106.806        0.232        0.019       64.365        4.582        0.005      335.431        6.060      869.888
11/13/2013  01:41:00      -85.065       -2.524      -10.375       14.894       18.050       15.223      221.819      325.792      231.750        0.406        0.039       85.103        8.184        0.009      335.440        6.075      869.886
11/13/2013  01:42:00      -75.242      -30.953      -10.425       33.669       26.338       16.382     1133.570      693.666      268.354        0.441        0.105       81.360       12.766        0.025      335.334        5.897      869.885
11/13/2013  01:43:00      -87.885      -45.440      -13.137       32.672       16.021       17.691     1067.430      256.687      312.986        0.580        0.082       98.937       19.246        0.038      335.265        5.784      869.881
11/13/2013  01:44:00     -114.117      -28.537      -20.671       18.366       19.502       13.288      337.321      380.346      176.578        0.758        0.045      117.631        7.965        0.005      335.196        5.669      869.886
11/13/2013  01:45:00      -85.971      -36.151       -5.173       37.099       20.813       16.202     1376.336      433.183      262.501        0.540        0.104       93.263       19.008        0.042      335.188        5.655      869.892
11/13/2013  01:46:00      -81.020      -45.201      -11.724       22.036       18.862       12.567      485.568      355.779      157.924        0.487        0.050       92.775        9.958        0.012      335.155        5.601      869.890
11/13/2013  01:47:00      -92.581      -38.084      -14.480       13.597       13.479        8.361      184.886      181.684       69.908        0.533        0.022      100.108        4.508        0.002      335.176        5.635      869.895
11/13/2013  01:48:00      -67.961      -32.810       -6.474       13.440        7.981        6.312      180.645       63.702       39.839        0.301        0.014       75.466        6.490        0.007      335.234        5.731      869.895
11/13/2013  01:49:00      -81.771      -10.379      -14.481       10.889       10.588        8.815      118.562      112.099       77.705        0.366        0.015       82.427        6.479        0.006      335.286        5.817      869.895
11/13/2013  01:50:00      -82.427       -8.226      -15.032        8.048        7.462        8.037       64.768       55.687       64.591        0.364        0.009       82.836        3.972        0.002      335.340        5.909      869.889
11/13/2013  01:51:00      -95.001      -19.897      -13.408       16.549       10.532        8.818      273.871      110.929       77.759        0.503        0.023       97.062        6.123        0.004      335.329        5.891      869.880
11/13/2013  01:52:00     -107.563      -27.103      -16.144        7.151        8.412        7.582       51.130       70.766       57.481        0.637        0.009      110.925        4.390        0.002      335.228        5.721      869.866
11/13/2013  01:53:00      -91.422      -25.566      -18.839       12.059       16.091       10.236      145.422      258.908      104.770        0.494        0.025       94.929        9.262        0.010      335.155        5.601      869.859
11/13/2013  01:54:00      -82.646      -10.065      -11.476       16.476       14.324       13.719      271.469      205.177      188.204        0.386        0.033       83.256        9.803        0.014      335.168        5.624      869.857
11/13/2013  01:55:00      -71.392      -15.706      -20.436       11.575       11.885       11.112      133.975      141.242      123.486        0.308        0.020       73.100        8.397        0.013      335.218        5.705      869.855
11/13/2013  01:56:00      -88.510      -26.110      -13.920       14.247       12.510        9.211      202.990      156.505       84.839        0.458        0.022       92.281        6.198        0.005      335.146        5.588      869.860
11/13/2013  01:57:00      -98.205      -40.229      -18.927       14.299       15.987       12.290      204.473      255.598      151.032        0.612        0.031      106.126        4.642        0.002      335.140        5.577      869.872
11/13/2013  01:58:00     -117.057      -52.825      -10.109       20.849       16.925       12.520      434.680      286.444      156.743        0.874        0.044      128.425        8.371        0.004      335.111        5.528      869.874
11/13/2013  01:59:00     -120.850      -35.679       -6.691       17.451       15.162       12.857      304.524      229.885      165.308        0.831        0.035      126.007       10.923        0.008      335.099        5.508      869.869
11/13/2013  02:00:00      -93.402      -18.234      -11.034       13.860       10.479       10.971      192.102      109.803      120.360        0.480        0.021       95.165        8.699        0.008      335.166        5.620      869.867
11/13/2013  02:01:00      -96.043      -34.164      -11.797       13.910        9.767        6.392      193.482       95.399       40.858        0.543        0.016      101.939        4.283        0.002      335.233        5.729      869.852
11/13/2013  02:02:00     -103.462      -21.016      -13.807       18.712       14.162       11.961      350.153      200.548      143.064        0.602        0.035      105.575       10.804        0.010      335.232        5.728      869.832
11/13/2013  02:03:00     -113.814       -9.445      -13.843       12.742       13.770        9.846      162.360      189.610       96.951        0.684        0.022      114.205        6.850        0.004      335.179        5.641      869.814
11/13/2013  02:04:00     -111.064      -18.304      -15.328       11.592       12.592        7.362      134.381      158.554       54.194        0.663        0.017      112.562        5.003        0.002      335.194        5.666      869.807
11/13/2013  02:05:00     -102.815      -30.321       -8.939       19.977       13.649       11.848      399.085      186.291      140.385        0.615        0.036      107.192       10.400        0.009      335.115        5.534      869.822
11/13/2013  02:06:00     -105.538      -33.928      -10.910       11.806       14.033       10.356      139.383      196.916      107.248        0.643        0.022      110.858        7.676        0.005      335.123        5.549      869.820
11/13/2013  02:07:00     -105.603      -44.397       -5.427       21.636       15.495       14.497      468.101      240.084      210.173        0.704        0.046      114.556       12.487        0.012      335.122        5.547      869.820
11/13/2013  02:08:00     -109.429      -48.725       -7.844       16.038       13.527        8.138      257.218      182.992       66.222        0.746        0.025      119.787        6.179        0.003      335.112        5.532      869.821
11/13/2013  02:09:00     -129.214      -46.887       -5.282       14.237       15.902        9.049      202.696      252.874       81.877        0.973        0.027      137.458        4.777        0.001      335.133        5.565      869.834
11/13/2013  02:10:00     -129.473      -56.458       -6.245       11.410       15.812        8.010      130.195      250.005       64.158        1.022        0.022      141.247        4.173        0.001      335.155        5.602      869.836
11/13/2013  02:11:00     -121.802      -55.211       -4.451       18.831       14.712       12.564      354.614      216.443      157.848        0.932        0.036      133.731        8.779        0.004      335.104        5.517      869.837
11/13/2013  02:12:00     -114.382      -39.715       -4.549       27.143       21.502       12.567      736.729      462.355      157.938        0.802        0.068      121.080       10.361        0.007      335.131        5.563      869.845
11/13/2013  02:13:00     -110.553      -40.289       -6.421       20.586       12.336       11.873      423.783      152.175      140.978        0.730        0.036      117.665       11.089        0.009      335.099        5.510      869.841
11/13/2013  02:14:00     -110.708      -30.729      -11.250       16.038       12.797       10.220      257.229      163.773      104.452        0.693        0.026      114.894        5.294        0.002      335.083        5.482      869.847
11/13/2013  02:15:00     -117.760      -43.750       -4.161       10.643       11.489       10.453      113.282      131.992      109.269        0.808        0.018      125.625        7.350        0.003      335.087        5.491      869.851
11/13/2013  02:16:00      -97.792      -41.426       -8.706       13.624       14.160        7.648      185.622      200.517       58.490        0.590        0.022      106.205        5.091        0.002      335.046        5.419      869.843
11/13/2013  02:17:00      -82.531      -39.136      -12.959       13.226       11.946       11.603      174.925      142.706      134.631        0.448        0.023       91.341        8.982        0.010      335.066        5.452      869.831
11/13/2013  02:18:00      -85.562      -31.397       -4.057       20.248       17.080       12.788      409.993      291.714      163.544        0.459        0.043       91.141       12.969        0.020      335.089        5.493      869.824
11/13/2013  02:19:00      -75.055      -37.079        2.724       29.788       37.123       19.264      887.332     1378.120      371.112        0.483        0.132       83.715       18.618        0.049      335.070        5.462      869.805
11/13/2013  02:20:00      -96.359      -40.793       -2.931       21.633       25.447       13.914      468.001      647.543      193.594        0.613        0.065      104.638       13.071        0.016      335.156        5.602      869.784
11/13/2013  02:21:00      -89.401      -23.788       -1.399       45.673       32.312       19.047     2085.991     1044.045      362.803        0.603        0.175       92.512       24.112        0.068      335.072        5.464      869.769
11/13/2013  02:22:00     -104.465      -54.420       -0.477       39.754       24.833       19.086     1580.405      616.655      364.259        0.822        0.128      117.790       18.600        0.025      335.117        5.537      869.754
11/13/2013  02:23:00     -100.446      -57.339        0.496       33.858       40.062       16.916     1146.393     1604.979      286.146        0.821        0.152      115.660       14.075        0.015      335.100        5.510      869.753
11/13/2013  02:24:00      -70.945      -40.385        0.312       24.692       27.272       17.660      609.685      743.769      311.890        0.416        0.083       81.634       10.159        0.015      335.116        5.537      869.756
11/13/2013  02:25:00      -44.483      -36.092        3.109       48.026       19.586       23.410     2306.507      383.597      548.047        0.326        0.162       57.283       24.640        0.185      335.181        5.644      869.748
11/13/2013  02:26:00      -65.945      -17.487       -2.200       21.056       29.389       19.866      443.373      863.731      394.665        0.318        0.085       68.224       15.242        0.050      335.167        5.621      869.730
11/13/2013  02:27:00      -50.206      -20.162      -17.465       23.642       18.113       14.050      558.939      328.067      197.414        0.216        0.054       54.103       12.508        0.053      335.190        5.658      869.718
11/13/2013  02:28:00      -76.749      -24.323      -13.986       25.341       16.308       14.232      642.187      265.963      202.543        0.389        0.056       80.511        9.984        0.015      335.175        5.633      869.706
11/13/2013  02:29:00      -78.566      -38.117      -18.629       23.402       25.836       19.364      547.641      667.486      374.980        0.478        0.080       87.324       11.055        0.016      335.176        5.635      869.714
11/13/2013  02:30:00      -77.671      -33.939       -5.910       23.362       17.928       12.605      545.782      321.430      158.893        0.412        0.051       84.763       11.632        0.019      335.106        5.521      869.713
11/13/2013  02:31:00      -82.489      -20.351      -12.100       18.726       22.702       11.153      350.659      515.373      124.398        0.418        0.050       84.962       10.923        0.017      335.091        5.494      869.700
11/13/2013  02:32:00      -56.923      -31.534       -4.289       21.174       17.269       12.573      448.326      298.219      158.091        0.258        0.045       65.074        9.931        0.023      335.073        5.467      869.693
11/13/2013  02:33:00      -95.199      -21.266      -11.065       23.258       17.273       11.662      540.950      298.342      135.993        0.531        0.049       97.545       10.791        0.012      335.047        5.424      869.686
11/13/2013  02:34:00      -55.780      -35.991        2.911       31.233       18.483       15.602      975.525      341.625      243.419        0.299        0.078       66.383       13.823        0.043      335.041        5.413      869.683
11/13/2013  02:35:00      -91.781      -30.326       -7.485       21.747       27.392       17.424      472.946      750.312      303.604        0.546        0.076       96.662        6.481        0.004      335.078        5.473      869.679
11/13/2013  02:36:00      -65.313      -17.417       -1.338       50.523       19.520       19.426     2552.539      381.039      377.378        0.394        0.166       67.595       27.147        0.161      335.083        5.482      869.662
11/13/2013  02:37:00      -81.615      -40.121       -2.015       36.668       39.433       20.046     1344.548     1554.939      401.843        0.579        0.165       90.944       17.301        0.036      335.109        5.525      869.650
11/13/2013  02:38:00      -75.726      -30.471       -7.521       25.626       26.783       15.268      656.702      717.339      233.117        0.416        0.080       81.626       10.604        0.017      335.080        5.476      869.638
11/13/2013  02:39:00      -35.725      -24.717       -0.914       30.506       20.906       17.418      930.620      437.046      303.392        0.178        0.084       43.442       13.383        0.095      335.099        5.509      869.643
11/13/2013  02:40:00      -77.028      -33.043      -14.382       42.399       25.404       15.223     1797.711      645.352      231.741        0.495        0.134       83.816        7.548        0.008      335.163        5.615      869.643
11/13/2013  02:41:00      -55.340      -34.832       -0.789       34.811       17.708       16.019     1211.813      313.579      256.594        0.303        0.089       65.389       18.387        0.079      335.111        5.529      869.640
11/13/2013  02:42:00      -71.050      -33.575      -11.165       23.472       16.746       13.476      550.933      280.443      181.602        0.366        0.051       78.584       10.165        0.017      335.110        5.527      869.635
11/13/2013  02:43:00      -38.759      -34.390       -9.033       35.214       16.430       14.574     1240.002      269.930      212.391        0.224        0.086       51.816        8.189        0.025      335.109        5.526      869.621
11/13/2013  02:44:00      -70.800      -37.043       -6.321       35.580       24.116       16.604     1265.966      581.560      275.708        0.427        0.106       79.905       18.935        0.056      335.113        5.532      869.607
11/13/2013  02:45:00      -39.788      -16.993        3.208       33.055       21.904       16.681     1092.605      479.785      278.261        0.187        0.093       43.265       20.024        0.214      335.088        5.492      869.602
11/13/2013  02:46:00      -74.373      -34.413       -6.757       20.503       21.378       17.642      420.393      457.002      311.235        0.397        0.059       81.948        9.462        0.013      335.057        5.439      869.594
11/13/2013  02:47:00      -57.187      -39.373       -6.822       17.147       15.406       12.905      294.022      237.352      166.534        0.278        0.035       69.430        5.071        0.005      335.069        5.460      869.593
11/13/2013  02:48:00      -71.970      -26.074      -13.441       17.925       16.548       13.052      321.309      273.844      170.345        0.340        0.038       76.548       10.778        0.020      335.107        5.521      869.594
11/13/2013  02:49:00      -66.413      -24.996      -14.328       18.178       31.206       15.575      330.455      973.831      242.578        0.339        0.077       70.962       10.770        0.023      335.130        5.559      869.592
11/13/2013  02:50:00      -82.540      -44.344      -14.382       17.374       19.641       12.130      301.870      385.780      147.128        0.491        0.042       93.698       10.132        0.012      335.103        5.515      869.597
11/13/2013  02:51:00      -81.016      -52.106      -13.731       17.023       17.370       10.677      289.792      301.703      113.991        0.509        0.035       96.325        7.376        0.006      335.119        5.541      869.604
11/13/2013  02:52:00      -73.915      -29.563       -7.454       19.812       18.066       13.991      392.529      326.397      195.748        0.365        0.046       79.607       12.945        0.026      335.044        5.419      869.616
11/13/2013  02:53:00      -73.785      -28.632       -6.778        9.780        7.960        7.125       95.642       63.369       50.760        0.326        0.010       79.146        3.727        0.002      335.096        5.506      869.625
11/13/2013  02:54:00      -96.164      -27.383      -13.830       11.676       11.021        7.904      136.335      121.456       62.477        0.525        0.016       99.986        5.248        0.003      335.125        5.552      869.631
11/13/2013  02:55:00      -90.830      -52.980       -3.991       20.712       19.377       14.869      428.990      375.487      221.098        0.605        0.051      105.153       11.069        0.011      335.009        5.359      869.645
11/13/2013  02:56:00      -78.950      -51.006        3.923       29.044       26.118       17.868      843.527      682.170      319.264        0.535        0.092       93.993       13.609        0.021      335.086        5.487      869.649
11/13/2013  02:57:00      -85.294      -45.930       -3.918       23.471       21.948       14.435      550.894      481.722      208.380        0.532        0.062       96.874       13.812        0.020      335.149        5.590      869.639
11/13/2013  02:58:00      -84.982      -29.772       -4.431       15.676       22.489       11.802      245.748      505.736      139.282        0.451        0.045       90.046        7.894        0.008      335.187        5.653      869.629
11/13/2013  02:59:00      -87.730      -39.810      -10.824       15.156       14.195        9.138      229.719      201.488       83.504        0.496        0.026       96.340        5.842        0.004      335.181        5.643      869.617
11/13/2013  03:00:00      -88.988      -33.394       -5.658       12.275       13.384       10.696      150.680      179.133      114.406        0.476        0.022       95.048        4.942        0.003      335.164        5.616      869.629
11/13/2013  03:01:00      -46.257      -25.018        6.638       35.682       21.766       18.271     1273.240      473.776      333.812        0.244        0.104       52.589       19.375        0.136      335.049        5.426      869.640
11/13/2013  03:02:00      -75.696      -37.337        3.812       31.005       15.663       15.185      961.331      245.329      230.581        0.429        0.072       84.403       16.346        0.038      334.968        5.292      869.645
11/13/2013  03:03:00      -95.936      -23.897       -7.711       16.914       12.696        9.088      286.067      161.181       82.599        0.518        0.026       98.867        6.588        0.004      335.026        5.388      869.644
11/13/2013  03:04:00     -107.819      -12.851      -13.602        8.336        8.632        6.272       69.482       74.514       39.332        0.608        0.009      108.582        4.120        0.001      335.024        5.384      869.640
11/13/2013  03:05:00     -115.519      -16.598      -18.451        7.085        8.438        6.319       50.191       71.192       39.927        0.706        0.008      116.705        2.192        0.000      335.106        5.521      869.645
11/13/2013  03:06:00     -120.380      -31.218      -14.821       14.879       11.799        9.221      221.381      139.224       85.020        0.807        0.022      124.362        6.446        0.003      335.130        5.560      869.659
11/13/2013  03:07:00     -124.186      -48.604       -6.176       11.859       12.465        9.846      140.640      155.389       96.947        0.911        0.020      133.358        7.318        0.003      335.059        5.441      869.683
11/13/2013  03:08:00      -99.436      -43.138        0.807       24.721       16.783       14.612      611.105      281.660      213.512        0.643        0.055      108.390       12.705        0.014      334.999        5.341      869.701
11/13/2013  03:09:00      -70.033      -16.323        0.195       26.661       21.831       16.248      710.800      476.608      263.984        0.331        0.073       71.910       15.426        0.046      334.983        5.317      869.703
11/13/2013  03:10:00     -100.833      -38.364       -6.014       18.626       15.975       11.657      346.918      255.188      135.884        0.621        0.037      107.884       10.948        0.010      335.084        5.484      869.705
11/13/2013  03:11:00      -86.429      -43.019        0.533       27.022       18.517       15.632      730.170      342.881      244.363        0.532        0.066       96.543       16.101        0.028      335.081        5.478      869.712
11/13/2013  03:12:00     -106.742      -27.705       -7.203       19.425       17.518       10.788      377.321      306.893      116.373        0.651        0.040      110.279        8.028        0.005      335.017        5.371      869.724
11/13/2013  03:13:00     -110.098       -4.656      -10.420        9.997        7.889        8.062       99.948       62.238       64.997        0.624        0.011      110.196        4.382        0.002      335.010        5.361      869.725
11/13/2013  03:14:00     -113.473       -2.717      -17.077       10.384        6.494        5.954      107.819       42.176       35.448        0.668        0.009      113.505        4.614        0.002      335.000        5.344      869.726
11/13/2013  03:15:00     -121.298      -12.606      -17.820       10.225        9.910        8.137      104.546       98.215       66.208        0.773        0.013      121.951        2.130        0.000      335.012        5.365      869.734
11/13/2013  03:16:00     -121.160      -36.197      -11.720       17.190       14.229        9.921      295.481      202.453       98.430        0.836        0.030      126.451        6.350        0.003      335.012        5.364      869.735
11/13/2013  03:17:00      -92.390      -44.833      -19.071       11.425       15.293       10.575      130.521      233.884      111.828        0.569        0.024      102.694        6.920        0.005      334.876        5.138      869.737
11/13/2013  03:18:00      -64.610      -33.753      -14.819       17.368       14.143       12.894      301.649      200.028      166.250        0.310        0.033       72.895       10.510        0.021      334.828        5.058      869.731
11/13/2013  03:19:00      -62.556       -9.953       -7.861       13.955       15.133       11.653      194.730      229.002      135.782        0.232        0.028       63.343        6.799        0.012      334.840        5.079      869.711
11/13/2013  03:20:00      -39.967      -12.388       -6.281       10.256       13.861        9.667      105.183      192.134       93.452        0.109        0.020       41.843        8.559        0.042      334.911        5.195      869.692
11/13/2013  03:21:00      -29.913      -13.861      -10.585       11.939       10.246        6.590      142.550      104.972       43.432        0.074        0.015       32.968        4.662        0.020      335.118        5.539      869.676
11/13/2013  03:22:00      -18.378      -13.293       -2.093       13.035       10.604        9.803      169.904      112.455       96.097        0.045        0.019       22.682        3.260        0.021      335.175        5.633      869.665
11/13/2013  03:23:00      -19.574      -10.556       -0.608        7.881       10.073       11.294       62.115      101.471      127.549        0.039        0.015       22.239        6.115        0.076      335.285        5.817      869.648
11/13/2013  03:24:00       12.968       22.970       -2.278       17.774       16.767       13.470      315.925      281.149      181.446        0.074        0.039       26.378       10.752        0.166      335.548        6.256      869.636
11/13/2013  03:25:00        2.698        2.744        2.847       19.460       25.295        9.968      378.677      639.842       99.359        0.057        0.056        3.848        9.367        5.927      335.574        6.297      869.636
11/13/2013  03:26:00      -19.419      -28.269        7.078       10.368        9.856        9.655      107.503       97.136       93.225        0.076        0.015       34.296        7.091        0.043      335.468        6.121      869.638
11/13/2013  03:27:00      -13.240      -16.403       -6.489       10.628        9.515        6.916      112.947       90.539       47.827        0.037        0.013       21.080        5.456        0.067      334.988        5.324      869.639
11/13/2013  03:28:00       -5.935      -12.489       -5.222       10.307       16.647        7.256      106.230      277.123       52.646        0.033        0.022       13.828        5.708        0.170      335.118        5.538      869.639
11/13/2013  03:29:00        2.016       -0.430       -0.761        9.290       10.749       10.346       86.309      115.546      107.039        0.016        0.015        2.062        7.356       12.728      335.262        5.778      869.635
11/13/2013  03:30:00       30.985       21.619        6.045       18.494       11.883       12.580      342.028      141.215      158.257        0.105        0.032       37.782        7.059        0.035      335.338        5.904      869.632
11/13/2013  03:31:00       16.066       -0.326        0.743       10.483       14.148        7.962      109.898      200.176       63.393        0.032        0.019       16.069        2.769        0.030      335.223        5.714      869.629
11/13/2013  03:32:00       -1.833      -10.249        4.110       11.938       14.144        7.210      142.515      200.045       51.990        0.026        0.020       10.412        6.284        0.364      335.238        5.738      869.630
11/13/2013  03:33:00      -14.175        4.039        0.959       33.085       12.221       10.667     1094.622      149.356      113.776        0.079        0.068       14.739       14.724        0.998      335.041        5.413      869.628
11/13/2013  03:34:00       -3.494       53.532       -9.424       22.280       25.056       12.309      496.382      627.815      151.516        0.212        0.064       53.646        6.718        0.016      335.348        5.922      869.618
11/13/2013  03:35:00       -2.127       86.173      -14.727        8.368       11.871        6.028       70.029      140.910       36.331        0.395        0.012       86.199        3.357        0.002      335.576        6.302      869.609
11/13/2013  03:36:00        7.427       90.123      -12.047       11.569       12.553        7.202      133.836      157.566       51.874        0.433        0.017       90.428        5.544        0.004      335.570        6.293      869.606
11/13/2013  03:37:00       27.483       86.953      -13.522       13.243       12.835        8.334      175.378      164.739       69.448        0.445        0.020       91.193        5.681        0.004      335.517        6.204      869.596
11/13/2013  03:38:00       23.303       65.973       -6.066       13.622       23.719       13.122      185.546      562.575      172.196        0.293        0.046       69.968       13.730        0.039      335.433        6.063      869.582
11/13/2013  03:39:00       18.632       53.423       -4.523       13.864       22.039       13.438      192.205      485.703      180.583        0.204        0.043       56.579        9.386        0.028      335.441        6.078      869.563
11/13/2013  03:40:00       15.171       46.043       -5.724       12.550       13.678        9.389      157.500      187.079       88.144        0.141        0.022       48.478        6.410        0.017      335.422        6.044      869.550
11/13/2013  03:41:00        1.758       46.417       -6.050        8.694       11.608        6.357       75.584      134.735       40.411        0.122        0.013       46.450        6.099        0.017      335.515        6.201      869.546
11/13/2013  03:42:00      -33.081       -1.227       -7.009       17.212       23.145        8.492      296.246      535.672       72.116        0.102        0.045       33.103        6.688        0.041      335.125        5.551      869.530
11/13/2013  03:43:00      -41.417       -2.002       -3.851       10.824        8.449        6.534      117.153       71.393       42.688        0.098        0.012       41.466        3.322        0.006      334.829        5.060      869.523
11/13/2013  03:44:00      -12.340      -14.737       -3.716       17.260       15.916       10.057      297.890      253.330      101.140        0.052        0.033       19.221       11.097        0.333      334.859        5.109      869.508
11/13/2013  03:45:00       13.277       -6.280       -1.037        8.799       12.976        6.553       77.425      168.366       42.935        0.025        0.014       14.687        5.705        0.151      335.269        5.791      869.503
11/13/2013  03:46:00       -1.276       -7.729       -1.733        6.127        9.537        4.417       37.542       90.961       19.508        0.011        0.007        7.834        1.794        0.052      335.172        5.628      869.501
11/13/2013  03:47:00       -5.971       -9.119       -4.188        6.856        9.311        6.523       47.004       86.703       42.552        0.016        0.009       10.900        2.395        0.048      335.141        5.578      869.489
11/13/2013  03:48:00      -19.200      -20.289       -2.354       16.645       10.693        9.815      277.071      114.338       96.326        0.064        0.024       27.933        9.717        0.121      334.847        5.090      869.477
11/13/2013  03:49:00      -37.303      -11.079      -10.984        8.668        9.804        6.474       75.133       96.114       41.918        0.092        0.011       38.913        2.032        0.003      334.751        4.932      869.467
11/13/2013  03:50:00      -28.841      -10.991       -2.954        7.945        7.391        7.663       63.119       54.621       58.725        0.057        0.009       30.865        4.002        0.017      334.801        5.014      869.457
11/13/2013  03:51:00      -19.980      -19.594       -0.646        8.502       10.932        6.121       72.292      119.506       37.471        0.051        0.011       27.984        5.453        0.038      334.897        5.172      869.464
11/13/2013  03:52:00      -30.850      -31.978      -11.785       15.007        9.959       10.494      225.200       99.190      110.122        0.127        0.022       44.433        7.028        0.025      334.741        4.913      869.472
11/13/2013  03:53:00      -74.543      -21.528       -7.697       17.248       16.103        7.964      297.509      259.322       63.431        0.335        0.031       77.590        6.099        0.006      334.510        4.530      869.484
11/13/2013  03:54:00      -84.227       14.178       -1.019       12.072       19.093       10.378      145.741      364.554      107.702        0.396        0.031       85.411        5.814        0.005      334.611        4.697      869.492
11/13/2013  03:55:00      -51.102       23.479      -10.509       19.555       14.292        9.519      382.383      204.250       90.610        0.198        0.034       56.238        8.532        0.023      334.818        5.041      869.490
11/13/2013  03:56:00      -77.657        4.204      -15.284       11.026        6.995        6.759      121.579       48.935       45.689        0.325        0.011       77.771        4.921        0.004      334.479        4.480      869.489
11/13/2013  03:57:00      -71.255        2.875      -11.657       12.088       11.042        8.403      146.120      121.921       70.610        0.278        0.017       71.313        5.549        0.006      334.488        4.494      869.493
11/13/2013  03:58:00      -69.072      -14.398      -11.357       10.289       11.683        8.356      105.857      136.494       69.818        0.271        0.016       70.557        3.628        0.003      334.401        4.346      869.503
11/13/2013  03:59:00      -80.073      -17.671      -11.719       14.331       14.035       10.991      205.366      196.976      120.804        0.369        0.026       81.999        7.253        0.008      334.409        4.362      869.525
11/13/2013  04:00:00      -79.623      -18.572      -13.537       19.005       20.350       14.372      361.183      414.114      206.545        0.392        0.049       81.760        6.562        0.006      334.421        4.383      869.547
11/13/2013  04:01:00      -78.867      -31.832      -12.623       37.173       28.705       19.686     1381.811      823.959      387.549        0.499        0.130       85.049       18.960        0.050      334.369        4.297      869.554
11/13/2013  04:02:00     -108.451       -5.734      -15.200       12.903        9.055        9.140      166.496       81.988       83.535        0.618        0.017      108.603        3.813        0.001      334.438        4.411      869.548
11/13/2013  04:03:00      -97.338      -10.436      -10.756       15.333       16.011        9.471      235.095      256.344       89.695        0.514        0.029       97.896        6.255        0.004      334.426        4.391      869.545
11/13/2013  04:04:00     -100.651      -28.543      -12.174       16.779       13.685        8.151      281.519      187.292       66.431        0.581        0.027      104.620        5.289        0.003      334.491        4.498      869.544
11/13/2013  04:05:00      -97.760      -25.766      -14.851       12.215       10.411        9.447      149.206      108.392       89.238        0.539        0.017      101.098        5.105        0.003      334.480        4.480      869.531
11/13/2013  04:06:00      -80.997      -20.822      -10.440       10.514       10.134        7.547      110.541      102.705       56.951        0.369        0.014       83.631        1.790        0.000      334.586        4.656      869.523
11/13/2013  04:07:00      -81.338      -13.161      -10.444        8.986        8.995        6.073       80.744       80.917       36.879        0.355        0.010       82.396        1.284        0.000      334.642        4.751      869.512
11/13/2013  04:08:00      -92.472       -6.035      -13.616        7.044        7.970        4.852       49.615       63.518       23.539        0.445        0.007       92.669        3.486        0.001      334.669        4.792      869.499
11/13/2013  04:09:00      -87.758       -5.612      -11.749        7.520        6.600        7.582       56.549       43.563       57.488        0.401        0.008       87.937        4.779        0.003      334.681        4.814      869.484
11/13/2013  04:10:00      -89.872      -14.630      -15.424       11.827        8.800        7.874      139.880       77.432       61.999        0.440        0.014       91.055        4.891        0.003      334.709        4.861      869.480
11/13/2013  04:11:00     -114.240      -18.907      -11.921       17.123        9.562        9.106      293.202       91.430       82.920        0.701        0.023      115.794        9.869        0.007      334.810        5.030      869.474
11/13/2013  04:12:00     -110.895      -19.072      -13.018        6.843        6.754        5.951       46.823       45.621       35.415        0.648        0.006      112.523        1.204        0.000      334.776        4.972      869.458
11/13/2013  04:13:00      -87.404      -21.674      -10.617       13.600        8.991        8.883      184.952       80.845       78.911        0.428        0.017       90.051        5.131        0.003      334.723        4.886      869.439
11/13/2013  04:14:00      -71.863      -27.562       -7.030        8.839        7.617        5.824       78.133       58.026       33.923        0.307        0.009       76.968        3.428        0.002      334.656        4.772      869.426
11/13/2013  04:15:00      -76.192       -7.980      -11.030        9.095        8.631        5.953       82.719       74.496       35.435        0.309        0.010       76.608        3.639        0.002      334.633        4.735      869.424
11/13/2013  04:16:00      -89.879       -3.139      -17.824       11.601       10.107        8.693      134.581      102.158       75.576        0.436        0.016       89.934        5.804        0.004      334.584        4.653      869.417
11/13/2013  04:17:00     -104.570       -1.743      -14.588       20.270       13.450       14.081      410.854      180.897      198.270        0.597        0.040      104.584       12.592        0.014      334.473        4.469      869.408
11/13/2013  04:18:00      -61.396       -7.937       -0.224       27.610       22.049       21.078      762.300      486.179      444.275        0.276        0.085       61.907       20.951        0.115      334.373        4.305      869.408
11/13/2013  04:19:00      -66.167      -18.331      -10.630       24.951       19.330       12.754      622.568      373.660      162.661        0.299        0.058       68.659        9.630        0.020      334.372        4.302      869.417
11/13/2013  04:20:00      -79.674      -20.596      -14.259       24.102       22.606       11.591      580.919      511.028      134.352        0.410        0.061       82.293        5.409        0.004      334.369        4.297      869.429
11/13/2013  04:21:00      -65.162      -32.830       -3.722       21.329       26.656       20.381      454.906      710.520      415.394        0.346        0.079       72.965       13.953        0.037      334.291        4.167      869.438
11/13/2013  04:22:00      -64.420      -35.757      -17.409       22.563       17.922       18.613      509.083      321.183      346.446        0.345        0.059       73.678       13.449        0.033      334.290        4.167      869.441
11/13/2013  04:23:00      -74.532      -21.254       -9.435       19.293       22.982       19.112      372.210      528.176      365.284        0.368        0.063       77.503        7.221        0.009      334.304        4.190      869.444
11/13/2013  04:24:00      -71.618      -10.912      -18.642       16.636       16.467        9.824      276.744      271.161       96.512        0.312        0.032       72.444        9.695        0.018      334.352        4.267      869.437
11/13/2013  04:25:00      -62.448       -8.112       -7.718       20.128       17.357       11.586      405.146      301.271      134.240        0.243        0.042       62.973        9.584        0.023      334.307        4.192      869.439
11/13/2013  04:26:00      -78.460       -3.979      -12.936       14.851       16.059       15.101      220.546      257.887      228.032        0.352        0.035       78.561       10.695        0.019      334.362        4.285      869.432
11/13/2013  04:27:00      -79.757      -10.364      -16.781       15.645       12.801       10.863      244.758      163.869      118.002        0.364        0.026       80.427        8.246        0.011      334.348        4.260      869.421
11/13/2013  04:28:00      -79.946      -24.421      -12.353       20.449       17.269       13.606      418.147      298.229      185.121        0.402        0.045       83.593        9.418        0.013      334.328        4.228      869.425
11/13/2013  04:29:00      -88.446      -21.928      -10.783       12.010       15.805       14.371      144.229      249.786      206.524        0.451        0.030       91.124       11.065        0.015      334.300        4.183      869.440
11/13/2013  04:30:00      -75.202       -9.692      -11.744       12.201       10.319        7.389      148.853      106.480       54.599        0.310        0.015       75.824        6.520        0.007      334.414        4.369      869.438
11/13/2013  04:31:00      -65.600      -26.045      -15.667        9.316        9.682        7.717       86.779       93.734       59.557        0.273        0.012       70.581        3.256        0.002      334.345        4.258      869.447
11/13/2013  04:32:00      -71.540      -33.443       -5.737       26.319       17.482       13.196      692.679      305.637      174.135        0.372        0.059       78.971        8.959        0.013      334.309        4.197      869.468
11/13/2013  04:33:00     -109.514      -38.012      -17.004       15.378       15.920       11.042      236.477      253.435      121.931        0.717        0.031      115.923       10.387        0.008      334.182        3.987      869.499
11/13/2013  04:34:00     -128.164      -41.490      -20.277       16.618       17.907       13.924      276.169      320.672      193.879        0.967        0.040      134.712       11.089        0.007      334.197        4.011      869.510
11/13/2013  04:35:00     -124.691      -13.477      -19.047       19.137       14.391       13.047      366.238      207.110      170.214        0.842        0.037      125.417       12.148        0.009      334.247        4.094      869.520
11/13/2013  04:36:00     -110.525      -21.517      -16.063       26.893       19.751       15.954      723.224      390.096      254.532        0.715        0.068      112.600       14.949        0.018      334.244        4.089      869.523
11/13/2013  04:37:00      -97.906      -26.489       -8.190       29.449       27.103       17.730      867.244      734.552      314.354        0.613        0.096      101.426       15.993        0.025      334.244        4.089      869.535
11/13/2013  04:38:00      -86.980      -16.412       -5.530       23.673       25.852       13.371      560.393      668.340      178.778        0.464        0.070       88.515       11.235        0.016      334.310        4.199      869.551
11/13/2013  04:39:00      -61.505      -45.685       -4.331       24.915       24.871       14.067      620.768      618.569      197.872        0.366        0.072       76.616       12.559        0.027      334.347        4.261      869.567
11/13/2013  04:40:00      -78.636      -41.503      -15.310       22.048       23.385       15.497      486.117      546.871      240.150        0.471        0.064       88.917        8.650        0.009      334.374        4.305      869.580
11/13/2013  04:41:00     -100.147      -64.159      -16.701       30.240       22.674       15.540      914.463      514.105      241.502        0.805        0.084      118.936       13.359        0.013      334.301        4.183      869.605
11/13/2013  04:42:00     -100.658      -67.321      -11.343       26.353       19.324       17.006      694.486      373.429      289.194        0.807        0.068      121.095        9.591        0.006      334.275        4.139      869.613
11/13/2013  04:43:00     -105.244      -66.447      -11.070       23.681       21.620       18.178      560.771      467.442      330.456        0.849        0.068      124.465        7.524        0.004      334.146        3.926      869.619
11/13/2013  04:44:00      -73.760      -29.353       -1.201       35.356       32.028       17.805     1250.063     1025.769      317.021        0.445        0.130       79.386       20.859        0.069      334.068        3.798      869.615
11/13/2013  04:45:00      -93.719      -24.967       -4.772       23.311       15.287       10.076      543.423      233.699      101.516        0.515        0.044       96.988        9.201        0.009      334.190        3.999      869.603
11/13/2013  04:46:00     -101.739      -22.927       -9.188       15.931       12.318       10.839      253.787      151.726      117.492        0.574        0.026      104.290       10.366        0.010      334.252        4.102      869.582
11/13/2013  04:47:00     -117.064      -26.831      -15.008       12.398       11.646       11.042      153.706      135.639      121.931        0.753        0.021      120.099        8.329        0.005      334.306        4.192      869.554
11/13/2013  04:48:00     -123.600      -35.794      -17.291       14.601       15.297       10.428      213.180      233.995      108.745        0.871        0.028      128.678        6.136        0.002      334.265        4.123      869.530
11/13/2013  04:49:00     -115.920      -43.672      -12.739       13.061       11.600        9.389      170.578      134.567       88.156        0.795        0.020      123.874        5.860        0.002      334.285        4.157      869.531
11/13/2013  04:50:00     -107.439      -41.310      -10.756       11.471       13.503       10.811      131.579      182.320      116.880        0.690        0.022      115.108        8.973        0.006      334.360        4.281      869.535
11/13/2013  04:51:00     -110.742      -31.123      -12.401        9.438       13.815        9.010       89.068      190.855       81.184        0.687        0.018      115.032        6.027        0.003      334.392        4.336      869.527
11/13/2013  04:52:00     -113.795      -26.567      -18.545       10.029        8.948        7.671      100.583       80.060       58.851        0.712        0.012      116.855        4.923        0.002      334.447        4.425      869.524
11/13/2013  04:53:00     -108.206      -27.377      -19.924       16.314       10.635        8.987      266.146      113.109       80.773        0.666        0.023      111.615        4.326        0.002      334.465        4.457      869.529
11/13/2013  04:54:00     -130.827      -25.282      -20.237       13.827       11.197        8.770      191.174      125.371       76.906        0.928        0.020      133.247        3.744        0.001      334.447        4.426      869.527
11/13/2013  04:55:00      -77.616      -57.187       -6.937       22.397       22.809       12.218      501.624      520.264      149.281        0.526        0.059       96.409       12.242        0.016      334.382        4.320      869.530
11/13/2013  04:56:00       -8.715      -26.673       16.122       37.487       19.137       23.192     1405.252      366.230      537.855        0.168        0.115       28.060       26.122        0.867      334.296        4.175      869.533
11/13/2013  04:57:00      -62.788      -64.839        4.321       31.566       22.751       18.726      996.382      517.595      350.663        0.501        0.093       90.258       14.885        0.027      334.208        4.030      869.545
11/13/2013  04:58:00      -34.383      -41.686       21.013       37.978       33.090       21.076     1442.366     1094.920      444.191        0.317        0.149       54.036       20.943        0.150      334.176        3.976      869.573
11/13/2013  04:59:00      -87.705      -54.719        3.798       33.319       32.333       18.557     1110.164     1045.436      344.361        0.660        0.125      103.375       19.133        0.034      334.149        3.931      869.595
11/13/2013  05:00:00      -95.262      -65.544        1.716       38.577       36.123       24.082     1488.198     1304.888      579.954        0.837        0.169      115.633       22.371        0.037      334.138        3.913      869.617
11/13/2013  05:01:00     -123.823      -43.359       -5.185       41.834       37.147       19.353     1750.069     1379.869      374.531        1.037        0.175      131.195       19.281        0.022      334.061        3.786      869.645
11/13/2013  05:02:00      -98.201      -21.031       -2.674       39.829       36.987       23.800     1586.333     1368.032      566.442        0.681        0.176      100.428       21.226        0.045      334.035        3.743      869.674
11/13/2013  05:03:00     -102.568      -12.567       -3.778       37.676       25.721       20.487     1419.489      661.579      419.712        0.660        0.125      103.335       20.701        0.040      333.969        3.633      869.684
11/13/2013  05:04:00      -84.988       -1.131        5.113       50.347       31.245       27.545     2534.811      976.235      758.748        0.576        0.213       84.996       28.736        0.114      334.102        3.851      869.679
11/13/2013  05:05:00     -113.421      -26.423       -3.792       27.646       36.817       20.421      764.297     1355.482      417.029        0.806        0.127      116.458       15.070        0.017      334.273        4.137      869.681
11/13/2013  05:06:00      -62.798      -41.620        2.823       38.775       23.464       19.602     1503.469      550.536      384.250        0.406        0.122       75.338       17.261        0.052      334.245        4.090      869.689
11/13/2013  05:07:00      -48.713      -67.212       16.617       51.286       35.816       28.672     2630.226     1282.759      822.080        0.595        0.237       83.009       34.104        0.169      334.266        4.126      869.695
11/13/2013  05:08:00     -106.252      -62.025      -10.730       30.977       23.028       20.219      959.565      530.305      408.794        0.857        0.095      123.031       18.260        0.022      334.242        4.085      869.699
11/13/2013  05:09:00      -84.041      -42.991       -5.615       32.264       27.403       15.641     1040.958      750.929      244.630        0.549        0.102       94.399       12.841        0.019      334.226        4.060      869.692
11/13/2013  05:10:00     -123.924      -14.871      -10.459       36.517       26.457       21.663     1333.460      699.960      469.300        0.909        0.125      124.813       20.054        0.026      334.122        3.887      869.694
11/13/2013  05:11:00     -124.386      -11.488       -7.170       31.901       20.436       22.903     1017.693      417.628      524.562        0.881        0.098      124.916       20.964        0.028      334.055        3.776      869.691
11/13/2013  05:12:00     -114.046      -14.936       -1.277       39.414       31.371       22.187     1553.492      984.151      492.274        0.813        0.151      115.020       25.269        0.048      334.133        3.904      869.684
11/13/2013  05:13:00      -80.382       -7.637        0.674       44.565       31.072       19.014     1986.055      965.481      361.548        0.492        0.166       80.744       20.304        0.063      334.156        3.943      869.688
11/13/2013  05:14:00      -75.812      -12.792        2.726       41.168       25.064       18.083     1694.826      628.199      327.000        0.428        0.133       76.884       20.870        0.074      334.216        4.043      869.701
11/13/2013  05:15:00      -46.920      -37.412        1.022       36.737       23.440       20.452     1349.606      549.429      418.299        0.296        0.116       60.009       18.902        0.099      334.284        4.156      869.701
11/13/2013  05:16:00      -28.742       -8.566        5.478       23.375       16.159       10.709      546.382      261.110      114.684        0.093        0.046       29.992        9.812        0.107      334.247        4.094      869.692
11/13/2013  05:17:00      -74.487      -24.436      -10.121       18.092       15.430       11.231      327.319      238.091      126.125        0.347        0.035       78.393        8.865        0.013      334.264        4.123      869.685
11/13/2013  05:18:00     -105.163      -22.303      -17.550       10.992       12.918        8.632      120.829      166.865       74.503        0.611        0.018      107.502        6.706        0.004      334.384        4.321      869.684
11/13/2013  05:19:00      -81.592      -40.344       -6.305       28.187       20.872       17.255      794.508      435.654      297.752        0.493        0.076       91.022       17.002        0.035      334.249        4.099      869.697
11/13/2013  05:20:00      -53.591      -54.386       -7.217       24.528       26.401       19.836      601.621      697.026      393.483        0.379        0.085       76.354       11.755        0.024      334.243        4.088      869.716
11/13/2013  05:21:00     -115.892      -36.844      -11.811       15.760       15.820       10.846      248.367      250.287      117.627        0.777        0.031      121.607        4.639        0.001      334.230        4.065      869.732
11/13/2013  05:22:00     -126.248      -27.683      -14.695       13.146       21.236       13.630      172.813      450.955      185.773        0.887        0.040      129.248        8.917        0.005      334.256        4.109      869.752
11/13/2013  05:23:00     -111.047      -40.078      -15.085       15.162       12.947        9.576      229.885      167.628       91.696        0.733        0.024      118.058        5.053        0.002      334.284        4.156      869.765
11/13/2013  05:24:00     -112.577      -34.496      -14.575       17.754       18.305       12.634      315.187      335.078      159.612        0.744        0.040      117.743        5.215        0.002      334.236        4.076      869.775
11/13/2013  05:25:00     -124.280      -17.491      -13.574       22.269       19.030       16.500      495.921      362.125      272.265        0.853        0.057      125.504       16.280        0.017      334.174        3.972      869.773
11/13/2013  05:26:00     -137.900      -15.251      -17.042       14.726       17.645        9.216      216.860      311.358       84.939        1.008        0.031      138.740        6.718        0.002      334.159        3.946      869.772
11/13/2013  05:27:00      -88.781      -21.339       -2.113       34.085       15.856       13.716     1161.756      251.414      188.117        0.497        0.080       91.309       14.698        0.026      334.048        3.762      869.771
11/13/2013  05:28:00      -85.262      -26.276       -1.546       17.687       16.844       13.819      312.820      283.708      190.972        0.437        0.039       89.218       12.617        0.020      334.122        3.886      869.764
11/13/2013  05:29:00      -91.618      -20.533       -1.604       29.559       19.441       13.085      873.732      377.954      171.222        0.512        0.071       93.890       13.548        0.021      334.198        4.011      869.759
11/13/2013  05:30:00      -97.197      -32.736       -0.262       34.764       21.385       16.010     1208.514      457.324      256.336        0.622        0.096      102.562       16.745        0.027      334.233        4.072      869.762
11/13/2013  05:31:00     -121.362      -37.921       -5.195       27.097       27.365       16.180      734.233      748.817      261.785        0.897        0.087      127.149       14.551        0.013      334.230        4.066      869.756
11/13/2013  05:32:00      -92.988      -29.481       -6.719       30.527       26.220       19.610      931.886      687.487      384.569        0.578        0.100       97.549       19.371        0.039      334.172        3.970      869.745
11/13/2013  05:33:00      -90.155      -27.655       -1.791       24.527       20.356       13.171      601.567      414.364      173.468        0.504        0.059       94.301       11.528        0.015      334.153        3.937      869.728
11/13/2013  05:34:00      -98.855      -11.817       -3.229       29.191       17.553       16.466      852.102      308.117      271.135        0.568        0.072       99.559       15.229        0.023      334.010        3.701      869.721
11/13/2013  05:35:00     -131.944      -21.560      -12.604       14.842       11.871       12.040      220.297      140.922      144.972        0.927        0.025      133.694        7.992        0.004      334.035        3.743      869.723
11/13/2013  05:36:00     -127.804      -23.505      -10.223       16.311       15.422       12.028      266.049      237.852      144.661        0.882        0.032      129.947        7.195        0.003      333.998        3.680      869.735
11/13/2013  05:37:00     -119.296      -24.678       -8.186       20.251       19.842       16.587      410.086      393.691      275.126        0.799        0.054      121.822       14.083        0.013      333.999        3.683      869.749
11/13/2013  05:38:00     -115.421      -19.413       -3.200       31.409       27.078       19.027      986.529      733.242      362.046        0.790        0.104      117.042       16.886        0.021      333.993        3.673      869.763
11/13/2013  05:39:00     -126.287      -14.245       -7.577       38.847       28.761       18.799     1509.110      827.170      353.411        0.945        0.134      127.088       18.311        0.021      333.915        3.542      869.765
11/13/2013  05:40:00     -155.554        4.609      -14.582       37.757       33.485       21.382     1425.613     1121.245      457.184        1.372        0.150      155.622       18.415        0.014      333.963        3.621      869.757
11/13/2013  05:41:00     -170.290       14.850      -15.435       27.119       28.792       19.469      735.424      828.995      379.049        1.570        0.097      170.936       16.323        0.009      334.015        3.710      869.752
11/13/2013  05:42:00     -158.399        1.951      -16.512       50.217       31.364       23.486     2521.794      983.726      551.607        1.471        0.203      158.411       24.374        0.024      334.056        3.776      869.747
11/13/2013  05:43:00     -169.766       14.234      -16.741       51.972       35.090       23.037     2701.039     1231.299      530.715        1.688        0.223      170.361       23.536        0.019      334.181        3.983      869.739
11/13/2013  05:44:00      -72.489      -16.290       -5.565       31.001       32.394       22.341      961.060     1049.351      499.099        0.403        0.125       74.297        9.002        0.015      334.199        4.014      869.743
11/13/2013  05:45:00     -102.463       -5.383      -10.545       38.336       42.744       23.905     1469.639     1827.076      571.437        0.725        0.193      102.605       22.953        0.050      334.313        4.203      869.753
11/13/2013  05:46:00     -117.302       -4.017      -14.668       25.616       31.503       22.010      656.155      992.445      484.434        0.806        0.107      117.370       10.700        0.008      334.364        4.288      869.768
11/13/2013  05:47:00     -158.113        6.000      -20.359       24.888       32.012       20.576      619.405     1024.775      423.357        1.376        0.103      158.227       10.443        0.004      334.247        4.094      869.785
11/13/2013  05:48:00     -201.159        4.618      -27.017       37.731       29.704       23.700     1423.666      882.323      561.670        2.204        0.143      201.212       22.698        0.013      334.345        4.256      869.798
11/13/2013  05:49:00     -165.187       17.932      -20.427       43.095       38.034       20.420     1857.163     1446.622      416.968        1.587        0.186      166.158       16.359        0.010      334.249        4.095      869.806
11/13/2013  05:50:00     -202.567       25.262      -23.383       36.785       22.450       19.155     1353.118      503.981      366.921        2.222        0.111      204.136       16.138        0.006      334.356        4.274      869.807
11/13/2013  05:51:00     -170.618      -15.825      -18.046       43.627       36.385       20.371     1903.286     1323.877      414.966        1.666        0.182      171.351       14.988        0.008      334.246        4.092      869.804
11/13/2013  05:52:00     -132.735      -27.663      -11.858       44.868       44.016       20.739     2013.097     1937.436      430.096        1.145        0.219      135.587       21.103        0.024      334.304        4.191      869.801
11/13/2013  05:53:00     -108.786       -4.856      -12.545       37.929       33.403       18.179     1438.591     1115.782      330.484        0.745        0.144      108.894       13.462        0.015      334.293        4.171      869.802
11/13/2013  05:54:00     -127.600       30.642       -8.144       31.799       29.140       24.490     1011.195      849.166      599.746        0.987        0.123      131.228       20.367        0.024      334.370        4.297      869.802
11/13/2013  05:55:00     -126.572       42.650      -11.654       44.728       32.975       20.317     2000.596     1087.359      412.790        1.074        0.175      133.565       17.056        0.016      334.556        4.606      869.803
11/13/2013  05:56:00      -63.466       17.575       -2.936       42.391       27.314       16.274     1797.025      746.046      264.827        0.358        0.140       65.854       13.069        0.039      334.525        4.556      869.793
11/13/2013  05:57:00      -66.034       -7.149       -6.831       42.274       36.586       20.222     1787.087     1338.518      408.910        0.400        0.177       66.420       21.286        0.103      334.525        4.556      869.773
11/13/2013  05:58:00     -100.037      -28.538      -10.395       24.950       26.283       17.061      622.521      690.771      291.071        0.627        0.080      104.028       13.602        0.017      334.416        4.375      869.758
11/13/2013  05:59:00     -102.786      -46.644       -3.142       36.032       39.661       19.432     1298.323     1572.991      377.593        0.800        0.162      112.874       13.649        0.015      334.332        4.235      869.733
11/13/2013  06:00:00      -48.950       10.707        2.533       50.991       35.250       22.751     2600.050     1242.561      517.623        0.344        0.218       50.107       26.732        0.285      334.249        4.097      869.723
11/13/2013  06:01:00      -49.541       -1.991        4.480       45.792       39.556       21.572     2096.871     1564.691      465.339        0.330        0.206       49.581       21.464        0.187      334.206        4.026      869.713
11/13/2013  06:02:00      -85.513      -21.501       -3.327       27.461       25.369       17.714      754.097      643.577      313.777        0.475        0.086       88.175       13.000        0.022      334.224        4.054      869.705
11/13/2013  06:03:00      -70.278      -32.707       -3.699       47.241       22.871       13.425     2231.667      523.083      180.224        0.448        0.147       77.516       12.094        0.024      334.231        4.067      869.702
11/13/2013  06:04:00      -30.177      -16.726       -4.588       43.645       19.011       15.206     1904.846      361.406      231.217        0.185        0.125       34.502        9.075        0.069      334.309        4.198      869.710
11/13/2013  06:05:00        6.427      -37.210        1.222       17.435       16.259       20.356      303.963      264.365      414.353        0.120        0.049       37.761       14.565        0.149      334.300        4.182      869.721
11/13/2013  06:06:00      -33.938      -24.698       -2.456       19.699       18.437       12.042      388.055      339.941      145.007        0.132        0.044       41.974        7.404        0.031      334.198        4.013      869.729
11/13/2013  06:07:00      -47.858      -18.224      -12.210       17.099       17.484       12.253      292.363      305.673      150.133        0.176        0.037       51.210        6.815        0.018      334.128        3.894      869.721
11/13/2013  06:08:00      -35.489      -26.793        2.540       20.740       17.078       14.916      430.168      291.674      222.490        0.146        0.047       44.467       15.567        0.123      334.186        3.993      869.700
11/13/2013  06:09:00      -38.370      -33.515       -4.229       21.840       13.983       13.518      476.998      195.526      182.740        0.173        0.043       50.947       13.394        0.069      334.257        4.110      869.680
11/13/2013  06:10:00      -72.455      -22.117       -3.019       10.263       10.201        7.983      105.322      104.062       63.722        0.301        0.014       75.755        4.611        0.004      334.257        4.112      869.671
11/13/2013  06:11:00      -73.266      -19.000      -11.448       11.892       17.145        8.777      141.419      293.946       77.031        0.319        0.026       75.690        5.026        0.004      334.242        4.085      869.661
11/13/2013  06:12:00     -101.499      -15.992      -10.396       22.236       16.252       11.488      494.445      264.137      131.973        0.578        0.045      102.751        9.814        0.009      334.213        4.038      869.648
11/13/2013  06:13:00     -103.616       -4.692       -0.942       31.393       18.282       17.095      985.535      334.241      292.241        0.619        0.081      103.722       16.637        0.026      334.085        3.825      869.634
11/13/2013  06:14:00     -119.409      -19.110      -10.128       14.418       12.821        9.091      207.879      164.377       82.638        0.759        0.023      120.928        4.897        0.002      334.127        3.896      869.639
11/13/2013  06:15:00     -111.923      -23.946      -10.518       25.514       18.255       10.771      650.945      333.255      116.005        0.716        0.055      114.456        6.939        0.004      334.115        3.875      869.647
11/13/2013  06:16:00     -103.466      -24.005      -10.777       15.147       17.502       13.283      229.433      306.329      176.440        0.605        0.036      106.214        9.702        0.008      334.141        3.918      869.648
11/13/2013  06:17:00      -82.992      -41.130      -10.136       20.045       14.929       14.781      401.820      222.871      218.492        0.476        0.042       92.625       11.489        0.015      334.149        3.933      869.643
11/13/2013  06:18:00      -73.150      -12.252       -8.260       19.709       14.669       11.513      388.447      215.192      132.549        0.315        0.037       74.169        7.396        0.010      334.145        3.925      869.635
11/13/2013  06:19:00      -59.128      -13.582       -1.538       14.818       18.826        9.879      219.566      354.432       97.588        0.218        0.034       60.668        7.165        0.014      334.092        3.836      869.627
11/13/2013  06:20:00      -62.950      -14.588       -7.090       11.758       13.083        9.005      138.250      171.176       81.098        0.231        0.020       64.618        4.861        0.006      334.059        3.781      869.621
11/13/2013  06:21:00      -76.210      -17.608       -8.460       16.255       11.564        8.599      264.228      133.735       73.936        0.333        0.024       78.217        5.038        0.004      334.076        3.809      869.621
11/13/2013  06:22:00      -83.192      -29.404       -7.978       13.319       11.704        9.820      177.384      136.986       96.423        0.413        0.021       88.235        1.511        0.000      334.092        3.836      869.620
11/13/2013  06:23:00      -86.307      -35.682       -5.608       11.671       11.527        7.272      136.214      132.875       52.879        0.454        0.016       93.392        4.231        0.002      334.128        3.897      869.618
11/13/2013  06:24:00      -82.661      -24.489       -1.922       14.849       11.618        9.788      220.502      134.967       95.801        0.394        0.023       86.213        7.034        0.007      334.104        3.856      869.626
11/13/2013  06:25:00      -78.119      -14.328        1.211       29.420       16.427       19.042      865.553      269.843      362.612        0.390        0.075       79.422       16.446        0.043      334.069        3.799      869.626
11/13/2013  06:26:00      -86.811      -19.264       -1.314       34.804       20.409       16.429     1211.347      416.532      269.908        0.490        0.095       88.923       16.846        0.036      333.948        3.599      869.626
11/13/2013  06:27:00      -93.093      -18.598       -2.601       42.861       28.578       19.960     1837.042      816.697      398.407        0.603        0.153       94.932       22.264        0.055      333.923        3.557      869.620
11/13/2013  06:28:00     -110.280      -14.769       -7.017       19.560       16.136       14.365      382.586      260.377      206.348        0.664        0.042      111.264       11.554        0.011      333.866        3.462      869.603
11/13/2013  06:29:00     -108.610      -20.906       -4.254       28.862       18.098       13.416      833.038      327.531      179.985        0.680        0.067      110.604        5.966        0.003      333.782        3.323      869.578
11/13/2013  06:30:00      -90.722      -27.333       -2.663       25.884       14.060       12.158      669.978      197.689      147.816        0.500        0.051       94.750        7.940        0.007      333.842        3.423      869.562
11/13/2013  06:31:00      -46.244      -26.369       -3.341       24.820       18.038       15.160      616.028      325.359      229.814        0.201        0.059       53.234       13.033        0.060      333.881        3.487      869.561
11/13/2013  06:32:00      -52.373      -16.655       -7.663       15.275       11.239        9.913      233.322      126.321       98.259        0.177        0.023       54.957        8.662        0.025      333.946        3.595      869.567
11/13/2013  06:33:00      -67.635       -7.665       -6.853       22.278       14.493        9.004      496.309      210.060       81.063        0.273        0.039       68.068        7.152        0.011      333.978        3.648      869.576
11/13/2013  06:34:00      -65.745      -25.899      -11.994       15.269       17.645       11.287      233.146      311.340      127.405        0.290        0.034       70.663        5.901        0.007      333.994        3.676      869.582
11/13/2013  06:35:00      -57.943      -30.766      -14.004       23.111       13.603       11.338      534.103      185.055      128.548        0.267        0.042       65.604        9.685        0.022      333.912        3.539      869.597
11/13/2013  06:36:00      -65.554      -46.495      -15.012       25.044       16.925       11.545      627.216      286.449      133.285        0.387        0.052       80.369        7.765        0.009      333.807        3.363      869.622
11/13/2013  06:37:00      -82.073      -27.557       -7.151       21.806       25.686       16.237      475.503      659.795      263.649        0.447        0.070       86.576        7.666        0.008      333.724        3.227      869.643
11/13/2013  06:38:00      -60.719      -15.382       -4.144       23.326       15.988       15.032      544.109      255.613      225.973        0.248        0.051       62.637       13.318        0.045      333.720        3.219      869.655
11/13/2013  06:39:00      -36.979      -39.270       -4.779       26.695       15.418       21.796      712.611      237.707      475.050        0.218        0.071       53.940       17.606        0.107      333.831        3.404      869.672
11/13/2013  06:40:00      -61.590      -19.952       -5.578       13.280       12.898       12.538      176.358      166.355      157.211        0.236        0.025       64.741       10.473        0.026      333.884        3.493      869.698
11/13/2013  06:41:00      -38.212      -20.637       -3.068       20.234       14.341        7.133      409.419      205.651       50.877        0.128        0.033       43.428        7.590        0.031      333.929        3.568      869.720
11/13/2013  06:42:00      -42.773      -11.152       -9.216        9.753       10.486        6.002       95.122      109.965       36.028        0.114        0.012       44.203        1.585        0.001      333.910        3.536      869.730
11/13/2013  06:43:00      -41.918       -0.246      -10.717        9.498        5.798        6.462       90.221       33.620       41.761        0.102        0.008       41.918        6.180        0.022      333.956        3.613      869.711
11/13/2013  06:44:00      -24.511       -5.362        2.056        4.467        4.395        3.980       19.957       19.315       15.838        0.034        0.003       25.091        1.979        0.006      333.988        3.665      869.687
11/13/2013  06:45:00      -23.120       -1.873       -0.453        7.558        6.080        7.062       57.129       36.961       49.871        0.034        0.007       23.195        6.153        0.070      334.037        3.746      869.677
11/13/2013  06:46:00      -36.340       -1.177       -2.616        7.447        6.797        7.322       55.461       46.202       53.612        0.074        0.008       36.360        3.624        0.010      333.930        3.571      869.682
11/13/2013  06:47:00      -48.838      -14.508       -5.507        6.720        7.959        5.600       45.154       63.345       31.364        0.138        0.007       50.948        3.012        0.003      333.885        3.496      869.690
11/13/2013  06:48:00      -19.588      -22.593       -7.051        8.554       11.173        6.006       73.166      124.836       36.078        0.059        0.012       29.902        4.065        0.018      333.972        3.638      869.668
11/13/2013  06:49:00       -1.602       -8.568        1.463        9.410        8.878        4.463       88.544       78.826       19.920        0.013        0.009        8.716        5.765        0.437      334.093        3.839      869.639
11/13/2013  06:50:00       21.503       10.988        1.177       11.814       11.903       10.237      139.571      141.679      104.802        0.049        0.019       24.147        6.378        0.070      334.112        3.870      869.631
11/13/2013  06:51:00       30.774       -0.835       -9.991        8.535        9.252        7.411       72.854       85.602       54.922        0.063        0.011       30.785        2.369        0.006      334.111        3.867      869.642
11/13/2013  06:52:00        0.597      -12.573       11.341        8.930       11.833        5.053       79.740      140.014       25.528        0.027        0.012       12.587        3.928        0.097      334.141        3.918      869.676
11/13/2013  06:53:00      -26.129      -13.618        0.896       11.469        8.978        9.005      131.530       80.613       81.096        0.058        0.015       29.465        5.337        0.033      333.970        3.635      869.714
11/13/2013  06:54:00      -44.098      -23.500       -6.540       15.140        8.351        6.424      229.231       69.741       41.265        0.144        0.017       49.969        3.268        0.004      333.813        3.375      869.752
11/13/2013  06:55:00      -74.564      -29.241       -8.656       12.839       16.876        8.612      164.840      284.796       74.168        0.351        0.026       80.093        4.497        0.003      333.777        3.316      869.786
11/13/2013  06:56:00      -79.020      -58.025       -3.127       25.941       16.109       15.320      672.927      259.515      234.699        0.539        0.058       98.036       16.009        0.027      333.800        3.353      869.817
11/13/2013  06:57:00      -74.746      -26.001       -7.559       27.986       22.450       14.236      783.200      504.022      202.652        0.390        0.074       79.139       12.816        0.026      333.819        3.383      869.851
11/13/2013  06:58:00      -91.486      -11.544       -3.426       28.640       19.198       14.066      820.254      368.550      197.850        0.495        0.069       92.211       13.989        0.023      333.796        3.346      869.880
11/13/2013  06:59:00      -46.968      -16.168        6.422       26.101       17.163       15.037      681.261      294.577      226.104        0.186        0.060       49.673       15.575        0.098      333.792        3.339      869.886
11/13/2013  07:00:00      -51.222      -10.888        1.638       22.968       16.603       13.102      527.542      275.659      171.653        0.186        0.049       52.366       13.331        0.065      333.875        3.476      869.860
11/13/2013  07:01:00      -25.185       -6.205       -1.392       22.290       15.832       10.623      496.858      250.663      112.839        0.077        0.043       25.938        7.170        0.076      333.910        3.534      869.819
11/13/2013  07:02:00       -7.118       -0.285        4.784        8.292        8.830       10.682       68.761       77.965      114.113        0.017        0.013        7.123        5.847        0.674      334.144        3.923      869.813
11/13/2013  07:03:00        2.831        5.988        1.620        6.131        7.578        7.275       37.594       57.421       52.920        0.010        0.007        6.624        5.630        0.723      334.168        3.962      869.832
11/13/2013  07:04:00      -17.292       -1.446       -7.386       14.223        7.069        7.171      202.288       49.975       51.425        0.033        0.015       17.353        7.842        0.204      334.268        4.128      869.851
11/13/2013  07:05:00      -20.567        4.417        2.954       13.349       10.997       10.325      178.193      120.931      106.600        0.043        0.020       21.036        7.160        0.116      334.380        4.316      869.851
11/13/2013  07:06:00      -43.019      -24.887       -0.384       19.285       10.129        8.024      371.897      102.598       64.381        0.150        0.027       49.699        7.418        0.022      334.334        4.237      869.868
11/13/2013  07:07:00      -73.484      -64.437      -10.729       21.748       44.334       15.494      472.994     1965.498      240.057        0.617        0.134       97.734       11.992        0.015      334.421        4.384      869.875
11/13/2013  07:08:00      -45.595       -2.421        7.773       26.997       18.711       12.666      728.861      350.109      160.428        0.169        0.062       45.659        9.154        0.040      334.426        4.392      869.895
11/13/2013  07:09:00      -25.794        1.745        6.396       17.079       21.627       15.709      291.681      467.743      246.778        0.086        0.050       25.853       12.533        0.235      334.422        4.385      869.924
11/13/2013  07:10:00       -9.113        8.693       12.228       12.507       13.304       10.641      156.417      176.995      113.239        0.038        0.022       12.595        6.188        0.241      334.510        4.530      869.928
11/13/2013  07:11:00       -6.624       -1.057        1.973        6.901       11.326        8.482       47.630      128.279       71.940        0.015        0.012        6.708        6.803        1.029      334.555        4.605      869.931
11/13/2013  07:12:00      -12.922       10.547       -1.219        9.432        8.883        7.075       88.970       78.913       50.054        0.025        0.011       16.680        4.580        0.075      334.487        4.492      869.919
11/13/2013  07:13:00      -12.260       12.935       -3.505        6.322       10.642        5.350       39.966      113.260       28.627        0.026        0.009       17.822        5.864        0.108      334.493        4.501      869.919
11/13/2013  07:14:00       -1.543        2.463        3.281        9.328        3.573        4.276       87.006       12.768       18.286        0.007        0.006        2.907        3.387        1.358      334.656        4.771      869.914
11/13/2013  07:15:00      -19.183       -0.550       -3.350        8.462        7.170        4.234       71.611       51.415       17.923        0.026        0.007       19.191        2.889        0.023      334.556        4.607      869.929
11/13/2013  07:16:00      -11.009        3.450       -1.008        5.485        4.250        3.984       30.085       18.063       15.871        0.010        0.003       11.537        2.653        0.053      334.605        4.688      869.933
11/13/2013  07:17:00      -15.514       16.206       -1.767        5.751       10.070        4.830       33.075      101.413       23.326        0.033        0.008       22.435        4.696        0.044      334.534        4.571      869.964
11/13/2013  07:18:00      -12.303       23.446       -1.743       12.649       13.108       11.540      160.008      171.826      133.162        0.058        0.023       26.478        9.005        0.116      334.626        4.722      869.981
11/13/2013  07:19:00       -8.137       38.759       -3.715       14.040       16.891        8.503      197.121      285.320       72.294        0.107        0.028       39.603        3.333        0.007      334.703        4.851      870.007
11/13/2013  07:20:00        7.024       59.526       -4.226       11.971       19.489       11.294      143.306      379.830      127.563        0.213        0.033       59.939        9.917        0.027      334.703        4.850      870.044
11/13/2013  07:21:00       11.679       86.856       -9.960        9.521       14.784        7.197       90.641      218.555       51.799        0.407        0.018       87.638        3.909        0.002      334.667        4.790      870.060
11/13/2013  07:22:00       15.513       58.539       -5.207       14.667       17.015       14.961      215.116      289.509      223.839        0.221        0.036       60.559       11.435        0.036      334.794        5.002      870.060
11/13/2013  07:23:00        7.730       43.701       -0.102       16.556       19.357       13.180      274.108      374.690      173.704        0.140        0.041       44.379       11.762        0.070      334.811        5.029      870.054
11/13/2013  07:24:00       -3.255       58.768       -4.445       15.810       14.012       13.632      249.958      196.330      185.828        0.206        0.032       58.858        9.763        0.028      334.783        4.985      870.040
11/13/2013  07:25:00        1.323       58.967       -2.520        7.737       11.663        9.861       59.862      136.024       97.238        0.189        0.015       58.982        6.818        0.013      334.744        4.918      870.026
11/13/2013  07:26:00       -5.293       64.948        2.504       16.251       28.994       17.451      264.111      840.668      304.544        0.283        0.070       65.164       20.687        0.101      334.757        4.941      870.014
11/13/2013  07:27:00       -8.445        5.783        4.367       16.763       12.793       13.419      280.995      163.660      180.080        0.037        0.031       10.235        4.875        0.227      334.718        4.875      870.019
11/13/2013  07:28:00        3.773       49.696        0.650       22.654       21.035       17.031      513.193      442.470      290.044        0.186        0.062       49.839        6.935        0.019      334.769        4.962      870.027
11/13/2013  07:29:00        4.289       40.125       -3.655       10.627       14.258        7.976      112.932      203.276       63.624        0.101        0.019       40.354        6.509        0.026      334.966        5.287      870.032
11/13/2013  07:30:00       -5.793       22.975        5.842       11.397       19.121        8.562      129.894      365.618       73.309        0.058        0.028       23.694       10.831        0.209      335.081        5.477      870.046
11/13/2013  07:31:00       12.797       22.059        6.760       17.892       13.221       12.926      320.136      174.784      167.092        0.068        0.033       25.502        9.484        0.138      335.154        5.601      870.068
11/13/2013  07:32:00       27.757       16.502        6.796        9.836        9.555       11.828       96.741       91.298      139.900        0.071        0.016       32.292        8.068        0.062      335.074        5.467      870.107
11/13/2013  07:33:00       24.523       18.583        0.895       10.968        8.874       10.213      120.302       78.740      104.302        0.063        0.015       30.769        6.506        0.045      335.079        5.476      870.140
11/13/2013  07:34:00       31.769        9.122        0.206       12.886       10.884       11.235      166.037      118.469      126.220        0.075        0.021       33.052        6.482        0.038      335.066        5.455      870.184
11/13/2013  07:35:00       25.468       15.441       11.782       19.535       11.455       14.788      381.599      131.217      218.671        0.088        0.037       29.783       12.691        0.182      335.118        5.541      870.219
11/13/2013  07:36:00       11.160       21.578       29.126       15.501       14.520       14.798      240.293      210.830      218.977        0.105        0.034       24.293       12.115        0.249      335.252        5.762      870.235
11/13/2013  07:37:00       46.618       30.923       15.692       14.884       12.352       16.839      221.524      152.581      283.546        0.202        0.033       55.941       11.163        0.040      335.130        5.559      870.249
11/13/2013  07:38:00       50.003       29.058       10.311       14.505       10.795       15.715      210.408      116.541      246.974        0.201        0.029       57.833        7.538        0.017      335.134        5.568      870.262
11/13/2013  07:39:00       46.686       30.648       -1.849       15.348       11.305       11.495      235.572      127.800      132.135        0.181        0.025       55.847        7.458        0.018      335.180        5.644      870.283
11/13/2013  07:40:00       43.641       25.504        1.507       18.616       12.921       13.345      346.559      166.947      178.084        0.162        0.035       50.547       11.358        0.050      335.278        5.806      870.300
11/13/2013  07:41:00       41.138       29.282        5.511       23.248       15.894       16.933      540.486      252.634      286.715        0.183        0.054       50.496       13.867        0.075      335.263        5.780      870.330
11/13/2013  07:42:00       42.605       43.164        9.495       17.568       22.010       19.083      308.640      484.429      364.144        0.246        0.058       60.649       16.378        0.073      335.326        5.886      870.357
11/13/2013  07:43:00       44.757       32.749        1.233       15.470       14.922       19.112      239.321      222.667      365.268        0.195        0.041       55.459       11.393        0.042      335.235        5.734      870.384
11/13/2013  07:44:00       48.103       19.710        6.501       19.088       19.973       15.947      364.346      398.913      254.298        0.188        0.051       51.984        9.349        0.032      335.347        5.918      870.412
11/13/2013  07:45:00       35.067       12.751        6.912       39.009       21.263       23.536     1521.671      452.123      553.940        0.198        0.126       37.313       22.591        0.367      335.371        5.959      870.428
11/13/2013  07:46:00       58.553       36.457       17.899       24.385       18.792       24.679      594.642      353.152      609.069        0.332        0.078       68.976       18.542        0.072      335.299        5.840      870.420
11/13/2013  07:47:00       26.752       27.312       28.808       30.275       19.341       21.154      916.561      374.091      447.509        0.201        0.087       38.231       17.446        0.208      335.421        6.045      870.425
11/13/2013  07:48:00        2.483       27.396       41.087       12.168       15.925       12.905      148.057      253.597      166.547        0.151        0.028       27.509        9.724        0.125      335.635        6.400      870.440
11/13/2013  07:49:00        4.982       40.665       47.584       19.663       24.618       15.789      386.618      606.070      249.288        0.259        0.062       40.969       11.398        0.077      335.660        6.443      870.446
11/13/2013  07:50:00        1.767       45.315       57.571       20.274       22.751       18.515      411.048      517.595      342.805        0.332        0.064       45.350       12.472        0.076      335.734        6.564      870.437
11/13/2013  07:51:00        8.718       45.586       57.336       28.697       31.798       20.429      823.493     1011.109      417.333        0.385        0.113       46.412       18.284        0.155      335.679        6.473      870.425
11/13/2013  07:52:00       -1.586       49.917       67.473       21.204       28.295       12.407      449.617      800.617      153.923        0.423        0.070       49.942       11.794        0.056      335.685        6.485      870.425
11/13/2013  07:53:00       11.907       35.640       48.887       26.810       39.094       26.144      718.765     1528.317      683.512        0.337        0.147       37.576       18.965        0.255      335.654        6.432      870.444
11/13/2013  07:54:00       16.534       25.476       60.817       29.260       19.639       18.465      856.128      385.680      340.961        0.310        0.079       30.372        9.781        0.104      335.837        6.737      870.470
11/13/2013  07:55:00       40.445       61.829       60.129       37.721       26.485       33.554     1422.899      701.473     1125.890        0.616        0.163       73.882       30.231        0.167      335.622        6.379      870.498
11/13/2013  07:56:00       38.629       41.974       19.934       30.815       24.585       25.718      949.567      604.431      661.426        0.293        0.111       57.044       20.067        0.124      335.620        6.373      870.524
11/13/2013  07:57:00       25.036       46.525       48.291       48.643       27.858       28.615     2366.190      776.093      818.840        0.454        0.198       52.834       31.383        0.353      335.798        6.672      870.546
11/13/2013  07:58:00       85.303       65.781       24.863       23.884       16.579       25.612      570.462      274.875      655.987        0.686        0.075      107.721       19.072        0.031      335.464        6.116      870.566
11/13/2013  07:59:00       60.862       57.868       41.398       28.701       18.794       23.137      823.735      353.230      535.336        0.524        0.086       83.982       15.927        0.036      335.626        6.385      870.590
11/13/2013  08:00:00       51.445       68.368       51.338       34.626       31.795       26.228     1198.963     1010.894      687.887        0.643        0.145       85.561       20.229        0.056      335.595        6.336      870.599
11/13/2013  08:01:00      102.696       85.607       47.064       24.515       21.670       29.732      601.001      469.570      884.019        1.102        0.098      133.698       15.854        0.014      335.518        6.205      870.600
11/13/2013  08:02:00       64.103       44.894       38.356       38.718       37.281       29.033     1499.109     1389.881      842.892        0.566        0.187       78.260       25.855        0.109      335.663        6.449      870.595
11/13/2013  08:03:00       36.514       59.409       65.145       45.148       38.671       30.530     2038.335     1495.462      932.060        0.679        0.223       69.733       29.442        0.178      335.812        6.695      870.585
11/13/2013  08:04:00       73.740       47.276       28.156       49.311       36.679       32.041     2431.553     1345.364     1026.597        0.663        0.240       87.593       31.494        0.129      335.709        6.523      870.576
11/13/2013  08:05:00       90.605       54.823        6.129       36.051       35.923       35.067     1299.651     1290.431     1229.671        0.754        0.191      105.900       21.597        0.042      335.763        6.613      870.547
11/13/2013  08:06:00       91.604       79.642       12.940       33.841       27.090       26.017     1145.218      733.853      676.859        0.873        0.128      121.384       10.390        0.007      335.683        6.481      870.526
11/13/2013  08:07:00       91.081       62.806        0.097       43.573       31.826       27.264     1898.642     1012.884      743.299        0.795        0.183      110.636        8.021        0.005      335.728        6.556      870.513
11/13/2013  08:08:00       28.039       62.007       43.942       56.193       41.214       31.352     3157.633     1698.597      982.970        0.620        0.292       68.052       31.655        0.216      335.795        6.667      870.521
11/13/2013  08:09:00        4.813       28.111       48.020       31.522       34.076       20.965      993.609     1161.205      439.549        0.286        0.130       28.520       16.684        0.342      336.078        7.139      870.549
11/13/2013  08:10:00        6.824       80.189       90.985       29.485       37.137       20.101      869.376     1379.138      404.039        0.870        0.133       80.479       17.292        0.046      335.779        6.641      870.585
11/13/2013  08:11:00       45.441       80.284       60.747       36.761       28.255       29.584     1351.407      798.337      875.198        0.761        0.151       92.252       22.457        0.059      335.656        6.435      870.618
11/13/2013  08:12:00       74.302       88.771       58.631       34.211       25.160       28.360     1170.364      633.004      804.292        0.972        0.130      115.763       10.050        0.008      335.652        6.430      870.620
11/13/2013  08:13:00       12.499       65.807       76.341       24.236       35.357       19.887      587.365     1250.145      395.476        0.627        0.112       66.983       16.910        0.064      335.778        6.639      870.605
11/13/2013  08:14:00        0.743       53.642       80.140       20.881       42.234       24.616      436.021     1783.682      605.933        0.606        0.141       53.647       27.343        0.260      335.900        6.840      870.587
11/13/2013  08:15:00       33.621       86.229       86.797       32.191       32.398       24.536     1036.258     1049.639      602.027        0.939        0.134       92.552       20.930        0.051      335.771        6.627      870.593
11/13/2013  08:16:00       94.366       66.456       23.771       17.530       21.994       29.210      307.288      483.729      853.235        0.777        0.082      115.418       14.834        0.017      335.645        6.417      870.607
11/13/2013  08:17:00       46.527       15.568        1.299       24.670       26.109       17.322      608.616      681.704      300.052        0.200        0.080       49.062       10.003        0.042      335.794        6.665      870.617
11/13/2013  08:18:00       68.107       58.579       10.522       34.678       25.158       18.364     1202.559      632.919      337.247        0.518        0.109       89.833       12.118        0.018      335.734        6.565      870.628
11/13/2013  08:19:00      103.881       63.341       12.191       32.437       16.947       27.891     1052.184      287.210      777.906        0.853        0.106      121.669       12.107        0.010      335.747        6.588      870.643
11/13/2013  08:20:00       64.832       37.588       37.846       42.160       31.888       32.831     1777.501     1016.855     1077.870        0.546        0.194       74.941       22.927        0.094      335.914        6.865      870.650
11/13/2013  08:21:00       82.250       52.024        9.943       28.525       28.121       25.526      813.675      790.778      651.575        0.591        0.113       97.322       16.603        0.029      335.854        6.764      870.635
11/13/2013  08:22:00       68.625       38.857       -0.947       27.084       20.898       30.347      733.526      436.717      920.927        0.416        0.105       78.862       12.604        0.026      336.030        7.058      870.618
11/13/2013  08:23:00       92.798       66.166       15.229       32.432       31.108       25.287     1051.829      967.697      639.442        0.794        0.133      113.971       17.013        0.022      335.977        6.970      870.588
11/13/2013  08:24:00      122.381       80.095       13.658       24.869       30.052       30.467      618.457      903.123      928.221        1.201        0.122      146.261       20.214        0.019      335.791        6.660      870.555
11/13/2013  08:25:00       76.271       36.187       11.399       42.801       35.152       31.679     1831.961     1235.659     1003.590        0.566        0.204       84.421       28.530        0.114      336.069        7.124      870.526
11/13/2013  08:26:00       67.406       60.462        2.885       44.073       45.653       30.697     1942.420     2084.238      942.290        0.659        0.248       90.550       20.469        0.051      336.005        7.016      870.500
11/13/2013  08:27:00       53.896       71.072       43.922       35.133       28.596       32.282     1234.336      817.750     1042.118        0.649        0.155       89.196       21.429        0.058      336.198        7.340      870.474
11/13/2013  08:28:00       51.058       11.384       19.183       25.649       22.692       26.825      657.892      514.948      719.596        0.250        0.095       52.312       16.054        0.094      336.089        7.157      870.449
11/13/2013  08:29:00        6.401       27.514       45.000       21.003       23.043       18.938      441.129      530.969      358.632        0.208        0.067       28.248       12.345        0.191      336.617        8.038      870.471
11/13/2013  08:30:00       17.072       11.519       28.216       24.143       33.602       22.165      582.891     1129.090      491.299        0.171        0.110       20.595       22.094        1.151      336.476        7.803      870.567
11/13/2013  08:31:00       14.237       14.084       38.800       19.770       29.929       20.412      390.869      895.721      416.650        0.180        0.085       20.026       20.154        1.013      336.705        8.186      870.665
11/13/2013  08:32:00       18.417        3.900       12.852       27.386       25.144       18.608      749.993      632.240      346.259        0.112        0.086       18.826       12.771        0.460      336.492        7.830      870.735
11/13/2013  08:33:00       27.919       38.076       54.515       35.833       39.399       33.518     1284.026     1552.269     1123.454        0.458        0.198       47.215       30.448        0.416      336.577        7.973      870.752
11/13/2013  08:34:00       82.405       84.198       64.020       35.190       24.449       34.887     1238.318      597.775     1217.112        1.052        0.153      117.813       25.795        0.048      336.017        7.036      870.742
11/13/2013  08:35:00       73.859       58.786       30.440       21.068       17.970       23.989      443.845      322.909      575.486        0.559        0.067       94.398       13.612        0.021      336.057        7.102      870.719
11/13/2013  08:36:00       64.227       58.689       25.788       24.781       12.892       18.928      614.105      166.198      358.288        0.469        0.057       87.003        4.975        0.003      336.009        7.023      870.696
11/13/2013  08:37:00       29.713       25.765       43.280       33.620       42.601       34.982     1130.319     1814.810     1223.738        0.379        0.208       39.328       33.000        0.704      336.512        7.863      870.672
11/13/2013  08:38:00       24.963       27.807       32.092       39.205       41.751       39.427     1537.015     1743.180     1554.492        0.363        0.242       37.368       29.436        0.621      336.368        7.623      870.665
11/13/2013  08:39:00       20.443       -8.590       39.132       31.604       49.281       33.450      998.814     2428.577     1118.910        0.328        0.227       22.174       27.813        1.573      336.731        8.230      870.668
11/13/2013  08:40:00       22.474        2.980       40.640       31.888       53.694       30.868     1016.836     2882.997      952.805        0.351        0.243       22.670       33.360        2.165      336.786        8.321      870.690
11/13/2013  08:41:00        4.156       50.376       82.146       31.862       43.396       29.962     1015.168     1883.241      897.735        0.655        0.190       50.547       25.663        0.258      336.811        8.364      870.711
11/13/2013  08:42:00       56.094       44.837       52.628       26.391       27.964       27.086      696.492      781.968      733.651        0.507        0.111       71.811       17.224        0.058      336.365        7.617      870.740
11/13/2013  08:43:00       55.707       42.589       40.433       43.091       36.726       27.936     1856.863     1348.833      780.412        0.527        0.199       70.122       27.165        0.150      336.469        7.792      870.760
11/13/2013  08:44:00       39.613        1.821       32.803       31.871       31.300       31.634     1015.770      979.713     1000.681        0.282        0.150       39.655       22.414        0.319      336.558        7.942      870.786
11/13/2013  08:45:00       58.680       60.722        8.094       21.118       20.571       27.751      445.950      423.183      770.100        0.442        0.082       84.442       16.833        0.040      336.346        7.585      870.802
11/13/2013  08:46:00       32.370       28.710       28.976       25.551       21.054       31.332      652.869      443.266      981.669        0.239        0.104       43.267       12.372        0.082      336.705        8.187      870.792
11/13/2013  08:47:00        4.435       28.435       57.580       24.092       33.411       26.821      580.417     1116.287      719.387        0.328        0.121       28.779       23.816        0.685      336.834        8.401      870.770
11/13/2013  08:48:00       12.809       65.560       86.187       37.514       35.726       23.151     1407.303     1276.364      535.991        0.755        0.161       66.799       25.219        0.143      336.696        8.171      870.733
11/13/2013  08:49:00       58.099       43.786       39.377       31.740       23.820       31.300     1007.403      567.411      979.694        0.470        0.128       72.751       22.229        0.093      336.555        7.937      870.701
11/13/2013  08:50:00       81.998       70.475       43.254       19.339       17.969       34.202      373.985      322.870     1169.756        0.771        0.093      108.122       12.700        0.014      336.444        7.749      870.688
11/13/2013  08:51:00       20.212       15.903       33.976       25.103       33.489       18.267      630.171     1121.484      333.671        0.195        0.104       25.719       12.497        0.236      336.856        8.438      870.713
11/13/2013  08:52:00       16.311       12.225       33.578       21.690       31.247       26.627      470.460      976.378      708.995        0.185        0.108       20.384       18.518        0.825      337.100        8.846      870.749
11/13/2013  08:53:00        3.633        5.637       21.701       15.948       41.252       31.039      254.336     1701.747      963.424        0.172        0.146        6.706       28.587       18.174      336.922        8.549      870.776
11/13/2013  08:54:00       12.705        4.467       53.612       30.788       33.106       18.570      947.911     1096.040      344.844        0.272        0.119       13.468       21.075        2.449      337.056        8.774      870.783
11/13/2013  08:55:00       53.332       43.282       27.420       23.822       16.748       26.019      567.483      280.506      677.006        0.350        0.076       68.685       12.289        0.032      336.699        8.177      870.780
11/13/2013  08:56:00       31.617       42.474       48.701       43.481       32.881       38.173     1890.604     1081.129     1457.210        0.480        0.221       52.950       37.681        0.506      336.885        8.487      870.780
11/13/2013  08:57:00       33.813       43.118       55.878       38.957       40.686       33.369     1517.677     1655.334     1113.470        0.520        0.214       54.795       34.103        0.387      336.936        8.573      870.769
11/13/2013  08:58:00       23.613       18.559       44.419       21.182       44.840       26.487      448.661     2010.667      701.573        0.302        0.158       30.033       28.196        0.881      336.984        8.652      870.761
11/13/2013  08:59:00       53.588       38.518       52.895       46.653       45.579       31.630     2176.512     2077.459     1000.450        0.620        0.263       65.995       31.112        0.222      337.080        8.812      870.744
11/13/2013  09:00:00       51.878       42.202       56.865       26.457       25.151       27.085      699.961      632.559      733.617        0.489        0.103       66.876       12.084        0.033      336.845        8.420      870.750
11/13/2013  09:01:00       36.714       36.970       40.658       23.705       18.986       13.276      561.910      360.457      176.245        0.273        0.055       52.103        7.842        0.023      336.907        8.523      870.741
11/13/2013  09:02:00       37.694       50.961       22.904       20.402       15.299       33.040      416.234      234.058     1091.650        0.314        0.087       63.387       18.626        0.086      336.951        8.596      870.720
11/13/2013  09:03:00       16.670       36.510       20.521       17.530       17.617       14.145      307.309      310.366      200.088        0.142        0.041       40.136       11.077        0.076      337.157        8.942      870.711
11/13/2013  09:04:00       23.448       28.464       16.477       26.754       22.222       17.894      715.751      493.820      320.181        0.158        0.076       36.878       13.493        0.134      337.244        9.087      870.695
11/13/2013  09:05:00       -1.433       -5.876       12.308       21.694       18.539       21.050      470.644      343.699      443.121        0.072        0.063        6.049       11.002        3.308      337.546        9.594      870.664
11/13/2013  09:06:00        5.473      -12.532       21.267       23.195       32.852       17.798      538.017     1079.268      316.755        0.129        0.097       13.675        9.714        0.505      337.611        9.702      870.656
11/13/2013  09:07:00       14.989       17.601       34.678       24.831       36.169       37.586      616.574     1308.193     1412.671        0.254        0.167       23.118       30.245        1.712      337.598        9.680      870.662
11/13/2013  09:08:00       26.442       70.698       74.370       41.877       27.815       35.320     1753.675      773.671     1247.517        0.750        0.189       75.481       33.663        0.199      337.185        8.989      870.678
11/13/2013  09:09:00       80.116       63.282       36.313       18.173       18.327       24.219      330.244      335.863      586.565        0.650        0.063      102.094       11.391        0.012      337.049        8.761      870.694
11/13/2013  09:10:00       99.453       78.352       33.049       29.217       20.455       23.402      853.604      418.389      547.666        0.947        0.091      126.609       14.990        0.014      336.997        8.674      870.684
11/13/2013  09:11:00       68.048       81.714       44.397       49.738       30.863       39.423     2473.900      952.514     1554.147        0.913        0.249      106.337       35.842        0.114      337.176        8.973      870.673
11/13/2013  09:12:00       60.160       55.921       55.706       27.384       21.034       23.324      749.898      442.427      543.986        0.579        0.087       82.137        8.628        0.011      337.245        9.089      870.672
11/13/2013  09:13:00       45.253       40.189       44.059       18.424       23.185        9.907      339.443      537.526       98.153        0.329        0.049       60.523       11.749        0.038      337.143        8.918      870.666
11/13/2013  09:14:00       40.446       30.979       21.643       42.361       28.375       20.615     1794.422      805.115      424.988        0.304        0.151       50.946       18.531        0.132      337.394        9.339      870.667
11/13/2013  09:15:00       74.652       37.718       16.467       23.681       19.601       27.653      560.808      384.207      764.695        0.449        0.085       83.639        7.523        0.008      337.345        9.256      870.658
11/13/2013  09:16:00       47.885       84.756       58.535       46.702       30.417       44.792     2181.100      925.183     2006.313        0.901        0.256       97.347       36.966        0.144      337.494        9.506      870.647
11/13/2013  09:17:00       64.533       58.364       63.386       32.818       36.366       32.441     1076.996     1322.458     1052.394        0.752        0.173       87.011       28.656        0.108      337.362        9.286      870.644
11/13/2013  09:18:00       -2.155       47.415       61.321       19.326       37.041       23.986      373.511     1372.067      575.344        0.417        0.116       47.464       23.404        0.243      337.734        9.908      870.642
11/13/2013  09:19:00       48.619       93.387       79.569       38.400       29.474       28.148     1474.564      868.723      792.299        1.028        0.157      105.285       21.071        0.040      337.458        9.446      870.650
11/13/2013  09:20:00       76.909       75.578       69.754       71.969       49.318       51.374     5179.591     2432.254     2639.295        1.337        0.513      107.829       48.895        0.206      337.391        9.334      870.668
11/13/2013  09:21:00       83.916       43.108       51.600       46.488       43.838       45.130     2161.141     1921.757     2036.688        0.884        0.306       94.341       27.968        0.088      337.337        9.242      870.695
11/13/2013  09:22:00       43.294       61.998       58.146       39.255       37.262       33.920     1540.956     1388.456     1150.577        0.659        0.204       75.618       30.759        0.165      337.463        9.455      870.712
11/13/2013  09:23:00       -6.816       32.909       51.345       19.454       35.538       22.207      378.466     1262.918      493.161        0.295        0.107       33.608       18.236        0.294      338.026       10.397      870.722
11/13/2013  09:24:00       49.742       57.791       38.606       52.143       39.088       35.419     2718.887     1527.911     1254.481        0.640        0.275       76.250       30.568        0.161      337.857       10.116      870.735
11/13/2013  09:25:00       69.505       60.100       -1.529       35.707       30.346       25.396     1275.023      920.852      644.938        0.564        0.142       91.885        6.210        0.005      337.375        9.306      870.729
11/13/2013  09:26:00       64.794       46.862        6.831       29.919       29.481       23.233      895.157      869.136      539.761        0.437        0.115       79.964        8.631        0.012      337.485        9.490      870.722
11/13/2013  09:27:00       22.670       60.566        4.200       36.070       39.097       26.311     1301.053     1528.607      692.291        0.386        0.176       64.670       19.917        0.095      337.685        9.826      870.720
11/13/2013  09:28:00       79.033       50.678        9.241       45.459       29.307       25.033     2066.531      858.899      626.627        0.623        0.178       93.886        7.179        0.006      337.859       10.117      870.717
11/13/2013  09:29:00       40.902        7.761       37.610       31.635       74.520       37.414     1000.755     5553.157     1399.820        0.555        0.398       41.632       20.286        0.237      337.797       10.014      870.719
11/13/2013  09:30:00       38.153       48.611       28.488       30.536       37.139       34.133      932.439     1379.289     1165.055        0.405        0.174       61.795       21.940        0.126      338.026       10.399      870.720
11/13/2013  09:31:00       22.607       23.932       48.761       42.167       40.068       33.861     1778.084     1605.483     1146.546        0.399        0.227       32.921       30.461        0.856      338.376       10.985      870.735
11/13/2013  09:32:00       42.903       40.512       17.013       41.130       52.909       27.006     1691.703     2799.381      729.321        0.449        0.261       59.007       20.087        0.116      338.169       10.638      870.734
11/13/2013  09:33:00       56.330       53.184       18.030       35.296       34.854       35.322     1245.816     1214.830     1247.623        0.502        0.185       77.470       20.118        0.067      337.953       10.277      870.705
11/13/2013  09:34:00      112.288       79.838       50.542       57.468       48.391       47.610     3302.552     2341.695     2266.756        1.472        0.396      137.778       32.630        0.056      337.707        9.863      870.664
11/13/2013  09:35:00      147.676       92.010        4.723       38.929       30.155       29.905     1515.498      909.299      894.290        1.681        0.166      173.994       15.308        0.008      337.445        9.425      870.650
11/13/2013  09:36:00       96.491       99.430       77.098       77.327       44.207       50.681     5979.435     1954.267     2568.562        1.782        0.525      138.552       50.123        0.131      337.664        9.792      870.653
11/13/2013  09:37:00       85.584       81.613       55.810       48.997       47.889       45.898     2400.749     2293.386     2106.582        1.195        0.340      118.260       36.363        0.095      337.685        9.827      870.662
11/13/2013  09:38:00        8.538       53.155       58.453       23.590       34.804       21.829      556.508     1211.324      476.496        0.428        0.112       53.836       11.519        0.046      338.150       10.606      870.655
11/13/2013  09:39:00       73.435       78.811       48.656       69.611       40.405       51.604     4845.649     1632.589     2662.996        1.155        0.457      107.721       52.823        0.240      337.789       10.001      870.651
11/13/2013  09:40:00      112.837      107.328       22.344       32.790       31.456       34.301     1075.187      989.473     1176.526        1.400        0.162      155.729       18.185        0.014      337.638        9.747      870.674
11/13/2013  09:41:00       80.799       56.430       17.771       24.924       21.988       21.931      621.188      483.488      480.978        0.581        0.079       98.553       15.126        0.024      337.735        9.910      870.688
11/13/2013  09:42:00       87.802       63.223       -6.149       59.873       50.123       33.834     3584.761     2512.323     1144.767        0.949        0.362      108.196       20.175        0.035      337.754        9.942      870.709
11/13/2013  09:43:00      110.978       73.918        4.984       32.872       36.055       31.873     1080.589     1299.976     1015.890        1.060        0.170      133.342       24.502        0.034      337.800       10.019      870.720
11/13/2013  09:44:00       75.571       80.117       -3.157       46.637       26.513       32.081     2175.033      702.915     1029.173        0.802        0.195      110.135       18.349        0.028      337.848       10.100      870.743
11/13/2013  09:45:00       78.550       48.889       13.416       47.040       46.853       36.715     2212.793     2195.193     1347.967        0.725        0.288       92.522       28.862        0.097      337.818       10.050      870.767
11/13/2013  09:46:00       65.040       59.200       24.830       39.122       40.237       40.728     1530.514     1619.029     1658.794        0.658        0.240       87.948       26.102        0.088      337.929       10.236      870.772
11/13/2013  09:47:00       88.829       97.089        7.354       55.566       43.681       38.981     3087.554     1908.073     1519.513        1.194        0.326      131.594       27.369        0.043      338.056       10.448      870.780
11/13/2013  09:48:00        7.861       16.517       27.530       22.167       54.535       19.458      491.364     2974.021      378.604        0.247        0.192       18.292       14.349        0.615      338.423       11.064      870.794
11/13/2013  09:49:00       67.596       71.421        5.322       41.309       40.263       42.528     1706.474     1621.073     1808.667        0.742        0.257       98.337       33.727        0.118      338.073       10.476      870.818
11/13/2013  09:50:00       10.986       41.330       15.824       35.054       30.985       27.943     1228.818      960.071      780.821        0.252        0.148       42.765       21.283        0.248      338.362       10.963      870.822
11/13/2013  09:51:00       68.090       65.419       43.173       46.730       40.707       47.216     2183.700     1657.100     2229.330        0.842        0.304       94.424       40.417        0.183      338.198       10.686      870.796
11/13/2013  09:52:00      134.831       80.491       21.895       30.433       21.493       34.088      926.196      461.947     1162.019        1.384        0.128      157.029       15.910        0.010      337.943       10.259      870.737
11/13/2013  09:53:00      125.611       76.265        5.117       36.002       21.969       32.129     1296.151      482.631     1032.280        1.222        0.141      146.951       16.500        0.013      337.903       10.191      870.681
11/13/2013  09:54:00      100.351       93.713       -8.304       49.274       31.198       32.574     2427.885      973.321     1061.095        1.169        0.223      137.304       23.638        0.030      338.209       10.705      870.619
11/13/2013  09:55:00       73.346       88.343       -4.602       53.309       38.950       29.963     2841.872     1517.079      897.769        0.923        0.263      114.822       22.853        0.040      338.411       11.043      870.586
11/13/2013  09:56:00       67.065       65.450        3.769       42.292       35.509       38.339     1788.638     1260.887     1469.872        0.666        0.226       93.709       26.237        0.078      338.310       10.874      870.583
11/13/2013  09:57:00       56.249       57.469        7.605       37.584       35.717       26.461     1412.576     1275.716      700.164        0.496        0.169       80.415       20.579        0.065      338.435       11.084      870.591
11/13/2013  09:58:00       27.146       70.716        9.088       35.446       58.108       32.361     1256.445     3376.504     1047.238        0.575        0.284       75.747       33.613        0.197      338.564       11.301      870.605
11/13/2013  09:59:00       54.541       62.218        2.334       39.152       46.562       31.486     1532.863     2168.010      991.375        0.577        0.235       82.739       22.986        0.077      338.600       11.362      870.583
11/13/2013  10:00:00       54.897       76.136      -16.292       42.855       47.947       29.523     1836.542     2298.938      871.616        0.704        0.250       93.864       16.239        0.030      338.679       11.495      870.569
11/13/2013  10:01:00       25.650       59.436       41.154       41.926       39.050       41.237     1757.826     1524.928     1700.493        0.543        0.249       64.734       26.644        0.169      338.879       11.830      870.549
11/13/2013  10:02:00       43.727       72.332       75.488       62.382       40.316       52.381     3891.555     1625.388     2743.769        1.055        0.413       84.522       49.807        0.347      338.470       11.144      870.541
11/13/2013  10:03:00       58.035       48.889       36.241       44.018       47.136       26.217     1937.545     2221.818      687.349        0.596        0.242       75.883       17.953        0.056      338.471       11.147      870.541
11/13/2013  10:04:00       25.094       38.182       76.638       39.906       87.079       38.065     1592.513     7582.693     1448.933        0.929        0.531       45.690       52.683        1.330      338.716       11.558      870.542
11/13/2013  10:05:00       43.289       69.857       59.948       42.403       39.767       28.702     1798.003     1581.387      823.825        0.727        0.210       82.182       16.144        0.039      338.756       11.625      870.554
11/13/2013  10:06:00        6.784        0.085       44.912       26.813       54.682       35.057      718.956     2990.125     1228.991        0.350        0.247        6.785       23.493       11.990      339.029       12.083      870.562
11/13/2013  10:07:00       15.761       26.227       59.876       33.243       55.487       43.290     1105.127     3078.817     1874.055        0.529        0.303       30.598       41.398        1.830      338.931       11.920      870.595
11/13/2013  10:08:00       50.285       57.883       26.254       35.141       27.028       36.901     1234.892      730.499     1361.673        0.495        0.166       76.675       22.384        0.085      338.510       11.211      870.623
11/13/2013  10:09:00       27.129       27.228       26.614       25.800       24.743       19.505      665.625      612.210      380.464        0.192        0.083       38.436       14.437        0.141      338.832       11.752      870.626
11/13/2013  10:10:00       14.713      -65.900       17.351       25.140       58.448       31.484      632.006     3416.128      991.219        0.495        0.252       67.522       38.080        0.318      338.754       11.621      870.636
11/13/2013  10:11:00       -0.938       19.368       40.473       16.688       36.137       24.715      278.486     1305.903      610.818        0.210        0.110       19.390       21.820        1.266      339.194       12.359      870.620
11/13/2013  10:12:00       65.216       33.291       -1.711       40.265       24.091       24.399     1621.272      580.394      595.330        0.408        0.140       73.222       10.101        0.019      338.735       11.589      870.628
11/13/2013  10:13:00       20.801       45.288       48.113       40.483       43.191       37.483     1638.839     1865.492     1404.993        0.485        0.245       49.837       24.119        0.234      339.404       12.715      870.609
11/13/2013  10:14:00       97.449       64.444       -4.087       51.547       35.528       43.907     2657.066     1262.217     1927.787        0.976        0.292      116.831       22.803        0.038      338.797       11.692      870.607
11/13/2013  10:15:00       76.593       44.141       29.951       47.096       79.021       36.868     2218.047     6244.272     1359.253        0.926        0.491       88.402       32.745        0.137      338.874       11.822      870.590
11/13/2013  10:16:00       61.653       39.291       47.678       33.595       66.224       35.267     1128.596     4385.629     1243.793        0.719        0.338       73.109       19.883        0.074      338.769       11.646      870.579
11/13/2013  10:17:00       74.864       77.006       53.757       67.746       42.063       38.610     4589.503     1769.285     1490.734        1.114        0.392      107.399       39.036        0.132      338.921       11.901      870.561
11/13/2013  10:18:00      129.757       52.380        9.233       65.888       53.175       41.550     4341.203     2827.629     1726.394        1.428        0.445      139.930       26.980        0.037      338.896       11.858      870.565
11/13/2013  10:19:00       78.685       60.351       57.864       69.237       50.578       46.899     4793.811     2558.146     2199.525        1.136        0.478       99.165       42.430        0.183      339.002       12.037      870.572
11/13/2013  10:20:00      103.946       65.791       26.965       36.930       23.710       27.093     1363.860      562.168      734.004        0.926        0.133      123.018       17.931        0.021      338.741       11.599      870.576
11/13/2013  10:21:00       57.072       62.779       67.914       61.352       49.397       38.490     3764.078     2440.105     1481.514        0.975        0.384       84.843       31.085        0.134      339.132       12.257      870.559
11/13/2013  10:22:00       24.728       65.389       90.490       39.761       41.931       22.554     1580.946     1758.195      508.664        0.846        0.192       69.908       10.254        0.022      339.020       12.068      870.565
11/13/2013  10:23:00       17.551       16.400       40.001       48.331       46.826       29.321     2335.905     2192.684      859.715        0.378        0.269       24.021       27.133        1.276      339.198       12.368      870.554
11/13/2013  10:24:00      -11.003       17.512       51.806       25.081       33.455       22.678      629.032     1119.247      514.307        0.269        0.113       20.681       20.586        0.991      339.594       13.033      870.563
11/13/2013  10:25:00        3.636       73.295       92.490       27.454       35.871       27.809      753.744     1286.731      773.350        0.838        0.141       73.385       27.017        0.136      339.369       12.656      870.546
11/13/2013  10:26:00       51.978       62.530       69.158       56.617       33.986       24.014     3205.435     1155.048      576.668        0.816        0.247       81.313       22.151        0.074      339.186       12.348      870.536
11/13/2013  10:27:00       29.295       50.080       68.459       36.038       39.801       29.353     1298.710     1584.091      861.603        0.590        0.187       58.019       25.059        0.187      339.434       12.765      870.519
11/13/2013  10:28:00       21.421       15.498       52.591       43.635       36.735       32.352     1904.007     1349.486     1046.630        0.388        0.215       26.440       22.248        0.708      339.688       13.193      870.513
11/13/2013  10:29:00      -16.460       11.693       56.662       24.305       59.957       36.832      590.732     3594.885     1356.623        0.458        0.277       20.190       42.289        4.387      339.862       13.487      870.508
11/13/2013  10:30:00       14.697       82.655       74.486       31.470       33.633       28.519      990.360     1131.185      813.329        0.776        0.147       83.951       25.250        0.090      339.274       12.497      870.515
11/13/2013  10:31:00        9.775        4.688       -2.657       24.890       30.275       29.389      619.524      916.570      863.687        0.126        0.120       10.841       13.993        1.666      339.555       12.969      870.511
11/13/2013  10:32:00       25.054       18.560        2.727       37.014       24.673       24.546     1370.011      608.750      602.491        0.178        0.129       31.180        7.553        0.059      339.374       12.664      870.512
11/13/2013  10:33:00       18.206       34.847       48.507       40.191       47.753       33.996     1615.286     2280.396     1155.749        0.447        0.253       39.316       27.486        0.489      339.620       13.078      870.486
11/13/2013  10:34:00       65.392       77.601       70.162       66.803       58.269       40.440     4462.637     3395.246     1635.402        1.236        0.475      101.480       32.810        0.105      339.372       12.660      870.457
11/13/2013  10:35:00       11.990       41.790       83.744       32.623       54.647       26.071     1064.247     2986.344      679.698        0.682        0.237       43.476       29.319        0.455      339.870       13.499      870.432
11/13/2013  10:36:00       -1.480       -7.731       50.254       17.660       58.501       31.249      311.873     3422.372      976.479        0.365        0.236        7.871       33.439       18.047      339.850       13.466      870.425
11/13/2013  10:37:00       62.715       68.600       66.428       43.209       40.670       32.480     1867.006     1654.062     1054.951        0.881        0.229       92.946       18.439        0.039      339.445       12.785      870.412
11/13/2013  10:38:00       -4.484       22.384       71.283       36.846       56.968       40.015     1357.608     3245.350     1601.191        0.590        0.310       22.828       40.926        3.214      339.585       13.020      870.409
11/13/2013  10:39:00       52.772      -49.489       24.728       48.179       69.595       42.780     2321.212     4843.401     1830.104        0.742        0.450       72.347       47.586        0.433      339.654       13.136      870.391
11/13/2013  10:40:00       35.159        5.937       37.804       37.762       48.932       36.050     1425.947     2394.327     1299.617        0.391        0.256       35.657       36.723        1.061      339.720       13.246      870.394
11/13/2013  10:41:00       27.566      -15.996       32.347       41.496       62.163       40.605     1721.949     3864.226     1648.771        0.465        0.362       31.871       43.795        1.888      339.669       13.161      870.371
11/13/2013  10:42:00       97.966       61.956       30.659       47.710       37.098       34.849     2276.212     1376.281     1214.455        0.962        0.243      115.913       20.386        0.031      339.272       12.490      870.382
11/13/2013  10:43:00       43.420       -6.927        5.095       31.583       56.662       26.615      997.514     3210.566      708.379        0.344        0.246       43.970       27.469        0.390      339.448       12.788      870.383
11/13/2013  10:44:00       23.583       25.182       49.882       39.276       65.699       41.631     1542.584     4316.404     1733.181        0.563        0.380       34.501       44.232        1.644      339.871       13.501      870.391
11/13/2013  10:45:00        6.024      -42.494       30.464       45.313       66.130       38.304     2053.274     4373.137     1467.169        0.533        0.395       42.919       45.087        1.104      339.820       13.417      870.384
11/13/2013  10:46:00       12.736       31.089       63.656       40.257       52.954       31.897     1620.639     2804.174     1017.400        0.531        0.272       33.597       27.030        0.647      340.075       13.847      870.377
11/13/2013  10:47:00       40.206     -126.152      -13.255       37.889       46.568       27.299     1435.580     2168.569      745.209        1.103        0.217      132.404       13.336        0.010      339.467       12.820      870.383
11/13/2013  10:48:00       14.778      -22.802      -13.748       24.374       32.262       19.179      594.075     1040.827      367.819        0.146        0.100       27.172       11.582        0.182      339.675       13.171      870.381
11/13/2013  10:49:00      -18.574      -31.821      -12.058       55.161       36.265       28.542     3042.742     1315.121      814.665        0.334        0.259       36.845       25.963        0.497      339.722       13.250      870.376
11/13/2013  10:50:00        3.301        0.954       26.888       41.849       40.837       31.556     1751.375     1667.685      995.761        0.257        0.221        3.436       35.065      104.129      339.939       13.617      870.351
11/13/2013  10:51:00       26.020        2.212       46.250       21.554       16.833       24.536      464.559      283.349      602.026        0.209        0.067       26.114       14.664        0.315      339.978       13.681      870.319
11/13/2013  10:52:00       11.994       11.604       13.215       20.263       29.176       21.954      410.584      851.232      481.967        0.110        0.087       16.689       17.013        1.039      340.072       13.841      870.269
11/13/2013  10:53:00       42.166       -6.215       31.244       46.552       36.320       38.644     2167.099     1319.144     1493.345        0.389        0.249       42.621       27.213        0.408      339.908       13.566      870.232
11/13/2013  10:54:00       45.981      -10.195       47.486       53.889       94.872       45.388     2904.000     9000.674     2060.043        0.922        0.698       47.098       45.513        0.934      339.855       13.474      870.195
11/13/2013  10:55:00      142.869      104.663       22.228       49.396       36.745       38.357     2439.947     1350.166     1471.245        1.856        0.263      177.105       26.618        0.023      339.427       12.752      870.177
11/13/2013  10:56:00       64.481       57.390       31.677       59.208       38.466       36.681     3505.569     1479.641     1345.493        0.739        0.317       86.322       30.050        0.121      339.914       13.575      870.162
11/13/2013  10:57:00       53.924       51.517       12.522       49.720       37.240       44.185     2472.102     1386.816     1952.347        0.576        0.291       74.577       28.302        0.144      339.892       13.537      870.129
11/13/2013  10:58:00       23.561       41.515       16.259       38.516       36.875       31.821     1483.471     1359.737     1012.590        0.320        0.193       47.734       12.183        0.065      340.202       14.060      870.095
11/13/2013  10:59:00       63.407       55.761       42.157       40.802       34.003       35.606     1664.838     1156.189     1267.781        0.650        0.204       84.438       16.382        0.038      340.002       13.723      870.036
11/13/2013  11:00:00       45.020       54.419       14.915       44.268       39.826       32.773     1959.628     1586.085     1074.048        0.491        0.231       70.628       25.455        0.130      340.168       14.003      869.992
11/13/2013  11:01:00       51.683       60.908       35.021       53.757       41.728       39.614     2889.811     1741.193     1569.277        0.690        0.310       79.881       31.610        0.157      340.037       13.783      869.944
11/13/2013  11:02:00       25.502       48.736       84.609       54.821       75.824       44.424     3005.307     5749.308     1973.530        1.045        0.536       55.005       45.064        0.671      340.316       14.254      869.919
11/13/2013  11:03:00       77.408       37.446       59.195       70.737       51.352       42.845     5003.790     2637.057     1835.724        1.019        0.474       85.989       38.871        0.204      339.955       13.643      869.887
11/13/2013  11:04:00      112.939       73.681       36.171       48.267       45.808       41.196     2329.687     2098.414     1697.135        1.281        0.306      134.849       29.493        0.048      339.913       13.572      869.847
11/13/2013  11:05:00       57.960       60.157       14.753       51.498       32.587       27.020     2652.068     1061.901      730.103        0.582        0.222       83.536       22.204        0.071      340.081       13.855      869.791
11/13/2013  11:06:00       62.440       75.473       62.090       80.371       42.329       54.705     6459.498     1791.727     2992.612        1.234        0.562       97.954       57.211        0.341      340.306       14.238      869.729
11/13/2013  11:07:00       58.882       61.222       -5.561       40.569       26.423       24.552     1645.872      698.195      602.784        0.510        0.147       84.942       13.608        0.026      340.094       13.878      869.678
11/13/2013  11:08:00       27.108       51.917       39.692       40.820       35.041       34.140     1666.249     1227.857     1165.555        0.453        0.203       58.568       20.011        0.117      340.347       14.304      869.646
11/13/2013  11:09:00       36.660       28.691       -6.956       43.318       40.315       31.685     1876.443     1625.331     1003.927        0.336        0.225       46.553       16.326        0.123      340.239       14.121      869.657
11/13/2013  11:10:00       42.018       23.357       17.917       28.618       24.622       26.957      818.982      606.239      726.698        0.239        0.108       48.073        7.800        0.026      340.274       14.184      869.661
11/13/2013  11:11:00       29.499       44.026       21.176       50.250       36.601       32.960     2525.030     1339.667     1086.348        0.410        0.248       52.995        8.584        0.026      340.455       14.488      869.662
11/13/2013  11:12:00       98.961       77.380        9.459       41.442       42.928       33.161     1717.460     1842.833     1099.649        1.026        0.233      125.622       18.797        0.022      340.080       13.855      869.640
11/13/2013  11:13:00       64.312       -7.746       19.860       58.147       69.008       39.056     3381.041     4762.048     1525.355        0.713        0.483       64.776       40.080        0.383      340.336       14.288      869.634
11/13/2013  11:14:00       66.328       43.146       38.456       55.378       56.995       37.724     3066.724     3248.374     1423.082        0.774        0.387       79.126       27.582        0.122      340.533       14.618      869.592
11/13/2013  11:15:00       97.343       64.212       13.939       31.072       33.091       27.633      965.442     1094.998      763.565        0.831        0.141      116.614        9.611        0.007      340.036       13.779      869.554
11/13/2013  11:16:00       76.749       49.187       19.050       36.222       31.300       30.625     1312.047      979.716      937.896        0.595        0.161       91.157       15.742        0.030      340.295       14.217      869.524
11/13/2013  11:17:00       40.876       50.072       60.008       31.794       37.013       29.572     1010.841     1369.980      874.501        0.552        0.163       64.638       24.375        0.142      340.674       14.859      869.496
11/13/2013  11:18:00        8.604       42.531       61.831       49.719       46.961       28.234     2471.941     2205.336      797.135        0.559        0.274       43.392       24.187        0.311      340.954       15.331      869.479
11/13/2013  11:19:00       40.484       48.964       47.899       49.372       34.840       34.628     2437.589     1213.857     1199.113        0.559        0.243       63.533       30.512        0.231      340.672       14.855      869.455
11/13/2013  11:20:00       26.107      -67.177      -10.148       32.595       52.519       28.631     1062.442     2758.226      819.742        0.497        0.232       72.072       26.879        0.139      340.481       14.531      869.446
11/13/2013  11:21:00      -13.454       -6.401       34.898       46.954       58.539       36.543     2204.654     3426.805     1335.356        0.420        0.348       14.899       21.125        2.011      340.694       14.892      869.423
11/13/2013  11:22:00       34.344      -59.329        1.815       55.549       44.604       34.990     3085.746     1989.539     1224.321        0.550        0.315       68.553       28.618        0.174      340.183       14.029      869.428
11/13/2013  11:23:00      -35.787      -16.405       -5.572       13.241       21.337       11.058      175.321      455.287      122.270        0.117        0.038       39.368       11.519        0.086      340.107       13.900      869.431
11/13/2013  11:24:00      -13.211       18.373        7.880       24.534       41.528       28.533      601.900     1724.558      814.110        0.186        0.157       22.629       17.741        0.615      340.753       14.991      869.462
11/13/2013  11:25:00       39.886     -121.656      -19.471       59.151       47.224       34.641     3498.825     2230.059     1199.977        1.185        0.346      128.027       31.265        0.060      340.466       14.505      869.495
11/13/2013  11:26:00       34.083      -18.606       27.679       51.762       79.265       52.835     2679.261     6282.973     2791.492        0.701        0.588       38.831       58.113        2.240      340.696       14.896      869.497
11/13/2013  11:27:00       75.261      -50.019        1.039       30.389       29.707       30.944      923.499      882.503      957.535        0.546        0.138       90.366       17.601        0.038      340.434       14.452      869.493
11/13/2013  11:28:00       44.724       45.535       39.274       34.889       25.979       27.184     1217.234      674.896      738.944        0.412        0.132       63.826       12.488        0.038      340.397       14.391      869.450
11/13/2013  11:29:00       10.315       26.688       -0.111       15.705       15.990       12.983      246.659      255.696      168.557        0.074        0.034       28.612        6.250        0.048      340.404       14.402      869.428
11/13/2013  11:30:00        0.388       13.927       17.435       18.943       11.988       13.932      358.824      143.707      194.099        0.060        0.035       13.932       10.996        0.623      341.043       15.484      869.402
11/13/2013  11:31:00       40.169       27.226       24.304       29.076       28.814       25.233      845.390      830.272      636.728        0.263        0.116       48.526        8.272        0.029      340.801       15.072      869.385
11/13/2013  11:32:00      -28.328       41.984      -23.679       26.589       19.996       13.675      707.000      399.849      187.016        0.221        0.065       50.647       11.484        0.051      340.423       14.435      869.376
11/13/2013  11:33:00      -17.544        5.147       -0.656       21.021       21.446       15.898      441.877      459.938      252.747        0.074        0.058       18.283       16.182        0.783      341.042       15.479      869.361
11/13/2013  11:34:00      -39.616      -46.403       -4.086       38.902       29.931       21.928     1513.395      895.865      480.824        0.331        0.145       61.014       14.366        0.055      340.902       15.244      869.333
11/13/2013  11:35:00       -3.001      -24.147       32.756       33.526       54.358       28.450     1123.960     2954.819      809.414        0.328        0.244       24.333       24.219        0.991      341.186       15.724      869.286
11/13/2013  11:36:00        4.241       14.215       33.150       19.166       27.559       15.662      367.322      759.508      245.295        0.135        0.069       14.834       15.594        1.105      341.329       15.966      869.271
11/13/2013  11:37:00       -4.686       36.427       64.545       16.050       33.674       27.901      257.603     1133.941      778.445        0.384        0.108       36.727       26.521        0.521      341.484       16.228      869.270
11/13/2013  11:38:00      -11.890      -38.101       13.753       40.804       78.179       43.991     1664.930     6111.903     1935.174        0.575        0.486       39.913       50.918        1.627      341.138       15.642      869.282
11/13/2013  11:39:00       48.598      -48.451       17.670       57.873       72.144       48.812     3349.304     5204.784     2382.654        0.798        0.547       68.624       46.322        0.456      340.904       15.248      869.277
11/13/2013  11:40:00      124.305      -80.159        4.196       56.758       70.648       42.632     3221.446     4991.101     1817.484        1.596        0.502      147.909       53.672        0.132      340.761       15.004      869.275
11/13/2013  11:41:00       40.451      -37.463       12.697       39.903       38.573       23.199     1592.289     1487.912      538.181        0.341        0.181       55.134       18.404        0.111      340.936       15.302      869.306
11/13/2013  11:42:00       32.995      -57.830        2.144       28.846       39.096       33.735      832.100     1528.520     1138.060        0.397        0.175       66.581       27.995        0.177      340.826       15.114      869.324
11/13/2013  11:43:00       12.129      -76.941      -14.827       43.976       39.783       23.461     1933.920     1582.665      550.435        0.518        0.203       77.891       20.315        0.068      340.794       15.060      869.319
11/13/2013  11:44:00       51.324      -85.791       -5.799       30.460       31.469       30.542      927.834      990.275      932.807        0.644        0.143       99.971       23.875        0.057      340.876       15.199      869.293
11/13/2013  11:45:00       16.470       28.251       55.858       26.385       40.013       24.422      696.160     1601.054      596.456        0.354        0.145       32.701       19.595        0.359      341.272       15.870      869.293
11/13/2013  11:46:00       37.098       61.351       43.811       25.136       28.412       28.192      631.838      807.248      794.764        0.465        0.112       71.695       19.640        0.075      341.037       15.472      869.284
11/13/2013  11:47:00      -16.996        2.795       34.918       37.221       13.607       17.761     1385.426      185.158      315.450        0.170        0.094       17.224        9.729        0.319      341.640       16.493      869.236
11/13/2013  11:48:00       30.072       44.118        8.708       30.032       37.001       23.505      901.940     1369.048      552.464        0.287        0.141       53.392       23.734        0.198      341.292       15.902      869.174
11/13/2013  11:49:00       14.167       60.678       69.428       44.492       43.914       36.476     1979.572     1928.482     1330.520        0.697        0.262       62.310       17.047        0.075      341.576       16.385      869.148
11/13/2013  11:50:00      104.616       82.683       38.681       66.240       42.360       41.541     4387.672     1794.362     1725.687        1.359        0.395      133.345       37.437        0.079      341.172       15.700      869.161
11/13/2013  11:51:00       69.424       81.767       38.909       47.880       32.555       33.295     2292.530     1059.847     1108.552        0.874        0.223      107.264       16.482        0.024      341.023       15.447      869.120
11/13/2013  11:52:00      121.757       97.071       16.383       68.279       44.038       42.009     4662.061     1939.321     1764.733        1.644        0.418      155.716       36.405        0.055      340.985       15.382      869.075
11/13/2013  11:53:00       66.565       65.602       24.788       38.978       26.259       32.845     1519.315      689.525     1078.793        0.632        0.164       93.459       10.140        0.012      340.924       15.282      869.050
11/13/2013  11:54:00       43.456       56.789      -21.016       43.816       31.395       22.042     1919.821      985.659      485.852        0.447        0.170       71.508       22.733        0.101      340.884       15.213      869.045
11/13/2013  11:55:00       15.847       16.519        6.586       25.839       28.785       22.019      667.667      828.567      484.822        0.127        0.099       22.891       12.912        0.318      341.096       15.571      869.015
11/13/2013  11:56:00      -14.239       69.993        5.158       29.553       65.039       24.248      873.377     4230.040      587.977        0.541        0.285       71.427       29.433        0.170      341.415       16.113      868.981
11/13/2013  11:57:00       -7.449       -2.027       25.702       23.686       26.259       19.359      561.018      689.521      374.784        0.117        0.081        7.719       14.761        3.656      341.818       16.794      868.984
11/13/2013  11:58:00       -6.027      -25.294       20.065       23.873       36.349       16.838      569.914     1321.220      283.501        0.163        0.109       26.002        6.774        0.068      341.742       16.666      868.972
11/13/2013  11:59:00       17.778       81.016       12.643       35.166       46.855       29.464     1236.679     2195.352      868.104        0.567        0.215       82.943       28.993        0.122      341.768       16.710      868.956
11/13/2013  12:00:00       45.825       95.814       -2.908       35.768       54.232       32.713     1279.321     2941.118     1070.122        0.829        0.265      106.208       30.767        0.084      341.396       16.079      868.909
11/13/2013  12:01:00       18.890       33.791       47.793       41.279       38.512       34.890     1703.964     1483.173     1217.320        0.409        0.220       38.713       15.085        0.152      341.877       16.895      868.906
11/13/2013  12:02:00       52.669       29.911       40.854       53.026       32.884       33.638     2811.749     1081.380     1131.492        0.518        0.251       60.570       12.336        0.041      341.662       16.531      868.915
11/13/2013  12:03:00       82.302       46.450       11.374       42.530       29.598       35.180     1808.822      876.067     1237.652        0.649        0.196       94.506       15.260        0.026      341.074       15.535      868.926
11/13/2013  12:04:00       25.014       28.380       14.315       42.180       26.941       31.592     1779.172      725.837      998.076        0.257        0.175       37.831       21.310        0.317      341.443       16.157      868.890
11/13/2013  12:05:00       65.936       -4.859       15.293       63.813       99.319       35.975     4072.065     9864.309     1294.180        0.991        0.762       66.114       38.692        0.343      341.352       16.005      868.862
11/13/2013  12:06:00       75.323       54.605       49.250       90.564       55.339       52.121     8201.787     3062.431     2716.568        1.253        0.699       93.034       50.699        0.297      341.678       16.559      868.860
11/13/2013  12:07:00       76.159       80.334       -0.596       68.155       80.913       46.646     4645.095     6546.935     2175.836        1.281        0.668      110.696       32.508        0.086      341.784       16.736      868.855
11/13/2013  12:08:00       49.840      115.737      -18.438       58.899       91.007       43.638     3469.044     8282.261     1904.276        1.493        0.683      126.012       42.953        0.116      341.522       16.293      868.850
11/13/2013  12:09:00       10.425      119.984      -14.266       32.544       64.414       28.754     1059.112     4149.152      826.777        1.037        0.302      120.436       27.918        0.054      341.375       16.044      868.857
11/13/2013  12:10:00       39.721       45.855       11.933       31.068       30.632       27.467      965.249      938.335      754.436        0.324        0.133       60.666       17.342        0.082      341.678       16.557      868.860
11/13/2013  12:11:00       30.877        8.712       26.270       28.461       42.842       30.515      810.020     1835.474      931.195        0.265        0.179       32.083       30.987        0.933      341.867       16.879      868.847
11/13/2013  12:12:00       85.424       86.373       56.510       74.032       44.759       64.172     5480.799     2003.375     4118.042        1.477        0.580      121.481       30.799        0.064      341.878       16.896      868.801
11/13/2013  12:13:00      243.764      150.324       21.794       94.462       70.489       73.914     8923.089     4968.740     5463.209        5.092        0.968      286.389       53.881        0.035      341.517       16.281      868.777
11/13/2013  12:14:00      121.427      102.451       13.050       81.992       52.479       54.931     6722.613     2754.021     3017.404        1.895        0.625      158.873       32.669        0.042      341.549       16.336      868.809
11/13/2013  12:15:00      114.221       99.257        9.051       61.789       43.344       35.190     3817.877     1878.718     1238.343        1.496        0.347      151.322       20.913        0.019      341.548       16.336      868.836
11/13/2013  12:16:00       82.383       67.944       42.775       60.064       43.049       49.473     3607.660     1853.255     2447.616        1.057        0.395      106.787       31.224        0.085      341.719       16.626      868.829
11/13/2013  12:17:00      102.559       88.940       11.966       66.645       58.679       54.177     4441.516     3443.261     2935.190        1.469        0.541      135.752       35.421        0.068      341.633       16.481      868.801
11/13/2013  12:18:00      101.852       89.808        6.042       47.996       46.735       32.187     2303.608     2184.151     1035.993        1.200        0.276      135.792       19.472        0.021      341.386       16.064      868.800
11/13/2013  12:19:00       17.100       57.657      -12.658       42.339       39.955       21.842     1792.610     1596.377      477.086        0.382        0.193       60.139       19.905        0.110      341.340       15.984      868.789
11/13/2013  12:20:00      -32.167       84.781      -13.931       26.666       32.330       18.881      711.089     1045.226      356.478        0.526        0.106       90.679       13.323        0.022      341.711       16.613      868.750
11/13/2013  12:21:00      -18.251       81.164       -6.553       48.375       61.456       24.980     2340.187     3776.862      623.999        0.685        0.337       83.190       20.099        0.058      341.664       16.533      868.733
11/13/2013  12:22:00       75.513       48.669        9.885       47.000       36.417       31.427     2209.041     1326.173      987.685        0.634        0.226       89.839       13.729        0.023      341.738       16.659      868.742
11/13/2013  12:23:00      185.864      118.004       59.786       84.279       64.588       61.383     7102.884     4171.640     3767.924        3.354        0.752      220.160       32.236        0.021      341.805       16.768      868.748
11/13/2013  12:24:00      225.320      135.487       11.482       75.780       57.518       48.103     5742.646     3308.274     2313.910        4.031        0.568      262.918       39.143        0.022      341.643       16.494      868.764
11/13/2013  12:25:00      187.890      120.166       43.990       78.731       61.492       67.591     6198.557     3781.236     4568.567        3.311        0.727      223.030       17.550        0.006      341.663       16.529      868.757
11/13/2013  12:26:00      103.468       65.844       27.007       78.350       52.949       40.959     6138.699     2803.629     1677.680        1.319        0.531      122.641       20.623        0.028      341.708       16.608      868.733
11/13/2013  12:27:00       15.299       64.586        1.034       49.748       47.781       35.433     2474.876     2283.031     1255.532        0.521        0.301       66.374       26.715        0.162      341.840       16.833      868.717
11/13/2013  12:28:00       31.637      169.958      -11.508       51.585       79.622       50.520     2661.038     6339.710     2552.315        2.078        0.578      172.877       44.647        0.067      341.797       16.756      868.721
11/13/2013  12:29:00       64.318       68.467       62.445       90.595       93.626       87.355     8207.382     8765.756     7630.829        1.866        1.230       93.939       58.031        0.382      342.066       17.214      868.712
11/13/2013  12:30:00       29.445       90.235      127.871       88.371       79.835       63.021     7809.474     6373.690     3971.655        2.175        0.908       94.918       54.427        0.329      342.027       17.147      868.690
11/13/2013  12:31:00       98.199       84.910       36.206       84.641       50.199       45.737     7164.079     2519.921     2091.888        1.497        0.589      129.818       30.123        0.054      342.014       17.126      868.690
11/13/2013  12:32:00       99.570      126.909       94.759       92.673       60.718       63.316     8588.244     3686.700     4008.866        2.564        0.814      161.307       59.938        0.138      341.843       16.835      868.698
11/13/2013  12:33:00       33.552       21.817       26.078       46.969       59.850       50.595     2206.113     3582.045     2559.876        0.531        0.417       40.022       44.118        1.215      341.951       17.020      868.685
11/13/2013  12:34:00      115.158      143.865       96.116      106.727       83.720       68.699    11390.680     7009.030     4719.583        3.315        1.156      184.279       67.698        0.135      341.889       16.914      868.652
11/13/2013  12:35:00      153.736      116.023       50.778       87.626       56.928       58.497     7678.248     3240.768     3421.860        2.700        0.717      192.604       52.089        0.073      341.856       16.858      868.642
11/13/2013  12:36:00       38.429       94.249      107.621       49.715       50.596       39.092     2471.567     2559.913     1528.150        1.425        0.328      101.782       33.122        0.106      341.985       17.077      868.634
11/13/2013  12:37:00      114.015       35.387       43.336      106.303       62.020       52.334    11300.396     3846.515     2738.862        1.700        0.894      119.380       33.427        0.078      341.866       16.875      868.635
11/13/2013  12:38:00      207.614      111.703       63.770       86.330       69.627       62.984     7452.928     4847.920     3966.968        3.795        0.813      235.756       45.028        0.036      341.800       16.761      868.624
11/13/2013  12:39:00      155.045       86.852       91.840      112.919       90.227       78.905    12750.738     8140.895     6226.054        3.356        1.356      177.714       67.510        0.144      341.895       16.922      868.619
11/13/2013  12:40:00      195.399       88.473       48.032       94.401       80.808       56.430     8911.595     6529.964     3184.337        3.347        0.931      214.495       39.658        0.034      341.988       17.079      868.626
11/13/2013  12:41:00      259.541      141.216       19.174       60.326       68.545       46.818     3639.274     4698.470     2191.914        4.910        0.526      295.472       22.648        0.006      341.887       16.906      868.642
11/13/2013  12:42:00      130.362       80.572       39.168       70.919       46.564       48.500     5029.540     2168.223     2352.205        1.728        0.477      153.252       40.571        0.070      342.138       17.337      868.645
11/13/2013  12:43:00       90.145      100.817       -0.929       55.096       68.301       38.701     3035.568     4665.052     1497.757        1.374        0.460      135.241       34.590        0.065      342.155       17.364      868.663
11/13/2013  12:44:00       26.210      155.390      -18.213       45.960       67.983       35.520     2112.298     4621.642     1261.681        1.658        0.400      157.585       38.646        0.060      341.977       17.064      868.676
11/13/2013  12:45:00       53.029       60.193       14.267       50.772       39.932       38.632     2577.788     1594.604     1492.396        0.615        0.283       80.220       10.304        0.016      342.143       17.347      868.672
11/13/2013  12:46:00       26.487       41.407       18.764       51.251       37.334       30.883     2626.672     1393.791      953.753        0.387        0.249       49.154       26.445        0.289      342.477       17.915      868.652
11/13/2013  12:47:00       85.350       57.850        3.137       68.539       38.015       34.747     4697.630     1445.141     1207.357        0.899        0.368      103.108       26.963        0.068      342.235       17.503      868.615
11/13/2013  12:48:00       28.357       57.416        5.266       51.971       65.057       42.461     2701.029     4232.447     1802.948        0.643        0.437       64.037       24.811        0.150      342.255       17.536      868.604
11/13/2013  12:49:00       84.687       84.193        2.457       68.148       58.674       49.236     4644.200     3442.633     2424.217        1.239        0.526      119.417       35.142        0.087      342.160       17.374      868.601
11/13/2013  12:50:00       87.965      147.595       -6.910       48.178       99.375       50.225     2321.088     9875.309     2522.527        2.214        0.736      171.820       60.015        0.122      341.901       16.935      868.589
11/13/2013  12:51:00       17.535      168.171      -21.333       44.700       53.926       28.149     1998.131     2907.994      792.393        1.737        0.285      169.083       27.490        0.026      341.910       16.950      868.559
11/13/2013  12:52:00       81.613       75.876       44.795       93.272       64.570       61.851     8699.661     4169.325     3825.515        1.556        0.835      111.435       19.395        0.030      342.243       17.515      868.528
11/13/2013  12:53:00      128.472       65.144       33.160       70.866       69.908       51.743     5021.944     4887.181     2677.379        1.721        0.629      144.044       37.614        0.068      342.015       17.129      868.550
11/13/2013  12:54:00       11.533       42.815       70.206       32.160       45.956       36.062     1034.283     2111.930     1300.490        0.567        0.222       44.341       35.391        0.637      342.333       17.669      868.560
11/13/2013  12:55:00       51.561       74.944       94.702       53.483       46.826       33.024     2860.461     2192.706     1090.616        1.169        0.307       90.968       25.962        0.081      342.283       17.586      868.547
11/13/2013  12:56:00       47.877       79.717       83.006       72.499       57.108       55.143     5256.064     3261.276     3040.754        1.355        0.578       92.990       42.760        0.211      342.355       17.707      868.557
11/13/2013  12:57:00      154.738       77.845       31.868       86.436       58.284       39.762     7471.188     3396.982     1581.048        2.173        0.622      173.216       21.368        0.015      342.020       17.136      868.577
11/13/2013  12:58:00       25.245       42.280       66.910       47.591       44.273       35.633     2264.872     1960.125     1269.730        0.620        0.275       49.244       34.811        0.500      342.306       17.624      868.564
11/13/2013  12:59:00       72.531       88.754       65.413      101.486       56.049       47.111    10299.349     3141.496     2219.475        1.654        0.783      114.621       51.700        0.203      342.331       17.664      868.537
11/13/2013  13:00:00      180.043      103.193       31.104       73.969       53.627       58.554     5471.362     2875.835     3428.550        2.790        0.589      207.520       36.659        0.031      342.232       17.495      868.506
11/13/2013  13:01:00       35.935       84.261       72.960       53.262       45.674       73.111     2836.877     2086.157     5345.267        1.199        0.513       91.603       53.418        0.340      342.287       17.590      868.485
11/13/2013  13:02:00       21.717       82.214       91.294       37.040       52.361       30.185     1371.973     2741.623      911.126        1.029        0.251       85.034       31.400        0.136      342.181       17.411      868.469
11/13/2013  13:03:00       45.773       39.857       11.148       41.516       30.832       25.038     1723.555      950.615      626.881        0.355        0.165       60.693       25.473        0.176      342.171       17.394      868.447
11/13/2013  13:04:00       11.217       84.333       -7.640       70.358       46.603       31.998     4950.224     2171.823     1023.871        0.772        0.407       85.076       39.742        0.218      342.194       17.433      868.425
11/13/2013  13:05:00      -13.812       59.618       31.372       51.984       55.473       48.140     2702.343     3077.212     2317.470        0.641        0.405       61.197       47.900        0.613      342.522       17.989      868.416
11/13/2013  13:06:00       25.359       78.629        0.207       67.366       52.866       33.289     4538.146     2794.838     1108.128        0.763        0.422       82.617       33.184        0.161      342.501       17.954      868.398
11/13/2013  13:07:00       32.553       12.429       19.050       52.263       39.280       27.858     2731.397     1542.883      776.044        0.331        0.253       34.845       20.907        0.360      342.577       18.085      868.358
11/13/2013  13:08:00       68.830       25.098       29.142       71.238       41.069       34.285     5074.897     1686.674     1175.438        0.708        0.397       73.263       32.348        0.195      342.474       17.909      868.317
11/13/2013  13:09:00      133.703       89.870       69.535      116.817       74.924       59.267    13646.208     5613.679     3512.571        2.678        1.139      161.100       55.647        0.119      342.412       17.801      868.274
11/13/2013  13:10:00       90.111       83.902       78.561       87.270       66.343       59.952     7616.051     4401.405     3594.233        1.847        0.781      123.125       46.465        0.142      342.430       17.833      868.250
11/13/2013  13:11:00      155.249      104.221       36.381       78.456       66.952       65.733     6155.330     4482.579     4320.834        2.562        0.748      186.988       42.113        0.051      342.351       17.698      868.243
11/13/2013  13:12:00       73.488      105.389       83.036       77.861       47.054       56.132     6062.361     2214.058     3150.844        1.741        0.571      128.481       51.875        0.163      342.507       17.963      868.229
11/13/2013  13:13:00      137.349       92.288       45.168       79.663       38.164       52.640     6346.193     1456.479     2771.019        2.000        0.529      165.475       43.385        0.069      342.364       17.720      868.222
11/13/2013  13:14:00      114.711       74.617       39.456       52.526       45.012       43.272     2759.016     2026.069     1872.473        1.347        0.333      136.844       25.301        0.034      342.321       17.647      868.217
11/13/2013  13:15:00       52.516       67.307       18.433       67.030       52.962       40.840     4492.964     2804.928     1667.936        0.830        0.448       85.371       25.806        0.091      342.244       17.518      868.188
11/13/2013  13:16:00      114.931      106.312       43.073       76.348       67.797       48.697     5829.012     4596.493     2371.388        1.958        0.640      156.561       41.266        0.069      342.472       17.903      868.164
11/13/2013  13:17:00       28.260       72.311       25.458       53.884       69.890       54.941     2903.486     4884.595     3018.567        0.874        0.540       77.637       27.765        0.128      342.540       18.020      868.167
11/13/2013  13:18:00       88.520      213.422      -31.528       74.826      116.411       58.083     5598.938    13551.447     3373.594        3.845        1.126      231.052       55.921        0.059      342.252       17.529      868.178
11/13/2013  13:19:00       66.607       76.959        5.924       53.056       49.108       47.361     2814.955     2411.587     2243.090        0.893        0.373      101.780       32.574        0.102      342.187       17.421      868.188
11/13/2013  13:20:00      129.741       52.167       24.649       47.680       39.157       34.558     2273.410     1533.294     1194.284        1.258        0.250      139.836       23.662        0.029      342.166       17.385      868.169
11/13/2013  13:21:00       67.616       77.197       32.869       79.376       64.063       62.757     6300.557     4104.052     3938.416        1.297        0.717      102.622       54.810        0.285      342.479       17.916      868.154
11/13/2013  13:22:00      102.660       90.078        5.139       51.129       49.071       35.460     2614.189     2408.002     1257.398        1.248        0.314      136.577       28.715        0.044      342.243       17.517      868.159
11/13/2013  13:23:00       38.770       70.422       -4.878       27.036       36.347       26.618      730.948     1321.095      708.515        0.462        0.138       80.389       19.080        0.056      342.187       17.421      868.153
11/13/2013  13:24:00       61.434       51.040        7.279       30.105       23.016       30.828      906.285      529.737      950.382        0.441        0.119       79.870       16.467        0.043      342.124       17.314      868.122
11/13/2013  13:25:00       10.726       43.133        1.707       30.941       23.231       22.634      957.372      539.674      512.290        0.199        0.100       44.447       14.045        0.100      342.252       17.532      868.116
11/13/2013  13:26:00       51.553       61.364       -1.213       59.170       27.902       27.998     3501.109      778.535      783.864        0.574        0.253       80.146       17.996        0.050      342.487       17.930      868.123
11/13/2013  13:27:00       -0.680       89.378       -2.957       27.633       60.592       32.288      763.588     3671.350     1042.539        0.674        0.274       89.381       34.653        0.150      342.593       18.111      868.107
11/13/2013  13:28:00       89.429       23.715       20.987       47.011       73.542       26.380     2210.042     5408.384      695.919        0.866        0.416       92.520       25.531        0.076      342.420       17.817      868.089
11/13/2013  13:29:00       73.672       48.783       59.783       47.244       45.649       37.564     2231.958     2083.844     1411.078        0.855        0.286       88.359       32.589        0.136      342.417       17.811      868.070
11/13/2013  13:30:00       49.489       13.408       -0.154       27.838       23.662       26.713      774.944      559.884      713.607        0.234        0.102       51.273       16.349        0.102      342.498       17.950      868.063
11/13/2013  13:31:00       66.101       84.231       11.292       59.899       61.706       45.631     3587.874     3807.612     2082.196        1.053        0.474      107.071       38.243        0.128      342.520       17.988      868.048
11/13/2013  13:32:00      152.361      108.028       20.096       97.597       66.009       50.287     9525.261     4357.254     2528.778        2.585        0.821      186.773       42.188        0.051      342.425       17.824      868.019
11/13/2013  13:33:00      103.699      117.473       88.325      113.621       74.805       77.504    12909.728     5595.862     6006.876        2.843        1.226      156.695       75.193        0.230      342.500       17.949      867.978
11/13/2013  13:34:00       48.437       66.899        9.235       42.300       40.061       38.124     1789.251     1604.919     1453.440        0.588        0.242       82.593       29.710        0.129      342.357       17.709      867.978
11/13/2013  13:35:00       24.297       38.772       15.639       40.091       24.534       41.089     1607.300      601.927     1688.291        0.312        0.195       45.756       29.139        0.406      342.550       18.038      867.965
11/13/2013  13:36:00      -11.514       50.106       43.587       39.540       52.938       41.359     1563.441     2802.479     1710.591        0.531        0.304       51.412       14.546        0.080      342.805       18.471      867.956
11/13/2013  13:37:00      101.657       65.280       21.743       69.718       40.944       43.766     4860.595     1676.382     1915.433        1.176        0.423      120.812       26.640        0.049      342.473       17.907      867.960
11/13/2013  13:38:00       80.915       68.714       28.302       49.957       35.449       32.841     2495.653     1256.644     1078.553        0.845        0.242      106.155       17.005        0.026      342.272       17.565      867.967
11/13/2013  13:39:00       34.893        0.001       53.487       47.219       74.018       45.864     2229.647     5478.625     2103.543        0.694        0.491       34.893       46.582        1.782      342.533       18.007      867.965
11/13/2013  13:40:00      147.130      111.458       64.989       40.646       38.086       46.098     1652.128     1450.565     2125.038        2.176        0.261      184.581       30.959        0.028      342.207       17.454      867.978
11/13/2013  13:41:00       37.339       17.234       18.750       43.971       33.263       42.506     1933.444     1106.442     1806.765        0.344        0.242       41.124       22.117        0.289      342.450       17.868      867.997
11/13/2013  13:42:00      -10.096       -2.099       12.864       18.182       20.342       17.919      330.581      413.810      321.084        0.067        0.053       10.312       14.564        1.995      342.960       18.734      867.991
11/13/2013  13:43:00        5.958       14.736       32.580       18.953       28.892       18.545      359.201      834.759      343.923        0.143        0.077       15.895       13.835        0.758      342.824       18.506      867.992
11/13/2013  13:44:00       27.921      -39.988       -5.708       19.184       22.441       23.796      368.037      503.577      566.268        0.192        0.072       48.771       17.866        0.134      342.276       17.572      867.990
11/13/2013  13:45:00        0.905      -17.617        2.182       13.416       22.981       14.207      179.995      528.126      201.850        0.061        0.045       17.640       14.319        0.659      342.641       18.194      867.963
11/13/2013  13:46:00        6.676       -1.372        9.669       16.097       17.808       17.925      259.113      317.115      321.307        0.052        0.045        6.816       12.191        3.199      342.810       18.480      867.964
11/13/2013  13:47:00       -7.216       21.302       39.907       17.506       22.078       14.088      306.453      487.459      198.467        0.155        0.050       22.491        4.833        0.046      342.894       18.623      867.951
11/13/2013  13:48:00       -5.907       15.969       10.654       28.498       44.712       32.519      812.131     1999.132     1057.457        0.214        0.193       17.026       18.288        1.154      342.704       18.300      867.947
11/13/2013  13:49:00      -46.826      129.195      -12.662       52.088      100.897       43.303     2713.185    10180.157     1875.149        1.690        0.738      137.419       44.201        0.103      342.669       18.239      867.933
11/13/2013  13:50:00       17.373       30.572       13.926       57.050      110.904       39.981     3254.681    12299.788     1598.509        0.929        0.858       35.163       33.509        0.908      342.874       18.589      867.929
11/13/2013  13:51:00       20.332       40.349       40.989       27.190       32.294       35.349      739.288     1042.887     1249.528        0.338        0.152       45.183       22.914        0.257      342.889       18.614      867.945
11/13/2013  13:52:00       21.270       -3.675       21.976       39.465       36.015       26.709     1557.490     1297.063      713.359        0.226        0.178       21.585       17.405        0.650      343.005       18.813      867.973
11/13/2013  13:53:00        7.103       54.688       76.277       46.114       58.100       36.729     2126.467     3375.589     1348.995        0.785        0.343       55.147       32.920        0.356      342.817       18.492      867.994
11/13/2013  13:54:00      140.067       91.331        7.961       43.251       35.570       40.043     1870.627     1265.189     1603.411        1.638        0.237      167.213       25.208        0.023      342.400       17.782      868.024
11/13/2013  13:55:00      153.324       97.221       18.296       40.177       31.187       35.618     1614.213      972.658     1268.676        1.857        0.193      181.550       16.801        0.009      342.484       17.925      868.027
11/13/2013  13:56:00       35.324       72.772        7.941       39.647       47.098       33.998     1571.865     2218.261     1155.889        0.578        0.247       80.892       28.046        0.120      342.626       18.167      868.024
11/13/2013  13:57:00       38.099       32.881       13.002       33.418       23.445       20.562     1116.780      549.654      422.816        0.240        0.104       50.326       14.565        0.084      342.748       18.375      868.020
11/13/2013  13:58:00       11.435       22.069       14.735       27.806       44.710       27.086      773.163     1998.980      733.665        0.217        0.175       24.855       31.126        1.568      342.954       18.725      868.022
11/13/2013  13:59:00       -5.647      -58.659        0.719       33.725       54.604       26.721     1137.347     2981.599      714.004        0.415        0.242       58.930       23.901        0.164      342.819       18.497      868.015
11/13/2013  14:00:00        5.339       58.142       -2.742       31.374       36.303       22.704      984.341     1317.892      515.456        0.312        0.141       58.387       13.629        0.054      342.820       18.498      868.018
11/13/2013  14:01:00       36.220       86.769        3.414       43.533       42.855       38.732     1895.134     1836.590     1500.197        0.704        0.262       94.025       31.481        0.112      342.810       18.479      868.037
11/13/2013  14:02:00       74.334       93.929        3.454       53.031       56.272       43.070     2812.270     3166.544     1855.048        1.110        0.392      119.784       32.077        0.072      342.452       17.869      868.051
11/13/2013  14:03:00       65.797       67.930       20.198       35.381       31.380       35.639     1251.814      984.698     1270.114        0.643        0.175       94.571       23.444        0.061      342.540       18.022      868.051
11/13/2013  14:04:00       84.297       97.799       70.422       78.366       64.424       64.178     6141.159     4150.513     4118.762        1.802        0.721      129.115       62.254        0.232      342.523       17.992      868.053
11/13/2013  14:05:00       74.048       69.135       67.113       58.035       63.655       44.761     3368.084     4051.993     2003.591        1.209        0.471      101.306       40.180        0.157      342.726       18.336      868.036
11/13/2013  14:06:00      110.882       77.244       61.740      122.495      113.996       81.387    15005.057    12995.173     6623.822        2.834        1.731      135.135       81.798        0.366      342.665       18.233      868.040
11/13/2013  14:07:00       47.981      -62.271       25.845       68.540      117.055       81.826     4697.701    13701.768     6695.417        1.597        1.255       78.612       82.200        1.093      342.820       18.497      868.043
11/13/2013  14:08:00       58.633       43.819       26.518       59.542       96.863       57.618     3545.234     9382.413     3319.801        1.115        0.812       73.198       34.445        0.221      342.769       18.409      868.082
11/13/2013  14:09:00       30.926       46.484       69.311       46.455       64.589       35.409     2158.082     4171.687     1253.769        0.775        0.379       55.831       32.989        0.349      342.903       18.639      868.122
11/13/2013  14:10:00       80.804       48.604       38.510       83.030       59.346       55.726     6894.062     3521.969     3105.385        1.195        0.676       94.295       39.064        0.172      342.813       18.484      868.125
11/13/2013  14:11:00       62.360      145.083      -20.172       58.827       92.488       45.065     3460.611     8554.107     2030.887        1.969        0.702      157.917       48.295        0.094      342.465       17.891      868.122
11/13/2013  14:12:00       48.822      183.623      -35.885       59.260       65.820       21.267     3511.754     4332.324      452.282        2.284        0.415      190.003       21.084        0.012      342.321       17.649      868.113
11/13/2013  14:13:00       14.676      127.104      -14.535       34.637       46.884       30.258     1199.752     2198.063      915.555        1.045        0.216      127.949       23.601        0.034      342.415       17.809      868.100
11/13/2013  14:14:00       26.540       27.859       23.530       18.687       20.993       22.714      349.187      440.711      515.939        0.167        0.065       38.477       15.504        0.162      342.604       18.128      868.095
11/13/2013  14:15:00       45.176       49.345       -3.070       47.049       46.941       28.555     2213.610     2203.481      815.366        0.486        0.262       66.902       12.179        0.033      342.595       18.115      868.086
11/13/2013  14:16:00       61.691      -30.293       18.048       61.943       46.361       35.612     3836.933     2149.387     1268.239        0.615        0.363       68.727       34.935        0.258      342.738       18.358      868.089
11/13/2013  14:17:00       30.947      -23.244       -5.944       34.269       28.421       19.624     1174.355      807.778      385.120        0.195        0.118       38.704       16.268        0.177      342.706       18.303      868.082
11/13/2013  14:18:00       36.663       35.045        1.295       25.527       27.144       24.857      651.634      736.777      617.855        0.229        0.100       50.718       14.727        0.084      342.734       18.351      868.089
11/13/2013  14:19:00       64.317       29.292       29.203       27.855       22.497       21.512      775.876      506.095      462.766        0.380        0.087       70.673       16.091        0.052      342.730       18.343      868.100
11/13/2013  14:20:00       66.604       20.246        6.208       44.835       58.686       39.379     2010.145     3443.995     1550.673        0.594        0.350       69.613       26.134        0.141      342.777       18.424      868.102
11/13/2013  14:21:00       83.036       58.614       25.638       54.525       49.449       35.075     2973.026     2445.170     1230.283        0.882        0.332      101.639       17.525        0.030      342.714       18.318      868.107
11/13/2013  14:22:00      158.936      104.900       16.061       42.779       43.626       33.491     1830.041     1903.228     1121.629        2.069        0.243      190.433       10.097        0.003      342.449       17.864      868.120
11/13/2013  14:23:00      120.946       67.993       26.244       41.301       38.307       35.264     1705.767     1467.414     1243.564        1.218        0.221      138.748        9.292        0.004      342.414       17.808      868.109
11/13/2013  14:24:00       16.485       45.994       13.100       53.256       29.630       28.869     2836.226      877.955      833.399        0.355        0.227       48.859       17.267        0.125      342.606       18.132      868.078
11/13/2013  14:25:00        9.074       31.740        1.517       22.673       35.859       14.303      514.074     1285.889      204.588        0.155        0.100       33.011       15.458        0.219      342.811       18.484      868.049
11/13/2013  14:26:00      115.281       86.853       13.107       51.744       40.232       33.918     2677.490     1618.602     1150.408        1.322        0.272      144.337       25.368        0.031      342.536       18.015      868.048
11/13/2013  14:27:00       57.663       70.207        9.343       31.041       53.784       36.312      963.522     2892.724     1318.560        0.676        0.259       90.852       31.252        0.118      342.536       18.013      868.057
11/13/2013  14:28:00        9.465      111.609       -9.365       28.906       62.428       25.162      835.538     3897.289      633.125        0.900        0.268      112.010       29.716        0.070      342.591       18.108      868.065
11/13/2013  14:29:00        8.792      120.211       -3.694       37.005       36.780       31.285     1369.336     1352.772      978.743        0.912        0.185      120.532       24.176        0.040      342.639       18.189      868.054
11/13/2013  14:30:00       -8.661       27.538       15.474       27.757       36.553       22.780      770.472     1336.099      518.950        0.185        0.131       28.868        8.510        0.087      342.794       18.454      868.049
11/13/2013  14:31:00      -14.648       26.013       15.535       22.059       23.223       23.559      486.582      539.311      555.045        0.136        0.079       29.853       11.631        0.152      342.786       18.439      868.056
11/13/2013  14:32:00        8.664        9.402       11.773       14.545        7.788       10.564      211.570       60.655      111.604        0.034        0.019       12.785        9.124        0.509      342.908       18.648      868.046
11/13/2013  14:33:00       -0.029      -31.522        2.824       16.553       34.425       22.522      274.011     1185.051      507.225        0.148        0.098       31.522       15.774        0.250      342.830       18.515      868.013
11/13/2013  14:34:00       31.542       -7.469        6.622       56.723       54.406       31.983     3217.535     2959.973     1022.913        0.415        0.360       32.415       21.397        0.436      342.887       18.611      867.982
11/13/2013  14:35:00       84.661       70.728       75.160       89.903       61.352       54.641     8082.587     3764.015     2985.635        1.632        0.742      110.318       44.546        0.163      342.661       18.226      867.958
11/13/2013  14:36:00       55.470       45.064       28.394       45.540       51.648       39.792     2073.854     2667.514     1583.367        0.612        0.316       71.468       24.316        0.116      342.689       18.275      867.955
11/13/2013  14:37:00       34.760       48.832       53.329       61.383       47.988       51.142     3767.867     2302.876     2615.462        0.756        0.434       59.940       41.572        0.481      342.714       18.318      867.932
11/13/2013  14:38:00        4.433       49.730       66.064       42.686       40.378       49.897     1822.069     1630.352     2489.759        0.640        0.297       49.927       33.411        0.448      342.891       18.618      867.915
11/13/2013  14:39:00       53.778       14.511       31.438       33.737       54.006       34.244     1138.163     2916.629     1172.643        0.466        0.261       55.701       32.902        0.349      342.582       18.093      867.929
11/13/2013  14:40:00       97.538       61.114       25.268       38.363       31.987       33.601     1471.739     1023.147     1129.045        0.875        0.181      115.103       26.745        0.054      342.561       18.056      867.948
11/13/2013  14:41:00       89.143       48.124       32.955       66.347       45.165       40.540     4401.893     2039.882     1643.477        0.972        0.404      101.303       41.234        0.166      342.597       18.118      867.946
11/13/2013  14:42:00      107.600       99.097       38.010       67.270       46.990       47.286     4525.214     2208.075     2236.004        1.590        0.448      146.281       31.662        0.047      342.647       18.202      867.922
11/13/2013  14:43:00      161.776      121.137       40.059       96.884       54.572       47.230     9386.485     2978.078     2230.632        2.852        0.730      202.103       36.911        0.033      342.561       18.054      867.906
11/13/2013  14:44:00      199.126      143.428       20.343       64.885       52.132       51.222     4210.114     2717.736     2623.742        3.509        0.478      245.403       32.447        0.017      342.582       18.089      867.897
11/13/2013  14:45:00      134.773      100.395       18.633       70.841       49.783       36.938     5018.411     2478.390     1364.447        1.872        0.443      168.056       18.518        0.012      342.638       18.186      867.878
11/13/2013  14:46:00      101.923       92.218       11.032       71.892       40.631       28.795     5168.478     1650.863      829.143        1.333        0.382      137.450       18.022        0.017      342.529       18.001      867.855
11/13/2013  14:47:00       41.743       47.811        6.040       67.782       59.423       35.555     4594.427     3531.126     1264.173        0.673        0.469       63.470       26.381        0.173      342.680       18.258      867.842
11/13/2013  14:48:00      155.904      106.840        7.188       67.613       48.278       36.526     4571.545     2330.737     1334.171        2.200        0.412      189.000       24.333        0.017      342.520       17.984      867.853
11/13/2013  14:49:00       47.665       76.357       -4.733       61.288       38.852       30.410     3756.250     1509.487      924.782        0.716        0.310       90.013       21.080        0.055      342.590       18.107      867.841
11/13/2013  14:50:00       75.277       67.698        7.056       54.893       41.369       33.348     3013.233     1711.412     1112.091        0.807        0.292      101.241       30.255        0.089      342.536       18.016      867.827
11/13/2013  14:51:00      125.723       86.376        9.643       28.433       33.708       27.211      808.434     1136.257      740.424        1.302        0.134      152.535       16.565        0.012      342.530       18.003      867.824
11/13/2013  14:52:00       35.610       67.568        9.179       71.483       51.060       35.435     5109.834     2607.075     1255.673        0.744        0.449       76.378       26.786        0.123      342.650       18.208      867.844
11/13/2013  14:53:00       19.146      119.771      -14.131       38.818       47.025       35.551     1506.842     2211.364     1263.896        0.995        0.249      121.291       33.213        0.075      342.591       18.106      867.856
11/13/2013  14:54:00       61.631       43.948        9.744       49.923       38.614       23.546     2492.271     1491.008      554.422        0.518        0.227       75.696       18.451        0.059      342.598       18.120      867.835
11/13/2013  14:55:00       84.077       66.859       -0.797       57.354       35.602       32.109     3289.532     1267.487     1031.018        0.856        0.279      107.420       21.689        0.041      342.580       18.089      867.802
11/13/2013  14:56:00       38.627       40.648        0.572       44.853       22.232       21.276     2011.807      494.242      452.670        0.305        0.148       56.074       11.347        0.041      342.503       17.958      867.779
11/13/2013  14:57:00      -11.947       10.275       -9.461       13.709        8.647        8.606      187.928       74.764       74.056        0.034        0.017       15.757        3.664        0.054      342.587       18.101      867.789
11/13/2013  14:58:00        3.118       23.195       -4.517       14.390       21.713       16.440      207.078      471.462      270.274        0.076        0.047       23.403       12.818        0.300      342.777       18.423      867.804
11/13/2013  14:59:00      -44.962       37.712      -14.008       28.406       16.482       17.456      806.900      271.650      304.713        0.251        0.069       58.684       15.617        0.071      342.877       18.595      867.821
11/13/2013  15:00:00        2.387       67.664       -2.589       45.852       28.168       19.353     2102.396      793.413      374.530        0.393        0.164       67.706       24.487        0.131      342.858       18.562      867.843
11/13/2013  15:01:00       89.434       43.615       32.258       78.270       62.857       54.030     6126.172     3951.017     2919.258        1.197        0.650       99.502       48.127        0.234      342.731       18.344      867.854
11/13/2013  15:02:00      136.559       53.210       60.195       77.057       64.530       57.250     5937.812     4164.137     3277.592        1.924        0.669      146.559       50.075        0.117      342.656       18.217      867.853
11/13/2013  15:03:00      106.927      100.366       55.977       59.950       43.713       59.181     3594.048     1910.867     3502.342        1.682        0.450      146.652       38.724        0.070      342.685       18.267      867.885
11/13/2013  15:04:00       76.650       67.184       52.137       72.046       44.745       49.016     5190.693     2002.084     2402.546        1.135        0.480      101.926       43.819        0.185      342.679       18.256      867.926
11/13/2013  15:05:00       -1.445       65.648       92.314       47.759       46.305       40.941     2280.949     2144.187     1676.166        0.947        0.305       65.664       34.847        0.282      342.734       18.351      867.925
11/13/2013  15:06:00       85.410       71.921        8.347       67.758       57.155       42.356     4591.087     3266.663     1794.025        1.109        0.483      111.658       26.192        0.055      342.682       18.262      867.938
11/13/2013  15:07:00       69.214       83.657       -5.526       50.418       68.779       37.023     2542.014     4730.516     1370.703        1.023        0.432      108.577       30.092        0.077      342.646       18.199      867.933
11/13/2013  15:08:00       55.554        2.677        5.171       30.244       22.332       22.088      914.719      498.732      487.859        0.251        0.095       55.618        6.768        0.015      342.659       18.224      867.913
11/13/2013  15:09:00        6.526        8.596       14.093       17.100       25.662       19.477      292.420      658.555      379.371        0.082        0.067       10.793       18.222        2.851      342.846       18.541      867.886
11/13/2013  15:10:00        1.844       59.213       -3.075       33.935       32.148       17.417     1151.582     1033.499      303.336        0.300        0.124       59.242       20.125        0.115      342.690       18.276      867.880
11/13/2013  15:11:00       50.210       75.608      -11.642       41.091       49.930       26.428     1688.475     2493.020      698.446        0.663        0.244       90.762       29.686        0.107      342.652       18.211      867.876
11/13/2013  15:12:00       53.620      106.962      -15.852       45.645       75.606       32.459     2083.508     5716.312     1053.576        1.171        0.443      119.649       37.263        0.097      342.587       18.100      867.877
11/13/2013  15:13:00       26.554       95.601      -21.589       27.534       35.866       18.468      758.139     1286.348      341.068        0.635        0.119       99.220       20.638        0.043      342.628       18.171      867.906
11/13/2013  15:14:00       54.170       33.045      -14.443       32.919       27.858       25.603     1083.662      776.056      655.503        0.337        0.126       63.454       15.045        0.056      342.640       18.190      867.934
11/13/2013  15:15:00       45.402       -3.898       14.673       28.680       38.783       18.744      822.521     1504.139      351.343        0.248        0.134       45.569       20.374        0.200      342.654       18.214      867.949
11/13/2013  15:16:00       -8.055       -5.958       -8.247       22.507       30.864       21.003      506.585      952.573      441.140        0.103        0.095       10.019       13.343        1.774      342.750       18.379      867.945
11/13/2013  15:17:00       -4.741        7.727       12.628       27.188       28.055       16.995      739.182      787.093      288.833        0.103        0.091        9.065       16.211        3.198      342.802       18.467      867.942
11/13/2013  15:18:00        9.780       89.200      -16.407       25.408       65.291       27.011      645.543     4262.877      729.577        0.698        0.282       89.735       36.327        0.164      342.734       18.352      867.939
11/13/2013  15:19:00       26.129       64.533       -7.439       36.882       42.455       22.963     1360.286     1802.418      527.280        0.430        0.184       69.622       19.740        0.080      342.584       18.095      867.942
11/13/2013  15:20:00       36.795       57.535        1.521       45.200       26.959       21.416     2043.032      726.790      458.660        0.395        0.161       68.295       19.526        0.082      342.612       18.144      867.944
11/13/2013  15:21:00       30.294      144.719      -22.571       28.981       36.622       23.313      839.905     1341.191      543.492        1.255        0.136      147.856       23.090        0.024      342.714       18.317      867.949
11/13/2013  15:22:00       31.751       52.746       -3.417       45.971       38.187       20.340     2113.343     1458.245      413.696        0.389        0.199       61.565       10.483        0.029      342.757       18.390      867.961
11/13/2013  15:23:00      112.692       68.677        2.703       49.054       36.130       35.656     2406.273     1305.350     1271.382        1.120        0.249      131.970       22.688        0.030      342.609       18.138      867.970
11/13/2013  15:24:00       63.025       46.453       24.712       41.767       26.965       20.575     1744.458      727.124      423.333        0.482        0.145       78.294       16.522        0.045      342.655       18.218      867.958
11/13/2013  15:25:00       47.874       15.157       36.559       55.366       28.947       26.100     3065.413      837.945      681.226        0.422        0.229       50.216       16.508        0.108      342.660       18.224      867.936
11/13/2013  15:26:00       38.462       18.158       28.194       25.258       23.366       20.979      637.951      545.977      440.133        0.211        0.081       42.533        7.891        0.034      342.710       18.310      867.919
11/13/2013  15:27:00       38.127       -6.776       17.618       24.063       40.912       25.109      579.005     1673.796      630.474        0.235        0.144       38.724       26.340        0.463      342.694       18.282      867.903
11/13/2013  15:28:00       98.134       61.218       12.809       35.850       21.446       31.874     1285.201      459.914     1015.975        0.815        0.138      115.663        8.216        0.005      342.612       18.144      867.893
11/13/2013  15:29:00       95.723       65.110       10.446       56.602       38.554       27.472     3203.789     1486.397      754.703        0.948        0.272      115.768       23.911        0.043      342.536       18.013      867.866
11/13/2013  15:30:00       48.105       51.893       -5.230       30.143       30.314       18.371      908.591      918.950      337.500        0.360        0.108       70.760       15.862        0.050      342.546       18.032      867.835
11/13/2013  15:31:00       15.285       13.921        2.376       24.874       15.725       13.831      618.727      247.274      191.283        0.074        0.053       20.674        6.684        0.105      342.640       18.191      867.822
11/13/2013  15:32:00       29.210       43.384       -6.233       30.019       37.681       25.453      901.163     1419.881      647.842        0.287        0.148       52.301       21.424        0.168      342.717       18.320      867.852
11/13/2013  15:33:00       31.744       52.310       -6.011       46.714       51.109       28.969     2182.173     2612.135      839.215        0.471        0.282       61.189       24.053        0.155      342.688       18.272      867.892
11/13/2013  15:34:00       49.438       99.108      -24.288       27.978       24.940       16.258      782.776      622.002      264.322        0.726        0.083      110.755       10.351        0.009      342.622       18.160      867.932
11/13/2013  15:35:00       57.524       71.498       -2.141       53.005       31.085       28.318     2809.518      966.263      801.887        0.650        0.229       91.766       20.324        0.049      342.627       18.168      867.968
11/13/2013  15:36:00       84.950       79.106        9.870       51.958       49.750       34.012     2699.611     2475.085     1156.812        0.995        0.317      116.079       29.165        0.063      342.598       18.118      867.966
11/13/2013  15:37:00      121.123       73.339       19.168       59.067       52.165       37.428     3488.968     2721.162     1400.876        1.401        0.381      141.596       29.727        0.044      342.564       18.062      867.953
11/13/2013  15:38:00       64.700       68.256       15.402       54.079       34.434       42.342     2924.576     1185.686     1792.872        0.749        0.295       94.048       28.249        0.090      342.671       18.244      867.973
11/13/2013  15:39:00       43.184      134.633      -25.390       34.561       42.599       22.358     1194.468     1814.653      499.859        1.207        0.175      141.389       18.054        0.016      342.653       18.213      867.995
11/13/2013  15:40:00       53.138       86.795       -5.588       30.003       43.314       34.282      900.204     1876.128     1175.285        0.717        0.198      101.770       26.197        0.066      342.583       18.094      867.998
11/13/2013  15:41:00       42.308       51.458       -6.642       36.109       30.363       25.474     1303.895      921.931      648.909        0.368        0.144       66.617       19.467        0.085      342.614       18.147      868.000
11/13/2013  15:42:00       29.514       51.997       13.907       37.176       28.405       20.718     1382.041      806.816      429.235        0.319        0.131       59.789       18.413        0.095      342.649       18.208      868.021
11/13/2013  15:43:00       96.819       56.046       28.860       97.227       53.062       45.302     9453.103     2815.625     2052.301        1.383        0.716      111.871       28.807        0.066      342.578       18.084      868.012
11/13/2013  15:44:00       21.369       76.112      -15.826       57.731       67.205       26.096     3332.907     4516.532      680.996        0.751        0.427       79.055       33.898        0.184      342.648       18.204      868.019
11/13/2013  15:45:00       29.739      152.609      -11.727       65.031       71.066       51.625     4229.079     5050.433     2665.168        1.813        0.597      155.479       39.267        0.064      342.596       18.114      868.049
11/13/2013  15:46:00       81.264      236.406      -36.810       87.070      122.511       62.681     7581.190    15008.914     3928.942        4.518        1.326      249.983       61.804        0.061      342.486       17.927      868.035
11/13/2013  15:47:00       60.207      260.844      -32.896       59.709       92.236       51.402     3565.142     8507.408     2642.140        4.373        0.736      267.703       51.558        0.037      342.459       17.881      868.060
11/13/2013  15:48:00       34.436      158.016      -26.546       53.569      105.913       46.221     2869.680    11217.520     2136.385        2.154        0.811      161.725       59.090        0.133      342.500       17.950      868.087
11/13/2013  15:49:00       -1.248      136.939      -13.596       70.712       88.731       45.806     5000.142     7873.152     2098.168        1.695        0.749      136.944       57.517        0.176      342.612       18.142      868.099
11/13/2013  15:50:00       25.853      145.459      -27.936       34.946       63.928       23.625     1221.253     4086.758      558.144        1.424        0.293      147.739       30.468        0.043      342.526       17.998      868.092
11/13/2013  15:51:00       65.225       43.807       14.990       65.274       39.543       29.740     4260.736     1563.615      884.446        0.655        0.335       78.571       26.694        0.115      342.485       17.927      868.092
11/13/2013  15:52:00      108.479      147.190      -10.968       55.508       95.590       44.476     3081.168     9137.373     1978.082        2.387        0.710      182.846       44.901        0.060      342.490       17.934      868.078
11/13/2013  15:53:00       55.668      158.447      -14.421       52.751      107.044       51.469     2782.692    11458.354     2649.063        2.265        0.845      167.942       62.071        0.137      342.483       17.922      868.061
11/13/2013  15:54:00       87.770      150.532        1.359       79.396      122.595       74.159     6303.755    15029.424     5499.588        2.859        1.342      174.251       79.826        0.210      342.440       17.848      868.037
11/13/2013  15:55:00       42.316      128.906      -10.390       67.432       88.046       46.800     4547.088     7752.094     2190.215        1.650        0.724      135.674       47.341        0.122      342.407       17.792      868.015
11/13/2013  15:56:00       81.203      196.196      -29.348       67.902       96.842       51.289     4610.746     9378.371     2630.553        3.128        0.831      212.337       56.793        0.072      342.383       17.752      867.980
11/13/2013  15:57:00       87.828      212.625      -21.955       79.993      109.284       68.130     6398.888    11942.940     4641.728        3.819        1.149      230.050       63.418        0.076      342.369       17.726      867.953
11/13/2013  15:58:00       79.123      175.240      -16.373       72.401       83.018       56.910     5241.858     6892.012     3238.772        2.630        0.769      192.274       52.012        0.073      342.364       17.718      867.922
11/13/2013  15:59:00       86.039      201.065      -18.015       58.192      108.165       61.536     3386.314    11699.688     3786.703        3.351        0.944      218.701       64.992        0.088      342.364       17.718      867.897
11/13/2013  16:00:00       46.669      101.572        4.998       82.909       70.696       49.636     6873.869     4997.888     2463.710        1.342        0.717      111.780       30.479        0.074      342.338       17.677      867.895
11/13/2013  16:01:00       83.096      218.981      -33.609       61.226       86.058       48.464     3748.635     7405.979     2348.715        3.474        0.675      234.217       46.368        0.039      342.326       17.654      867.889
11/13/2013  16:02:00       80.605      113.497      -12.979       61.643       80.538       39.787     3799.876     6486.300     1583.004        1.571        0.593      139.208       39.643        0.081      342.284       17.584      867.878
11/13/2013  16:03:00      -30.943      194.880      -35.651       48.158      116.731       33.499     2319.193    13626.210     1122.164        2.863        0.853      197.321       50.484        0.065      342.261       17.544      867.863
11/13/2013  16:04:00       50.935       91.822       -8.767       45.934       67.634       36.678     2109.945     4574.423     1345.281        0.956        0.401      105.003       36.181        0.119      342.243       17.516      867.842
11/13/2013  16:05:00       10.709      132.801      -17.663       55.539       60.182       41.988     3084.573     3621.852     1762.987        1.326        0.423      133.232       32.583        0.060      342.243       17.516      867.815
11/13/2013  16:06:00       15.127       88.837      -16.130       50.254       56.795       26.056     2525.471     3225.687      678.897        0.740        0.322       90.116       21.602        0.057      342.252       17.531      867.808
11/13/2013  16:07:00       50.289      111.275      -11.969       51.209       71.381       41.499     2622.397     5095.268     1722.165        1.225        0.472      122.111       40.965        0.113      342.198       17.438      867.827
11/13/2013  16:08:00       43.444      127.737      -15.738       36.896       55.216       33.394     1361.320     3048.785     1115.172        1.199        0.276      134.922       27.123        0.040      342.230       17.492      867.854
11/13/2013  16:09:00       74.619      193.032      -34.914       52.329       83.529       47.432     2738.289     6977.109     2249.825        2.800        0.598      206.953       46.314        0.050      342.201       17.442      867.877
11/13/2013  16:10:00       62.568      202.193      -28.141       57.338      111.512       49.721     3287.635    12434.879     2472.191        3.189        0.910      211.653       59.408        0.079      342.157       17.368      867.874
11/13/2013  16:11:00       50.649       76.503        7.774       57.656       49.178       41.219     3324.164     2418.456     1699.018        0.796        0.372       91.750       25.549        0.078      342.112       17.293      867.861
11/13/2013  16:12:00        2.432      103.362      -15.689       58.719       49.716       37.735     3447.919     2471.672     1423.903        0.914        0.367      103.390       27.650        0.072      342.143       17.345      867.851
11/13/2013  16:13:00       44.065      135.185      -27.072       50.180       61.918       31.415     2518.063     3833.783      986.904        1.414        0.367      142.186       30.939        0.047      342.120       17.307      867.851
11/13/2013  16:14:00       28.113      171.246      -26.480       42.297       55.428       30.735     1789.038     3072.249      944.642        1.831        0.290      173.539       26.532        0.023      342.125       17.314      867.851
11/13/2013  16:15:00       17.716      194.634      -24.114       84.294      109.387       41.635     7105.492    11965.580     1733.458        2.979        1.040      195.439       57.824        0.088      342.073       17.225      867.845
11/13/2013  16:16:00       31.520      203.227      -32.122       84.360       78.295       44.581     7116.565     6130.075     1987.431        2.928        0.762      205.657       40.734        0.039      342.030       17.154      867.833
11/13/2013  16:17:00       46.835      200.894      -22.405       62.346       91.103       51.777     3886.980     8299.817     2680.903        2.896        0.743      206.281       49.941        0.059      342.040       17.167      867.817
11/13/2013  16:18:00       51.926      131.763      -18.870       50.534       76.363       37.618     2553.680     5831.285     1415.125        1.510        0.490      141.625       41.554        0.086      342.024       17.142      867.812
11/13/2013  16:19:00       50.396      146.637      -14.552       53.609       75.137       42.437     2873.876     5645.627     1800.875        1.729        0.516      155.055       45.257        0.085      341.992       17.089      867.818
11/13/2013  16:20:00       46.057      149.952      -18.312       53.258       64.015       44.469     2836.370     4097.866     1977.473        1.693        0.446      156.866       39.662        0.064      341.998       17.100      867.834
11/13/2013  16:21:00       37.378      150.300      -25.725       44.528       47.846       33.420     1982.738     2289.281     1116.870        1.502        0.269      154.878       30.817        0.040      341.977       17.065      867.842
11/13/2013  16:22:00       78.067      135.581      -11.494       60.180       62.650       49.560     3621.656     3925.056     2456.161        1.730        0.500      156.450       44.825        0.082      341.949       17.017      867.833
11/13/2013  16:23:00       35.575      112.598      -23.489       49.628       60.044       27.115     2462.963     3605.313      735.248        1.065        0.340      118.084       23.688        0.040      341.937       16.996      867.817
11/13/2013  16:24:00       44.044      129.592      -16.877       51.415       80.166       37.924     2643.538     6426.522     1438.262        1.476        0.525      136.872       34.449        0.063      341.867       16.878      867.814
11/13/2013  16:25:00       54.619      155.158      -16.858       72.516       76.481       48.090     5258.592     5849.267     2312.669        2.038        0.671      164.491       41.220        0.063      341.858       16.861      867.817
11/13/2013  16:26:00       57.339      134.959      -16.419       46.860       91.270       41.854     2195.837     8330.235     1751.765        1.702        0.614      146.635       51.990        0.126      341.852       16.851      867.834
11/13/2013  16:27:00       38.593      130.802      -19.962       36.751       81.723       34.743     1350.663     6678.582     1207.081        1.411        0.462      136.377       41.270        0.092      341.862       16.868      867.841
11/13/2013  16:28:00       69.494      153.679      -14.953       59.942       89.291       53.577     3593.049     7972.942     2870.444        2.155        0.722      168.661       52.042        0.095      341.841       16.832      867.820
11/13/2013  16:29:00       49.510       75.190      -13.446       52.092       50.906       30.546     2713.532     2591.408      933.052        0.726        0.312       90.026       29.435        0.107      341.773       16.719      867.791
11/13/2013  16:30:00       46.828       95.057       -1.145       67.706       77.178       50.100     4584.121     5956.471     2510.060        1.214        0.653      105.966       44.683        0.178      341.800       16.762      867.773
11/13/2013  16:31:00       58.959      110.513      -21.335       63.938       70.545       35.048     4088.034     4976.619     1228.371        1.322        0.515      125.256       36.180        0.083      341.764       16.703      867.789
11/13/2013  16:32:00       23.118      130.907      -18.789       37.844       64.957       23.098     1432.174     4219.418      533.496        1.210        0.309      132.932       23.843        0.032      341.762       16.698      867.823
11/13/2013  16:33:00       44.300      171.115      -34.100       38.348       38.535       26.487     1470.605     1484.974      701.565        1.803        0.183      176.757       23.147        0.017      341.762       16.699      867.842
11/13/2013  16:34:00       27.622      129.883      -20.485       43.000       59.551       31.587     1848.971     3546.373      997.739        1.222        0.320      132.788       31.962        0.058      341.738       16.659      867.830
11/13/2013  16:35:00       -4.218      123.181      -25.327       31.029       62.813       19.450      962.820     3945.496      378.311        1.056        0.264      123.254       20.224        0.027      341.746       16.673      867.811
11/13/2013  16:36:00       28.948      102.921      -13.981       46.370       64.625       32.364     2150.171     4176.404     1047.420        0.950        0.369      106.915       28.245        0.070      341.676       16.555      867.799
11/13/2013  16:37:00       41.923      119.227      -21.687       50.272       57.798       27.169     2527.278     3340.569      738.144        1.152        0.330      126.383       25.962        0.042      341.657       16.524      867.792
11/13/2013  16:38:00       30.856      119.135      -14.140       36.614       51.038       39.599     1340.583     2604.907     1568.082        1.043        0.276      123.066       35.808        0.085      341.635       16.484      867.790
11/13/2013  16:39:00       14.830      117.277      -21.498       47.988       66.164       18.389     2302.857     4377.705      338.169        1.073        0.351      118.211       20.683        0.031      341.659       16.526      867.800
11/13/2013  16:40:00        9.098      210.935      -38.399       43.802       60.146       26.724     1918.585     3617.531      714.158        2.615        0.313      211.131       26.113        0.015      341.709       16.607      867.800
11/13/2013  16:41:00       20.221      161.071      -14.693       56.494       81.328       33.261     3191.605     6614.297     1106.293        1.874        0.546      162.336       30.423        0.035      341.669       16.541      867.800
11/13/2013  16:42:00       30.877      149.071      -22.546       43.735       45.425       28.968     1912.746     2063.466      839.146        1.425        0.241      152.236       23.925        0.025      341.676       16.554      867.804
11/13/2013  16:43:00      -10.713      165.714      -21.796       48.143       67.450       26.227     2317.710     4549.475      687.866        1.780        0.378      166.060       35.287        0.045      341.653       16.514      867.811
11/13/2013  16:44:00       20.209      118.544      -15.257       41.950       62.321       27.275     1759.821     3883.887      743.934        1.054        0.319      120.254       30.616        0.065      341.595       16.416      867.816
11/13/2013  16:45:00        8.463      177.487      -38.627       43.112       59.754       21.850     1858.627     3570.580      477.408        1.948        0.295      177.688       29.087        0.027      341.654       16.515      867.838
11/13/2013  16:46:00       -8.041      106.783      -16.694       43.605       63.933       31.708     1901.359     4087.467     1005.416        0.937        0.350      107.085       36.960        0.119      341.630       16.476      867.878
11/13/2013  16:47:00       13.068       87.872        1.529       42.997       61.149       36.309     1848.761     3739.211     1318.322        0.740        0.345       88.838       34.660        0.152      341.559       16.356      867.920
11/13/2013  16:48:00       -3.746      162.389      -34.274       42.082       40.008       19.401     1770.884     1600.658      376.397        1.565        0.187      162.432       16.388        0.010      341.659       16.525      867.932
11/13/2013  16:49:00       -8.168       95.104      -21.312       28.847       35.221       15.640      832.125     1240.499      244.604        0.594        0.116       95.454        8.636        0.008      341.655       16.518      867.933
11/13/2013  16:50:00      -17.894       96.750      -22.081       28.110       34.313       17.534      790.196     1177.350      307.454        0.622        0.114       98.390       17.966        0.033      341.655       16.518      867.922
11/13/2013  16:51:00      -43.737       78.597      -13.596       30.054       28.856       18.068      903.217      832.644      326.469        0.517        0.103       89.947       13.827        0.024      341.721       16.631      867.899
11/13/2013  16:52:00       -5.273       56.632      -11.437       21.856       25.641       16.466      477.696      657.485      271.118        0.239        0.070       56.877       11.827        0.043      341.614       16.449      867.874
11/13/2013  16:53:00      -24.503       72.621      -26.920       35.920       30.278       15.467     1290.259      916.771      239.228        0.452        0.122       76.643       15.693        0.042      341.625       16.469      867.853
11/13/2013  16:54:00      -21.868       60.436      -16.757       19.854       27.065       13.071      394.181      732.538      170.856        0.285        0.065       64.271       12.995        0.041      341.636       16.487      867.807
11/13/2013  16:55:00       20.390       57.390      -13.349       27.356       24.685       17.834      748.349      609.333      318.068        0.278        0.084       60.905       17.053        0.078      341.546       16.334      867.749
11/13/2013  16:56:00       43.571       78.785      -12.456       31.780       31.038       20.607     1009.986      963.344      424.656        0.533        0.120       90.030       19.276        0.046      341.461       16.189      867.709
11/13/2013  16:57:00       21.972      104.562      -10.449       43.185       54.788       32.512     1864.939     3001.708     1057.031        0.872        0.296      106.846       35.470        0.110      341.442       16.159      867.689
11/13/2013  16:58:00       16.830       89.242      -14.352       33.396       41.607       23.851     1115.271     1731.133      568.867        0.593        0.171       90.815       26.332        0.084      341.404       16.093      867.667
11/13/2013  16:59:00       18.740      104.193      -16.646       34.507       42.874       27.655     1190.718     1838.148      764.785        0.764        0.190      105.865       28.179        0.071      341.387       16.064      867.656
11/13/2013  17:00:00       10.098      128.425      -30.027       29.407       42.983       16.364      864.755     1847.526      267.780        1.024        0.149      128.821       12.793        0.010      341.425       16.128      867.659
11/13/2013  17:01:00       -2.145      112.679      -23.830       32.687       29.191       13.219     1068.440      852.100      174.737        0.768        0.105      112.699       13.064        0.013      341.407       16.100      867.666
11/13/2013  17:02:00       17.747       73.759      -10.685       28.455       36.576       17.149      809.672     1337.816      294.105        0.416        0.122       75.864       17.889        0.056      341.307       15.930      867.686
11/13/2013  17:03:00        2.314       53.705      -12.235       18.621       26.291       13.650      346.737      691.222      186.324        0.213        0.061       53.755       15.103        0.079      341.280       15.882      867.719
11/13/2013  17:04:00      -21.600       47.911      -11.647       22.475       19.175        9.795      505.127      367.673       95.947        0.193        0.048       52.555        6.563        0.016      341.302       15.920      867.730
11/13/2013  17:05:00      -37.782       17.024       -7.869       22.493       25.418       12.941      505.934      646.070      167.479        0.155        0.066       41.441        8.187        0.039      341.147       15.659      867.734
11/13/2013  17:06:00       -4.877       -7.533       -8.487       15.483       26.639        9.740      239.735      709.626       94.871        0.060        0.052        8.974        9.362        1.088      340.920       15.274      867.757
11/13/2013  17:07:00      -67.447      -33.376       -1.315       43.431       27.937       15.064     1886.295      780.452      226.934        0.428        0.145       75.254       18.152        0.058      340.959       15.340      867.783
11/13/2013  17:08:00      -72.464      -21.302       -1.592       24.521       30.121       19.388      601.256      907.261      375.888        0.380        0.094       75.530       15.363        0.041      340.951       15.326      867.800
11/13/2013  17:09:00      -48.819       11.919        0.430       31.522       50.048       19.176      993.605     2504.772      367.730        0.320        0.193       50.253       12.687        0.064      341.079       15.544      867.794
11/13/2013  17:10:00     -131.906      -10.235      -16.928       55.648       58.070       19.901     3096.648     3372.108      396.056        1.233        0.343      132.303       25.255        0.036      340.970       15.359      867.783
11/13/2013  17:11:00     -134.080      -50.681       -7.153       42.115       37.729       24.966     1773.662     1423.446      623.298        1.221        0.191      143.339       19.456        0.018      340.837       15.134      867.765
11/13/2013  17:12:00      -94.411        3.775      -17.587       52.085       54.950       21.756     2712.797     3019.498      473.311        0.772        0.310       94.487       21.533        0.052      340.994       15.399      867.754
11/13/2013  17:13:00     -128.753       54.414      -21.119       33.948       38.363       27.363     1152.435     1471.752      748.735        1.168        0.169      139.779       21.694        0.024      341.122       15.616      867.758
11/13/2013  17:14:00     -155.182       48.236      -23.992       39.063       38.105       33.845     1525.945     1451.955     1145.468        1.555        0.206      162.506       23.220        0.020      341.210       15.764      867.802
11/13/2013  17:15:00     -135.385       56.583      -22.524       53.820       46.395       30.872     2896.626     2152.468      953.095        1.402        0.300      146.734       36.039        0.060      341.146       15.654      867.832
11/13/2013  17:16:00     -101.507       23.595       -7.841       51.724       44.955       29.509     2675.328     2020.950      870.797        0.824        0.278      104.213       26.292        0.064      341.040       15.476      867.858
11/13/2013  17:17:00     -138.880       90.502      -28.980       38.784       37.970       26.434     1504.191     1441.715      698.765        1.598        0.182      165.765       18.294        0.012      340.878       15.202      867.862
11/13/2013  17:18:00     -131.801      115.861      -29.926       58.568       53.949       34.999     3430.229     2910.518     1224.932        1.963        0.378      175.486       26.258        0.022      340.853       15.158      867.867
11/13/2013  17:19:00     -118.447       78.843      -14.232       46.149       33.435       38.057     2129.722     1117.924     1448.366        1.257        0.235      142.288       29.262        0.042      340.970       15.358      867.874
11/13/2013  17:20:00      -81.384       39.821        0.071       47.867       46.092       30.651     2291.229     2124.431      939.465        0.678        0.268       90.604       27.880        0.095      341.001       15.410      867.884
11/13/2013  17:21:00     -165.331      131.812      -45.307       44.748       56.211       24.599     2002.352     3159.704      605.122        2.626        0.288      211.444       26.072        0.015      340.895       15.226      867.890
11/13/2013  17:22:00      -92.338       87.617      -16.831       41.429       31.728       28.861     1716.342     1006.650      832.971        1.002        0.178      127.291       24.807        0.038      340.865       15.180      867.893
11/13/2013  17:23:00     -118.417       67.329      -26.426       36.390       41.484       31.574     1324.201     1720.901      996.894        1.165        0.202      136.220       21.447        0.025      341.047       15.488      867.907
11/13/2013  17:24:00     -115.511      120.850      -31.932       35.102       31.492       23.345     1232.168      991.744      545.000        1.587        0.138      167.175       11.868        0.005      340.841       15.139      867.919
11/13/2013  17:25:00     -130.068      147.501      -39.396       40.587       37.102       25.318     1647.276     1376.564      640.978        2.194        0.183      196.658       20.473        0.011      340.812       15.089      867.920
11/13/2013  17:26:00      -82.399       72.726      -28.904       33.318       31.485       18.621     1110.093      991.323      346.736        0.768        0.122      109.903       11.395        0.011      340.867       15.184      867.893
11/13/2013  17:27:00      -90.072       74.685      -20.303       38.193       27.981       25.399     1458.734      782.934      645.124        0.849        0.144      117.008       14.190        0.015      340.962       15.343      867.842
11/13/2013  17:28:00     -106.756       73.517      -22.290       40.483       48.143       26.903     1638.862     2317.762      723.793        1.099        0.234      129.621       28.622        0.049      341.037       15.471      867.791
11/13/2013  17:29:00      -63.460       19.123       -4.407       39.583       28.161       26.837     1566.851      793.055      720.229        0.375        0.154       66.279       25.666        0.150      341.023       15.448      867.774
11/13/2013  17:30:00      -63.903       22.816       -9.943       35.413       27.879       15.177     1254.115      777.256      230.329        0.348        0.113       67.854       13.699        0.041      341.014       15.434      867.775
11/13/2013  17:31:00      -95.630       76.640      -24.213       43.965       33.852       16.515     1932.938     1145.970      272.747        0.948        0.168      122.551       11.307        0.009      341.000       15.409      867.783
11/13/2013  17:32:00      -35.064       44.093      -10.620       35.906       21.325       13.300     1289.223      454.740      176.892        0.260        0.096       56.335       12.485        0.049      340.867       15.184      867.781
11/13/2013  17:33:00      -28.315       67.867      -10.410       28.423       21.167       16.463      807.890      448.052      271.042        0.352        0.076       73.537       12.969        0.031      340.972       15.360      867.769
11/13/2013  17:34:00      -29.739       94.332      -20.288       29.632       48.817       15.976      878.035     2383.068      255.247        0.685        0.176       98.909       16.540        0.028      340.939       15.306      867.764
11/13/2013  17:35:00      -67.202       44.773      -13.198       22.110       22.783       14.542      488.873      519.082      211.483        0.396        0.061       80.751       11.388        0.020      340.865       15.180      867.783
11/13/2013  17:36:00      -87.042       54.729       -7.132       35.882       31.766       30.474     1287.527     1009.058      928.695        0.692        0.161      102.818       25.943        0.064      340.820       15.103      867.806
11/13/2013  17:37:00     -110.250       92.439      -24.044       36.221       36.282       23.984     1311.970     1316.396      575.253        1.224        0.160      143.875       24.150        0.028      340.818       15.101      867.808
11/13/2013  17:38:00      -87.277       63.007      -18.238       29.766       33.649       22.683      886.032     1132.242      514.507        0.723        0.127      107.643       22.133        0.042      340.810       15.086      867.810
11/13/2013  17:39:00      -67.317       87.933      -18.236       26.324       35.764       22.063      692.936     1279.056      486.798        0.753        0.123      110.742       22.021        0.040      340.732       14.955      867.799
11/13/2013  17:40:00      -43.496      105.822      -15.770       25.878       34.281       15.505      669.670     1175.154      240.407        0.771        0.104      114.412       13.438        0.014      340.746       14.979      867.805
11/13/2013  17:41:00      -35.702       84.177       -8.317       29.624       38.617       19.934      877.587     1491.293      397.368        0.560        0.138       91.435       16.805        0.034      340.725       14.945      867.819
11/13/2013  17:42:00      -86.798       83.759      -21.393       35.279       43.927       22.153     1244.576     1929.608      490.763        0.934        0.183      120.621       22.863        0.036      340.705       14.910      867.816
11/13/2013  17:43:00      -65.306      100.949      -21.261       34.980       36.544       18.271     1223.605     1335.447      333.833        0.890        0.145      120.231       18.012        0.022      340.697       14.896      867.834
11/13/2013  17:44:00      -53.975       40.149       -9.888       26.556       34.609       17.399      705.219     1197.753      302.714        0.341        0.110       67.270       13.493        0.040      340.676       14.863      867.845
11/13/2013  17:45:00      -62.886       66.379      -16.722       29.996       30.195       17.881      899.785      911.752      319.745        0.539        0.107       91.437       12.354        0.018      340.740       14.968      867.840
11/13/2013  17:46:00      -67.384       70.055      -23.397       22.798       38.692       15.148      519.729     1497.095      229.457        0.612        0.112       97.202       16.405        0.028      340.800       15.070      867.834
11/13/2013  17:47:00      -56.503      103.409      -16.223       26.357       33.180       15.617      694.712     1100.932      243.903        0.809        0.102      117.839       16.538        0.020      340.797       15.065      867.829
11/13/2013  17:48:00      -38.572       89.624      -16.993       30.838       39.440       21.236      950.969     1555.477      450.988        0.638        0.148       97.572       15.671        0.026      340.827       15.115      867.808
11/13/2013  17:49:00      -49.099      124.311      -20.308       28.936       42.459       18.868      837.311     1802.761      356.008        1.064        0.150      133.656       16.645        0.016      340.894       15.228      867.803
11/13/2013  17:50:00      -18.789      143.562      -16.667       32.938       45.464       27.767     1084.893     2066.981      771.008        1.258        0.196      144.786       24.024        0.028      340.827       15.117      867.819
11/13/2013  17:51:00      -38.600      144.505      -25.011       42.619       37.951       16.042     1816.402     1440.287      257.335        1.325        0.176      149.572       13.598        0.008      340.791       15.055      867.808
11/13/2013  17:52:00      -50.619       91.968      -14.171       31.645       37.781       20.577     1001.427     1427.372      423.408        0.704        0.143      104.978       13.543        0.017      340.756       14.997      867.812
11/13/2013  17:53:00      -31.494       91.536       -4.290       35.400       41.417       19.042     1253.152     1715.337      362.579        0.636        0.167       96.802       19.129        0.039      340.655       14.826      867.821
11/13/2013  17:54:00      -16.770      121.453      -19.287       33.514       31.570       18.281     1123.212      996.674      334.198        0.893        0.123      122.606       11.907        0.009      340.800       15.071      867.832
11/13/2013  17:55:00      -33.916       71.840      -10.886       22.162       26.987       14.014      491.170      728.288      196.387        0.392        0.071       79.443       12.520        0.025      340.759       15.001      867.821
11/13/2013  17:56:00      -35.551       91.708      -17.787       37.539       45.676       19.632     1409.207     2086.266      385.412        0.693        0.194       98.358       21.717        0.049      340.737       14.964      867.815
11/13/2013  17:57:00      -36.459      138.218      -18.924       28.327       44.685       17.530      802.409     1996.710      307.286        1.195        0.155      142.946        7.585        0.003      340.777       15.032      867.801
11/13/2013  17:58:00      -36.686      102.301      -20.783       37.234       46.026       18.710     1386.357     2118.433      350.079        0.805        0.193      108.680       17.129        0.025      340.693       14.890      867.803
11/13/2013  17:59:00       -3.641       59.852        4.568       36.481       51.929       23.334     1330.841     2696.649      544.458        0.409        0.229       59.963       27.769        0.214      340.677       14.863      867.804
11/13/2013  18:00:00      -32.791       46.368       -8.165       22.825       24.252       15.536      520.965      588.138      241.364        0.232        0.068       56.791       10.511        0.034      340.707       14.916      867.824
11/13/2013  18:01:00        9.907       85.135      -12.230       24.708       36.143       18.219      610.491     1306.349      331.916        0.487        0.112       85.710       20.238        0.056      340.627       14.778      867.850
11/13/2013  18:02:00      -25.868       79.617      -17.579       22.648       25.943       12.845      512.930      673.023      165.005        0.433        0.068       83.714        7.408        0.008      340.730       14.952      867.885
11/13/2013  18:03:00      -15.521       41.487       -5.965       19.666       43.501       13.069      386.767     1892.380      170.807        0.222        0.122       44.296       16.217        0.134      340.615       14.758      867.913
11/13/2013  18:04:00       15.142       44.737        2.897       21.441       38.604       15.956      459.697     1490.276      254.601        0.222        0.110       47.230       18.646        0.156      340.640       14.801      867.943
11/13/2013  18:05:00       26.606       39.780        2.801       23.179       24.145       19.075      537.256      582.959      363.851        0.189        0.074       47.857       16.657        0.121      340.489       14.545      867.975
11/13/2013  18:06:00       24.861       34.779       -8.718       12.563       19.529       12.376      157.830      381.372      153.177        0.130        0.035       42.751       12.140        0.081      340.471       14.513      867.985
11/13/2013  18:07:00       10.766       35.779       -8.676       16.321       24.247       11.188      266.384      587.900      125.182        0.123        0.049       37.363       12.092        0.105      340.623       14.771      867.977
11/13/2013  18:08:00       24.269       23.774        9.987       21.186       21.477       11.985      448.860      461.259      143.651        0.115        0.053       33.973        7.741        0.052      340.411       14.413      867.978
11/13/2013  18:09:00       27.863       32.666      -10.692       16.573       20.881       12.525      274.675      436.006      156.880        0.141        0.043       42.935       12.896        0.090      340.337       14.287      867.929
11/13/2013  18:10:00        7.545       39.148       -4.760       10.200       14.486        8.733      104.048      209.851       76.259        0.100        0.020       39.869        4.815        0.015      340.287       14.204      867.873
11/13/2013  18:11:00      -16.502       68.981       -6.714       18.870       20.849       13.819      356.070      434.678      190.956        0.303        0.049       70.927        9.940        0.020      340.446       14.473      867.826
11/13/2013  18:12:00       -9.512       90.773      -16.797       15.230       14.035       10.801      231.954      196.976      116.659        0.458        0.027       91.270        4.301        0.002      340.633       14.788      867.806
11/13/2013  18:13:00      -24.209       75.770      -15.527       30.689       58.482       16.266      941.793     3420.186      264.572        0.560        0.231       79.543       22.967        0.083      340.478       14.526      867.799
11/13/2013  18:14:00       29.769      102.407      -13.558       28.277       37.033       23.536      799.612     1371.425      553.945        0.714        0.136      106.646       26.250        0.061      340.384       14.369      867.790
11/13/2013  18:15:00       18.310       94.346       -8.805       27.481       43.840       23.133      755.204     1921.910      535.128        0.626        0.161       96.107       26.208        0.074      340.392       14.381      867.807
11/13/2013  18:16:00       23.564       81.879       -6.823       35.155       43.002       23.200     1235.859     1849.206      538.241        0.546        0.181       85.203       25.691        0.091      340.388       14.375      867.817
11/13/2013  18:17:00        5.349      136.418      -22.515       20.365       33.849       13.056      414.728     1145.757      170.467        1.044        0.087      136.523       13.192        0.009      340.375       14.352      867.813
11/13/2013  18:18:00        0.846      143.157      -25.873       17.083       19.952        9.937      291.821      398.081       98.752        1.098        0.039      143.160        8.836        0.004      340.343       14.299      867.800
11/13/2013  18:19:00       -5.017      137.445      -18.288       12.474       14.006        7.182      155.590      196.177       51.582        0.983        0.020      137.536        3.778        0.001      340.363       14.333      867.781
11/13/2013  18:20:00        0.283      127.132      -18.559       16.942       16.765       12.020      287.041      281.053      144.479        0.861        0.036      127.132        8.283        0.004      340.417       14.422      867.784
11/13/2013  18:21:00        4.684      123.673      -21.325       21.911       20.249       13.102      480.103      410.034      171.650        0.842        0.053      123.761       13.014        0.011      340.431       14.447      867.792
11/13/2013  18:22:00       -4.474      121.725      -17.555       24.615       30.546       14.797      605.900      933.057      218.943        0.845        0.088      121.807       14.699        0.015      340.303       14.232      867.805
11/13/2013  18:23:00        6.893      141.678      -20.724       24.538       23.907       15.861      602.094      571.554      251.572        1.099        0.071      141.845       14.677        0.011      340.381       14.364      867.836
11/13/2013  18:24:00      -20.871      159.202      -20.363       32.047       30.073       15.726     1027.028      904.366      247.317        1.419        0.109      160.564       14.397        0.008      340.439       14.460      867.828
11/13/2013  18:25:00       14.462      151.701      -16.002       38.179       28.392       16.042     1457.644      806.128      257.331        1.300        0.126      152.388       10.131        0.004      340.472       14.517      867.821
11/13/2013  18:26:00      -19.922      140.251      -21.242       25.475       26.968       15.432      648.989      727.257      238.145        1.107        0.081      141.659       13.889        0.010      340.424       14.435      867.802
11/13/2013  18:27:00      -24.365      148.563      -23.332       27.448       40.502       15.363      753.403     1640.382      236.018        1.292        0.131      150.548       14.945        0.010      340.465       14.504      867.788
11/13/2013  18:28:00      -10.834      148.198      -14.425       36.391       33.282       22.750     1324.278     1107.699      517.574        1.262        0.147      148.593       20.593        0.019      340.488       14.544      867.800
11/13/2013  18:29:00       -0.315      144.062      -19.445       38.392       28.784       18.260     1473.922      828.494      333.430        1.188        0.132      144.063       18.658        0.017      340.552       14.651      867.815
11/13/2013  18:30:00        1.282      105.522      -15.129       39.618       30.115       15.376     1569.620      906.902      236.432        0.704        0.136      105.530       10.719        0.010      340.488       14.543      867.845
11/13/2013  18:31:00       -0.929      119.263      -15.871       26.566       29.689       14.343      705.776      881.442      205.734        0.813        0.090      119.267       10.511        0.008      340.435       14.452      867.851
11/13/2013  18:32:00       -1.701      113.964      -16.222       24.273       26.279       16.359      589.194      690.611      267.622        0.740        0.077      113.977       14.645        0.017      340.371       14.345      867.824
11/13/2013  18:33:00      -11.983      136.566      -18.863       22.560       20.330        9.801      508.973      413.290       96.055        1.008        0.051      137.091        5.603        0.002      340.316       14.252      867.807
11/13/2013  18:34:00       -6.927       99.997      -15.459       30.106       33.334       16.736      906.341     1111.141      280.088        0.629        0.115      100.236       15.708        0.025      340.381       14.361      867.783
11/13/2013  18:35:00      -46.604        5.221      -10.238       16.975       21.439       11.671      288.137      459.617      136.218        0.159        0.044       46.895       11.500        0.060      339.996       13.715      867.780
11/13/2013  18:36:00      -47.224        8.775       -8.269       27.068       16.258       10.062      732.656      264.327      101.238        0.174        0.055       48.032       11.752        0.060      340.078       13.850      867.799
11/13/2013  18:37:00      -42.849      -17.643      -10.738       16.532       19.811       10.012      273.292      392.485      100.238        0.151        0.038       46.339        7.145        0.024      339.920       13.584      867.801
11/13/2013  18:38:00       18.583        0.973        1.259       14.459       12.839       11.791      209.056      164.830      139.028        0.043        0.026       18.609        8.401        0.204      340.171       14.006      867.802
11/13/2013  18:39:00       20.599       22.230        2.080       13.039       16.722       11.815      170.029      279.640      139.604        0.076        0.029       30.306        9.158        0.091      340.164       13.994      867.786
11/13/2013  18:40:00      -25.156       -2.600       -0.599       14.549        9.265        7.192      211.669       85.837       51.719        0.049        0.017       25.290        6.761        0.071      339.982       13.688      867.756
11/13/2013  18:41:00      -49.200       -5.458       -2.621       18.858       13.678       13.250      355.622      187.094      175.576        0.159        0.036       49.502       10.281        0.043      339.961       13.653      867.749
11/13/2013  18:42:00      -87.644       -1.049      -10.806       11.306       10.587        8.544      127.821      112.093       72.998        0.406        0.016       87.650        4.931        0.003      339.853       13.470      867.747
11/13/2013  18:43:00      -49.888      -13.551       -2.849       20.330       13.535       11.106      413.319      183.188      123.347        0.170        0.036       51.695       10.697        0.043      339.800       13.380      867.742
11/13/2013  18:44:00      -29.857      -26.343       -0.523       15.552        8.778        7.583      241.854       77.061       57.508        0.098        0.019       39.817        8.040        0.041      339.892       13.536      867.753
11/13/2013  18:45:00      -10.600      -20.324       -4.360       17.961        8.309        7.201      322.582       69.034       51.847        0.049        0.022       22.923        4.725        0.042      339.840       13.449      867.755
11/13/2013  18:46:00        3.113      -24.207       -3.784       11.659       15.229       10.580      135.925      231.917      111.930        0.054        0.024       24.406        7.282        0.089      339.865       13.491      867.760
11/13/2013  18:47:00      -15.761      -12.116       -6.493       17.765       11.808       11.563      315.592      139.430      133.706        0.051        0.029       19.879        3.828        0.037      339.808       13.395      867.783
11/13/2013  18:48:00      -65.841      -31.697      -10.702       12.376       11.642        8.496      153.166      135.531       72.186        0.291        0.018       73.074        6.339        0.008      339.617       13.073      867.786
11/13/2013  18:49:00      -84.081      -11.786      -14.965       14.012       15.943        9.483      196.345      254.178       89.926        0.399        0.027       84.904        8.375        0.010      339.581       13.013      867.784
11/13/2013  18:50:00      -99.204        5.837      -12.424       23.086       14.248        9.572      532.967      203.004       91.615        0.543        0.041       99.375        9.906        0.010      339.493       12.863      867.808
11/13/2013  18:51:00      -67.459       19.363      -18.658       20.231       20.551       13.061      409.302      422.337      170.600        0.314        0.050       70.183       14.039        0.040      339.575       13.003      867.832
11/13/2013  18:52:00      -35.074        5.041       -7.859       14.444       15.476       12.116      208.628      239.499      146.799        0.096        0.030       35.435        5.652        0.025      339.615       13.070      867.841
11/13/2013  18:53:00      -34.002       -8.895       -6.373       19.295       18.527       11.903      372.289      343.258      141.690        0.107        0.043       35.146        8.373        0.057      339.402       12.713      867.837
11/13/2013  18:54:00      -66.635       -6.996      -10.665       19.949       18.279       13.101      397.980      334.135      171.632        0.275        0.045       67.001       15.164        0.051      339.252       12.456      867.835
11/13/2013  18:55:00      -42.239      -15.377      -15.600       22.641       16.946       12.008      512.622      287.169      144.185        0.160        0.047       44.951        7.687        0.029      339.281       12.506      867.819
11/13/2013  18:56:00      -34.807      -21.093      -16.251       14.218       13.625        8.944      202.153      185.652       79.989        0.119        0.023       40.700        6.721        0.027      339.460       12.808      867.810
11/13/2013  18:57:00      -62.860      -36.464      -12.823       19.378       16.347        9.665      375.507      267.224       93.413        0.309        0.037       72.670        4.696        0.004      339.334       12.597      867.810
11/13/2013  18:58:00      -71.057      -29.236      -19.186       15.395       18.316       11.590      237.000      335.479      134.326        0.349        0.035       76.836        5.202        0.005      339.336       12.600      867.798
11/13/2013  18:59:00      -59.767      -34.928      -19.050       24.226       16.756       13.679      586.917      280.753      187.106        0.310        0.053       69.225       12.201        0.031      339.196       12.363      867.822
11/13/2013  19:00:00     -109.625      -34.895      -18.768       30.734       26.646       13.042      944.587      710.019      170.106        0.771        0.091      115.045        8.212        0.005      339.113       12.224      867.849
11/13/2013  19:01:00     -103.436      -24.037      -10.894       18.198       15.887       10.924      331.166      252.392      119.344        0.605        0.035      106.192        5.618        0.003      339.140       12.269      867.877
11/13/2013  19:02:00     -102.485      -22.225      -13.170       13.786       10.973        9.848      190.048      120.410       96.980        0.579        0.020      104.867        3.624        0.001      339.105       12.211      867.889
11/13/2013  19:03:00      -70.672      -41.129       -6.824       19.831       14.634        9.399      393.283      214.157       88.337        0.371        0.035       81.768        3.946        0.002      339.105       12.208      867.893
11/13/2013  19:04:00      -60.362      -48.939      -10.634       18.169       23.492       13.534      330.121      551.889      183.175        0.361        0.053       77.708       11.889        0.023      339.078       12.165      867.877
11/13/2013  19:05:00      -88.404      -36.810      -11.490       15.384       21.706       16.006      236.673      471.157      256.203        0.513        0.048       95.762        7.852        0.007      339.072       12.155      867.856
11/13/2013  19:06:00      -85.988      -32.770      -13.222       10.823        9.730        7.717      117.140       94.680       59.552        0.446        0.014       92.021        2.639        0.001      339.037       12.097      867.852
11/13/2013  19:07:00      -75.026      -34.294       -8.741       16.382        7.760        5.752      268.377       60.225       33.082        0.362        0.018       82.492        3.552        0.002      339.085       12.176      867.839
11/13/2013  19:08:00      -87.722      -38.640      -11.485        8.813        7.279        5.015       77.664       52.983       25.146        0.474        0.008       95.855        2.963        0.001      339.117       12.232      867.850
11/13/2013  19:09:00      -82.922      -27.392      -15.172       11.863       11.099        8.720      140.726      123.198       76.040        0.410        0.017       87.329        5.353        0.004      339.139       12.267      867.856
11/13/2013  19:10:00     -101.410      -20.361      -12.072       16.093       12.991       12.398      258.997      168.765      153.721        0.571        0.029      103.434        8.595        0.007      339.108       12.214      867.856
11/13/2013  19:11:00     -104.147      -22.497      -16.126       15.665       13.128       11.294      245.377      172.346      127.563        0.608        0.027      106.549        9.588        0.008      339.087       12.181      867.835
11/13/2013  19:12:00     -110.067      -33.751      -18.796       10.135       13.016        8.362      102.713      169.406       69.915        0.697        0.017      115.126        5.227        0.002      339.022       12.070      867.792
11/13/2013  19:13:00     -109.605       -3.330      -15.058       26.088       20.111       12.955      680.577      404.456      167.844        0.675        0.063      109.656        9.294        0.007      338.910       11.881      867.767
11/13/2013  19:14:00     -106.966       -4.173      -14.701       42.209       25.994       24.178     1781.602      675.698      584.553        0.736        0.152      107.048       22.081        0.043      338.814       11.720      867.782
11/13/2013  19:15:00     -101.884        9.847      -21.514       42.287       23.853       22.144     1788.171      568.974      490.363        0.689        0.142      102.358       16.833        0.027      338.922       11.902      867.806
11/13/2013  19:16:00     -104.923      -15.520      -11.884       36.171       32.377       19.823     1308.347     1048.286      392.960        0.707        0.137      106.064       16.615        0.025      338.740       11.597      867.829
11/13/2013  19:17:00      -76.957      -27.629       -7.168       32.292       38.880       19.022     1042.759     1511.619      361.843        0.483        0.146       81.767       16.489        0.041      338.803       11.703      867.854
11/13/2013  19:18:00      -66.507      -23.285       -7.949       31.322       26.719       24.531      981.096      713.922      601.746        0.366        0.115       70.465       12.075        0.029      338.715       11.554      867.882
11/13/2013  19:19:00      -41.700      -23.019       -0.226       33.832       24.771       20.973     1144.635      613.585      439.871        0.223        0.110       47.631       14.196        0.089      338.690       11.512      867.921
11/13/2013  19:20:00      -82.494      -31.856      -16.738       24.185       19.023       16.086      584.904      361.862      258.765        0.465        0.060       88.431        5.142        0.003      338.707       11.540      867.928
11/13/2013  19:21:00      -69.690      -32.972      -14.631       26.500       25.038       16.158      702.230      626.894      261.084        0.387        0.080       77.096       12.803        0.028      338.726       11.572      867.912
11/13/2013  19:22:00      -81.274      -38.184      -11.291       24.073       25.794       19.084      579.527      665.337      364.206        0.490        0.080       89.797       12.963        0.021      338.652       11.448      867.908
11/13/2013  19:23:00     -114.556      -32.611       -7.076       30.637       33.320       22.066      938.638     1110.220      486.905        0.839        0.127      119.107       18.128        0.023      338.650       11.445      867.883
11/13/2013  19:24:00     -133.233       -4.390      -16.483       37.526       19.142       22.965     1408.178      366.425      527.402        1.017        0.115      133.306       22.961        0.030      338.629       11.410      867.846
11/13/2013  19:25:00     -124.282       -1.867      -10.703       45.172       25.324       23.419     2040.480      641.296      548.449        0.940        0.162      124.296       22.598        0.033      338.572       11.315      867.810
11/13/2013  19:26:00     -116.042       -6.254       -6.524       44.131       26.319       20.845     1947.532      692.709      434.498        0.831        0.154      116.211       21.843        0.035      338.558       11.290      867.781
11/13/2013  19:27:00     -108.111      -10.011      -17.506       38.125       25.682       17.674     1453.510      659.569      312.373        0.726        0.121      108.573       14.177        0.017      338.613       11.385      867.802
11/13/2013  19:28:00      -90.284      -40.501      -21.714       25.796       26.460       20.140      665.452      700.154      405.615        0.602        0.089       98.952       13.503        0.019      338.684       11.503      867.838
11/13/2013  19:29:00     -109.706      -39.927      -14.227       39.181       18.489       17.862     1535.142      341.835      319.059        0.801        0.110      116.745       16.343        0.020      338.610       11.378      867.911
11/13/2013  19:30:00     -110.330      -25.579       -7.342       35.565       31.801       16.394     1264.890     1011.301      268.775        0.771        0.127      113.257       16.130        0.020      338.556       11.288      867.985
11/13/2013  19:31:00      -63.597       -7.470       -4.620       38.854       23.008       20.710     1509.659      529.360      428.892        0.329        0.123       64.034       17.909        0.078      338.505       11.203      868.019
11/13/2013  19:32:00      -40.115      -35.159        0.798       41.938       21.203       18.702     1758.781      449.558      349.754        0.270        0.128       53.342       23.350        0.192      338.699       11.527      867.989
11/13/2013  19:33:00      -24.635      -31.517      -10.247       31.207       26.148       14.672      973.903      683.711      215.271        0.179        0.094       40.002       11.960        0.089      338.718       11.559      867.935
11/13/2013  19:34:00      -57.609      -37.230       -7.119       33.302       21.714       17.956     1109.041      471.495      322.427        0.333        0.095       68.592       15.395        0.050      338.666       11.472      867.896
11/13/2013  19:35:00      -30.078       -8.924        9.775       36.313       27.165       21.133     1318.647      737.916      446.588        0.179        0.125       31.374       19.847        0.400      338.588       11.342      867.862
11/13/2013  19:36:00      -98.277      -24.202      -15.429       23.243       17.474       12.327      540.247      305.324      151.953        0.574        0.050      101.214       11.646        0.013      338.634       11.419      867.792
11/13/2013  19:37:00      -89.890       -7.148       -5.493       25.817       22.674       15.006      666.515      514.130      225.183        0.478        0.070       90.174       13.985        0.024      338.635       11.421      867.780
11/13/2013  19:38:00      -96.474      -11.657      -13.480       26.014       23.478       16.983      676.706      551.207      288.425        0.557        0.076       97.175       16.769        0.030      338.654       11.452      867.835
11/13/2013  19:39:00     -130.254        1.510      -16.870       17.318       19.527       13.973      299.926      381.287      195.234        0.906        0.044      130.262        5.740        0.002      338.689       11.511      867.873
11/13/2013  19:40:00     -130.640      -10.720      -16.178       23.720       21.713       16.374      562.642      471.441      268.120        0.937        0.065      131.079        9.948        0.006      338.698       11.526      867.877
11/13/2013  19:41:00      -96.022      -12.237       -6.940       28.826       20.550       16.622      830.936      422.285      276.299        0.547        0.076       96.798       13.853        0.020      338.594       11.352      867.901
11/13/2013  19:42:00     -111.036       -5.033      -13.768       30.512       24.657       21.256      931.012      607.965      451.822        0.727        0.100      111.150       20.406        0.034      338.514       11.219      867.956
11/13/2013  19:43:00     -105.805      -10.099       -9.677       44.777       25.467       19.329     2004.963      648.582      373.621        0.721        0.151      106.286       17.830        0.028      338.584       11.335      867.995
11/13/2013  19:44:00     -100.396       -7.018       -7.402       35.896       24.479       18.689     1288.552      599.238      349.266        0.621        0.112      100.641       18.293        0.033      338.634       11.418      867.986
11/13/2013  19:45:00      -90.415       -9.868       -4.977       30.348       26.088       15.840      920.992      680.583      250.912        0.507        0.093       90.952       13.410        0.022      338.622       11.398      867.980
11/13/2013  19:46:00      -82.832       -6.822       -8.464       44.138       25.771       17.543     1948.122      664.159      307.769        0.495        0.146       83.112        4.844        0.003      338.647       11.440      867.963
11/13/2013  19:47:00      -89.674      -11.745      -11.182       28.200       23.229       12.441      795.230      539.598      154.790        0.490        0.074       90.440       10.580        0.014      338.755       11.623      867.931
11/13/2013  19:48:00      -57.479      -21.357       -7.545       37.572       22.165       11.810     1411.690      491.285      139.478        0.293        0.102       61.319       10.063        0.027      338.684       11.502      867.925
11/13/2013  19:49:00      -48.409      -12.400       -5.481       31.771       13.210       10.264     1009.413      174.494      105.356        0.191        0.064       49.972       12.177        0.059      338.677       11.492      867.926
11/13/2013  19:50:00      -69.924      -20.752       -7.714       29.503       15.052       11.928      870.402      226.576      142.269        0.331        0.062       72.938       10.925        0.022      338.746       11.607      867.939
11/13/2013  19:51:00      -58.623      -14.009       -7.660       18.102       13.840        8.164      327.670      191.533       66.659        0.214        0.029       60.274        7.977        0.018      338.748       11.610      867.960
11/13/2013  19:52:00      -68.350      -19.071       -7.378       22.074       12.798       11.248      487.251      163.778      126.525        0.293        0.039       70.961       10.500        0.022      338.735       11.588      867.969
11/13/2013  19:53:00      -89.655      -25.906      -15.144       20.785       14.779       10.367      432.004      218.427      107.481        0.485        0.038       93.323        6.924        0.006      338.705       11.539      867.989
11/13/2013  19:54:00     -130.726      -36.565       -8.268       21.274       23.841       14.781      452.592      568.381      218.478        0.987        0.062      135.744        6.874        0.003      338.721       11.564      868.016
11/13/2013  19:55:00     -123.913      -29.902      -11.221       27.485       24.303       18.010      755.427      590.615      324.374        0.902        0.084      127.470       17.078        0.018      338.604       11.368      868.000
11/13/2013  19:56:00      -88.403      -25.072       -7.039       30.268       17.833       15.107      916.158      318.032      228.232        0.498        0.073       91.889       14.473        0.025      338.596       11.353      867.963
11/13/2013  19:57:00      -71.094      -20.145       -0.862       27.518       28.758       15.969      757.240      827.007      255.008        0.365        0.092       73.893       12.681        0.029      338.525       11.235      867.917
11/13/2013  19:58:00      -68.068      -44.926       -1.824       37.865       26.542       17.706     1433.747      704.475      313.515        0.455        0.123       81.557       16.690        0.042      338.648       11.441      867.858
11/13/2013  19:59:00      -40.910      -35.854        7.109       40.278       21.915       17.008     1622.350      480.249      289.282        0.270        0.120       54.398       19.495        0.128      338.590       11.345      867.823
11/13/2013  20:00:00      -11.151      -22.170        5.645       22.072       14.462       13.832      487.155      209.152      191.332        0.077        0.044       24.817       15.172        0.374      338.691       11.513      867.831
11/13/2013  20:01:00      -30.277      -29.310       -3.919       15.316        9.877       11.222      234.569       97.554      125.932        0.112        0.023       42.140       10.471        0.062      338.812       11.717      867.862
11/13/2013  20:02:00      -44.227      -30.246        1.078       23.980       12.624       12.907      575.017      159.371      166.596        0.189        0.045       53.580        8.730        0.027      338.820       11.730      867.882
11/13/2013  20:03:00      -85.675      -27.497       -7.751       28.319       20.762       15.833      801.967      431.076      250.689        0.482        0.074       89.979       15.713        0.030      338.782       11.668      867.896
11/13/2013  20:04:00     -113.980      -55.998       -9.354       18.564       22.390       13.255      344.628      501.314      175.702        0.862        0.051      126.993       13.466        0.011      338.723       11.568      867.903
11/13/2013  20:05:00     -110.700      -44.271      -11.908       20.154       22.678       11.054      406.190      514.310      122.185        0.770        0.052      119.225        8.477        0.005      338.630       11.411      867.898
11/13/2013  20:06:00     -101.458      -32.711       -4.992       31.052       18.345       12.764      964.252      336.541      162.915        0.643        0.073      106.601       14.683        0.019      338.476       11.153      867.884
11/13/2013  20:07:00      -86.828      -42.699       -5.032       23.312       19.777       14.034      543.454      391.124      196.949        0.526        0.057       96.759       12.977        0.018      338.491       11.178      867.883
11/13/2013  20:08:00      -86.629      -24.177       -9.447       22.779       23.502       14.308      518.877      552.335      204.712        0.473        0.064       89.940       11.295        0.016      338.454       11.115      867.885
11/13/2013  20:09:00      -23.217      -24.348        6.027       31.257       17.920       12.014      977.028      321.120      144.344        0.131        0.072       33.643       10.908        0.105      338.439       11.092      867.887
11/13/2013  20:10:00       -5.792      -34.875        2.618       13.215       11.627        9.259      174.627      135.188       85.728        0.083        0.020       35.353        5.024        0.020      338.519       11.224      867.899
11/13/2013  20:11:00      -27.960      -37.184       -4.923       20.113       12.541        7.222      404.550      157.268       52.161        0.140        0.031       46.524        7.316        0.025      338.607       11.372      867.909
11/13/2013  20:12:00      -83.443      -21.887       -8.597       15.995       11.788        8.753      255.848      138.953       76.610        0.399        0.024       86.266        6.077        0.005      338.588       11.342      867.926
11/13/2013  20:13:00     -100.852      -34.865      -12.063       14.863       15.754        9.289      220.899      248.198       86.278        0.604        0.028      106.708        8.191        0.006      338.558       11.290      867.963
11/13/2013  20:14:00      -99.272      -34.662      -10.204       12.423       15.128        8.529      154.327      228.867       72.745        0.581        0.023      105.149        6.123        0.003      338.429       11.074      867.980
11/13/2013  20:15:00      -80.021      -53.544       -4.392       10.780       12.452       10.314      116.206      155.048      106.381        0.483        0.019       96.283        8.873        0.008      338.442       11.096      867.986
11/13/2013  20:16:00      -75.069      -50.370      -10.087       15.751       13.651       10.792      248.106      186.348      116.473        0.441        0.028       90.402        7.911        0.008      338.470       11.144      867.946
11/13/2013  20:17:00      -88.462      -27.995      -11.439       10.339        8.246        7.068      106.889       68.000       49.950        0.448        0.011       92.786        6.282        0.005      338.435       11.082      867.889
11/13/2013  20:18:00      -95.877      -32.836      -16.860       11.277        9.308        7.068      127.181       86.639       49.950        0.541        0.013      101.344        5.617        0.003      338.473       11.150      867.846
11/13/2013  20:19:00      -86.207      -23.179      -12.666       12.131       12.999       10.530      147.153      168.966      110.885        0.428        0.021       89.269        6.327        0.005      338.391       11.012      867.805
11/13/2013  20:20:00      -64.317      -26.569      -10.978        4.505        5.036        5.183       20.298       25.365       26.868        0.252        0.004       69.589        3.100        0.002      338.370       10.975      867.826
11/13/2013  20:21:00      -68.143      -16.392      -14.162        8.996       10.263        6.366       80.921      105.332       40.526        0.267        0.011       70.087        5.061        0.005      338.440       11.092      867.871
11/13/2013  20:22:00      -82.503      -23.368      -15.960        8.070        6.925        6.263       65.117       47.958       39.230        0.388        0.008       85.748        3.482        0.002      338.383       10.997      867.923
11/13/2013  20:23:00      -90.645      -36.071      -13.178       12.021        9.092        7.385      144.511       82.667       54.538        0.499        0.014       97.558        1.686        0.000      338.345       10.932      867.953
11/13/2013  20:24:00     -101.236      -30.186      -15.143        9.701       13.008       10.345       94.102      169.221      107.019        0.588        0.019      105.641        2.795        0.001      338.283       10.828      867.937
11/13/2013  20:25:00      -93.034      -20.597      -11.964       12.073       12.285        8.820      145.767      150.915       77.789        0.480        0.019       95.286        5.712        0.004      338.287       10.836      867.897
11/13/2013  20:26:00      -96.149       -7.316      -14.998        8.581        9.905        5.868       73.638       98.112       34.434        0.486        0.010       96.427        2.572        0.001      338.359       10.957      867.851
11/13/2013  20:27:00      -93.341      -10.591      -14.178       17.672       13.408       11.643      312.283      179.763      135.554        0.483        0.031       93.940       10.219        0.012      338.319       10.889      867.834
11/13/2013  20:28:00      -72.176      -13.621      -17.395       13.394       20.190       15.622      179.403      407.648      244.037        0.326        0.042       73.450       11.340        0.024      338.345       10.933      867.837
11/13/2013  20:29:00      -66.136      -34.647      -11.930       14.636       14.431       10.957      214.200      208.244      120.046        0.313        0.027       74.662        9.221        0.015      338.289       10.839      867.875
11/13/2013  20:30:00      -83.765      -20.010      -10.235       17.897       19.266       11.798      320.303      371.181      139.193        0.418        0.042       86.122       12.505        0.021      338.230       10.741      867.926
11/13/2013  20:31:00      -82.060      -14.306      -13.044       18.733       23.164       16.221      350.940      536.567      263.122        0.413        0.058       83.297       11.725        0.020      338.200       10.690      867.977
11/13/2013  20:32:00      -90.479       -5.629      -19.157       19.539       16.574       10.052      381.763      274.710      101.043        0.467        0.038       90.653        8.716        0.009      338.147       10.602      868.007
11/13/2013  20:33:00      -91.296       14.076      -17.981       29.247       16.962       12.077      855.402      287.711      145.865        0.507        0.064       92.375        8.337        0.008      338.189       10.672      868.033
11/13/2013  20:34:00      -67.127       15.853      -19.983       17.925       16.785       13.883      321.309      281.720      192.726        0.298        0.040       68.973       12.270        0.032      338.348       10.939      868.051
11/13/2013  20:35:00      -63.322       18.941      -13.168       12.116       13.285       10.415      146.786      176.501      108.462        0.249        0.022       66.094        6.812        0.011      338.397       11.021      868.032
11/13/2013  20:36:00      -55.260       11.132      -11.496       13.993       10.239       10.270      195.803      104.842      105.481        0.186        0.020       56.370        2.980        0.003      338.415       11.051      867.987
11/13/2013  20:37:00      -64.709      -16.587      -13.458       13.153       13.401        8.240      173.004      179.584       67.901        0.253        0.021       66.801        8.357        0.016      338.149       10.604      867.900
11/13/2013  20:38:00      -70.286       -9.007      -19.438       15.914        9.618        7.719      253.266       92.498       59.581        0.290        0.020       70.861        5.950        0.007      338.098       10.518      867.847
11/13/2013  20:39:00      -83.392       -1.793      -15.608       15.065       12.309       12.299      226.953      151.503      151.274        0.387        0.026       83.412        8.601        0.011      338.088       10.502      867.806
11/13/2013  20:40:00      -81.363       -2.740       -7.469       20.514       19.884       13.831      420.827      395.372      191.288        0.385        0.050       81.409       10.247        0.016      338.116       10.548      867.826
11/13/2013  20:41:00      -63.596      -18.810       -6.243       17.352       17.914       16.250      301.103      320.903      264.078        0.266        0.044       66.319        5.628        0.007      338.127       10.567      867.868
11/13/2013  20:42:00      -57.947      -45.139      -16.156       17.444       15.908        9.632      304.307      253.077       92.779        0.315        0.033       73.453        6.421        0.008      338.080       10.489      867.903
11/13/2013  20:43:00      -55.352      -31.639       -6.051       15.492       15.367       14.513      240.009      236.144      210.632        0.239        0.034       63.756        7.738        0.015      338.037       10.416      867.927
11/13/2013  20:44:00      -34.444      -27.108       -7.974       18.486       15.618       16.501      341.724      243.934      272.275        0.142        0.043       43.831       14.172        0.105      338.084       10.494      867.948
11/13/2013  20:45:00      -46.967      -34.876       -9.262       14.631       16.383       12.287      214.080      268.401      150.961        0.207        0.032       58.500        9.947        0.029      338.073       10.478      867.958
11/13/2013  20:46:00      -79.490      -25.999      -13.021       16.248       11.094        8.573      264.011      123.084       73.494        0.381        0.023       83.634        7.684        0.008      338.101       10.523      867.934
11/13/2013  20:47:00      -80.064      -30.349      -13.265        7.747       10.543        6.018       60.010      111.158       36.215        0.386        0.010       85.623        4.692        0.003      338.078       10.487      867.908
11/13/2013  20:48:00      -81.730      -29.721      -14.049       12.876       10.942        8.153      165.791      119.717       66.475        0.406        0.018       86.966        5.412        0.004      338.100       10.522      867.874
11/13/2013  20:49:00      -64.860      -31.861      -14.348        7.681        9.495        7.340       58.990       90.149       53.881        0.282        0.010       72.263        5.920        0.007      338.104       10.528      867.874
11/13/2013  20:50:00      -81.881      -25.004      -14.764        7.747       11.168        6.069       60.019      124.732       36.835        0.388        0.011       85.614        4.068        0.002      338.105       10.530      867.860
11/13/2013  20:51:00      -85.273      -34.900      -12.051        8.864        9.687        6.714       78.577       93.835       45.084        0.443        0.011       92.139        4.660        0.003      338.089       10.504      867.877
11/13/2013  20:52:00      -84.043      -31.683      -11.257       10.319        8.991        6.745      106.482       80.846       45.490        0.421        0.012       89.817        5.006        0.003      338.120       10.557      867.896
11/13/2013  20:53:00      -84.800      -27.840       -9.067        7.634        8.423        6.778       58.279       70.947       45.946        0.411        0.009       89.253        4.120        0.002      338.071       10.473      867.906
11/13/2013  20:54:00      -79.433      -25.928      -13.342       10.922       10.821        8.371      119.280      117.095       70.075        0.373        0.015       83.557        6.640        0.006      338.081       10.492      867.901
11/13/2013  20:55:00      -92.330      -47.634      -14.967       13.646       14.708        8.901      186.200      216.316       79.226        0.575        0.024      103.894        5.568        0.003      337.948       10.268      867.883
11/13/2013  20:56:00      -46.534      -33.060        3.200       37.263       28.916       25.252     1388.546      836.150      637.645        0.306        0.143       57.082       21.018        0.136      337.664        9.792      867.910
11/13/2013  20:57:00      -95.526      -67.615        4.067       41.948       39.212       26.016     1759.665     1537.578      676.810        0.884        0.199      117.035       22.173        0.036      337.677        9.812      867.936
11/13/2013  20:58:00      -63.539      -79.432       -4.301       25.975       41.541       21.877      674.703     1725.694      478.591        0.662        0.144      101.718       15.333        0.023      337.801       10.020      867.967
11/13/2013  20:59:00      -55.583      -71.219       -1.624       26.286       26.851       17.181      690.934      720.951      295.177        0.494        0.085       90.342       12.508        0.019      337.808       10.032      867.971
11/13/2013  21:00:00      -71.004      -35.014       -2.780       21.162       23.026       15.843      447.830      530.184      250.996        0.375        0.061       79.168       11.965        0.023      337.747        9.930      867.950
11/13/2013  21:01:00      -60.151      -59.768        3.168       26.989       26.183       14.913      728.384      685.543      222.401        0.442        0.082       84.796       13.601        0.026      337.665        9.794      867.926
11/13/2013  21:02:00      -67.665      -51.273        1.548       29.464       25.076       17.083      868.116      628.804      291.820        0.450        0.089       84.897       14.929        0.031      337.614        9.707      867.899
11/13/2013  21:03:00     -105.350      -71.653       -4.292       39.766       24.958       21.363     1581.374      622.914      456.378        0.946        0.133      127.408       19.404        0.023      337.602        9.686      867.896
11/13/2013  21:04:00     -114.184      -70.521       -3.737       42.007       31.943       28.415     1764.587     1020.366      807.415        1.081        0.180      134.206       23.757        0.031      337.529        9.566      867.897
11/13/2013  21:05:00      -44.434      -39.638        6.557       41.315       34.691       24.133     1706.969     1203.440      582.388        0.354        0.175       59.544       21.773        0.134      337.425        9.390      867.903
11/13/2013  21:06:00     -110.173      -55.688      -13.944       20.295       15.152       16.136      411.907      229.576      260.383        0.817        0.045      123.448        9.152        0.005      337.426        9.390      867.931
11/13/2013  21:07:00     -122.642      -72.105      -13.408       13.004       16.683       13.545      169.095      278.325      183.460        1.053        0.032      142.268        6.629        0.002      337.522        9.552      867.973
11/13/2013  21:08:00      -77.820      -66.320       -1.132       30.743       26.601       21.996      945.148      707.625      483.819        0.630        0.107      102.246       20.850        0.042      337.423        9.386      868.027
11/13/2013  21:09:00      -21.776      -29.239       12.047       29.974       25.652       18.837      898.447      658.031      354.822        0.169        0.096       36.457       16.610        0.208      337.463        9.454      868.067
11/13/2013  21:10:00      -88.731      -66.244        0.149       30.258       24.558       19.747      915.570      603.103      389.952        0.708        0.095      110.732       17.078        0.024      337.494        9.505      868.102
11/13/2013  21:11:00      -54.855      -38.249       10.442       48.405       34.772       24.358     2342.998     1209.080      593.288        0.436        0.207       66.873       23.994        0.129      337.362        9.285      868.096
11/13/2013  21:12:00      -36.987      -41.171        7.617       39.288       19.629       15.859     1543.524      385.290      251.518        0.265        0.109       55.345       17.252        0.097      337.420        9.382      868.078
11/13/2013  21:13:00      -80.704      -45.292       -0.365       39.660       23.409       19.149     1572.951      547.976      366.700        0.553        0.124       92.545       18.040        0.038      337.414        9.373      868.046
11/13/2013  21:14:00     -115.101      -49.699       -3.972       35.372       21.622       20.297     1251.151      467.512      411.984        0.893        0.107      125.372       19.103        0.023      337.368        9.295      868.012
11/13/2013  21:15:00     -122.634      -48.902       -9.485       12.647       14.970        8.828      159.943      224.095       77.937        0.899        0.023      132.025        7.285        0.003      337.308        9.192      867.993
11/13/2013  21:16:00     -111.208      -40.427      -16.270       17.081       17.179       12.696      291.744      295.113      161.190        0.751        0.037      118.328       11.157        0.009      337.276        9.141      867.971
11/13/2013  21:17:00     -100.630      -31.854      -10.890       13.257       18.085       11.489      175.743      327.078      131.987        0.595        0.032      105.552        7.726        0.005      337.313        9.202      867.976
11/13/2013  21:18:00      -79.555      -40.688       -0.433       28.408       20.354       12.569      807.039      414.296      157.981        0.468        0.069       89.356        9.577        0.011      337.287        9.160      867.980
11/13/2013  21:19:00     -108.741      -44.854       -7.735       20.778       13.888       10.163      431.714      192.886      103.278        0.731        0.036      117.628        7.483        0.004      337.239        9.078      867.984
11/13/2013  21:20:00     -116.910      -36.430      -13.000       14.278       13.336       10.082      203.855      177.842      101.640        0.782        0.024      122.455        6.533        0.003      337.264        9.120      867.948
11/13/2013  21:21:00     -130.497      -43.800      -16.624       11.770       11.066        9.583      138.527      122.461       91.835        0.979        0.018      137.652        4.594        0.001      337.300        9.180      867.907
11/13/2013  21:22:00     -128.184      -32.709      -16.135       13.710       14.094       11.284      187.955      198.649      127.323        0.914        0.026      132.292        5.908        0.002      337.226        9.057      867.883
11/13/2013  21:23:00     -115.251      -20.439      -18.801       15.027       13.420        6.728      225.825      180.085       45.271        0.725        0.023      117.049        7.228        0.004      337.295        9.173      867.877
11/13/2013  21:24:00      -64.977      -16.642      -10.238       21.153       14.815       11.412      447.431      219.471      130.226        0.270        0.040       67.074        9.971        0.022      337.228        9.061      867.908
11/13/2013  21:25:00      -72.915       -4.569      -13.062       22.278       15.798       13.868      496.331      249.565      192.310        0.322        0.047       73.058       13.922        0.036      337.399        9.347      867.930
11/13/2013  21:26:00      -66.930      -18.581      -12.557       13.927       17.024       12.324      193.969      289.812      151.890        0.281        0.032       69.461       10.146        0.021      337.470        9.466      867.950
11/13/2013  21:27:00      -59.030      -23.843      -14.368       11.679       13.021        8.338      136.393      169.544       69.530        0.232        0.019       63.664        3.940        0.004      337.419        9.382      867.963
11/13/2013  21:28:00      -68.751      -32.858      -11.463       13.000       11.963       11.046      169.005      143.102      122.021        0.319        0.022       76.200        5.168        0.005      337.407        9.361      867.981
11/13/2013  21:29:00      -62.931      -29.509      -13.951       16.454       18.400       11.376      270.748      338.552      129.409        0.288        0.037       69.506        5.243        0.006      337.437        9.409      867.983
11/13/2013  21:30:00      -55.460      -36.587       -9.847       18.627       15.474       14.881      346.983      239.432      221.438        0.266        0.040       66.441       10.143        0.023      337.416        9.376      867.986
11/13/2013  21:31:00      -74.663      -43.524      -14.019       13.707       20.465       11.984      187.882      418.799      143.617        0.421        0.038       86.423       10.137        0.014      337.292        9.167      867.972
11/13/2013  21:32:00      -78.566      -47.386      -15.608       15.969       15.559        9.863      255.010      242.077       97.282        0.463        0.030       91.750        7.650        0.007      337.273        9.136      867.954
11/13/2013  21:33:00      -58.290      -46.882       -8.161       21.590       23.092       21.558      466.116      533.242      464.758        0.356        0.073       74.804       14.178        0.036      337.317        9.209      867.970
11/13/2013  21:34:00      -65.996      -19.798       -9.218       21.703       13.034       14.187      471.041      169.895      201.274        0.284        0.042       68.902        8.066        0.014      337.312        9.201      867.999
11/13/2013  21:35:00      -92.025      -22.181      -20.196       16.261       17.358       10.702      264.412      301.304      114.533        0.502        0.034       94.660        7.818        0.007      337.341        9.249      868.035
11/13/2013  21:36:00      -93.441      -29.727      -21.004       13.117       22.626        9.466      172.046      511.937       89.601        0.541        0.039       98.056        8.566        0.008      337.255        9.105      868.057
11/13/2013  21:37:00      -83.248      -40.626       -7.890       24.882       23.155       16.876      619.137      536.145      284.807        0.504        0.072       92.632       15.988        0.030      337.217        9.044      868.100
11/13/2013  21:38:00      -70.858      -66.893      -16.769       21.244       23.577       17.264      451.319      555.855      298.062        0.554        0.065       97.445       15.173        0.024      337.196        9.008      868.176
11/13/2013  21:39:00      -98.524      -48.102       -9.475       26.037       16.074       16.178      677.950      258.380      261.728        0.665        0.060      109.640       12.016        0.012      337.205        9.023      868.221
11/13/2013  21:40:00     -114.403      -42.945       -6.455       21.188       18.190       13.620      448.914      330.868      185.512        0.797        0.048      122.198        7.141        0.003      337.228        9.060      868.222
11/13/2013  21:41:00     -119.860      -41.773       -9.828       19.029       15.176        9.629      362.121      230.296       92.711        0.845        0.034      126.930        9.194        0.005      337.221        9.050      868.155
11/13/2013  21:42:00      -82.119      -49.545       -7.236       10.851       13.967        8.411      117.753      195.077       70.744        0.482        0.019       95.907        4.185        0.002      337.299        9.179      868.079
11/13/2013  21:43:00      -77.950      -19.444      -11.552        6.963        7.342        8.035       48.486       53.905       64.558        0.338        0.008       80.338        5.342        0.004      337.295        9.173      868.028
11/13/2013  21:44:00      -83.615        0.852      -11.717        8.913        5.897        6.639       79.444       34.777       44.076        0.364        0.008       83.619        3.930        0.002      337.287        9.160      868.002
11/13/2013  21:45:00      -92.204       -5.783      -12.972       12.944       13.447       11.125      167.541      180.810      123.772        0.459        0.024       92.386        8.664        0.009      337.317        9.209      867.993
11/13/2013  21:46:00     -111.457      -21.641      -13.805       14.942       23.274       13.823      223.257      541.686      191.075        0.702        0.048      113.538       12.948        0.013      337.246        9.091      868.005
11/13/2013  21:47:00     -114.535      -19.015      -17.535       17.124       12.520        9.755      293.246      156.743       95.164        0.717        0.027      116.103        5.518        0.002      337.151        8.932      868.004
11/13/2013  21:48:00      -90.081      -37.134      -14.940       11.960       13.024        9.262      143.040      169.636       85.777        0.506        0.020       97.434        4.826        0.002      337.147        8.926      867.992
11/13/2013  21:49:00     -110.982      -59.689      -15.687       18.376       19.260        9.783      337.692      370.945       95.702        0.846        0.040      126.014        5.736        0.002      337.132        8.900      867.980
11/13/2013  21:50:00     -143.800      -53.935      -13.952       14.612       14.147       11.051      213.513      200.152      122.119        1.216        0.027      153.582        6.642        0.002      337.044        8.752      867.962
11/13/2013  21:51:00     -107.774      -43.211      -12.481       18.534       17.964       14.837      343.510      322.699      220.141        0.726        0.044      116.114        9.187        0.006      337.003        8.683      867.974
11/13/2013  21:52:00     -104.186      -23.952      -12.886       16.151       14.963       10.792      260.849      223.895      116.467        0.610        0.030      106.903        6.258        0.003      337.071        8.797      868.006
11/13/2013  21:53:00     -107.006      -16.475      -15.610       21.546       11.840        8.375      464.242      140.188       70.141        0.632        0.034      108.266        8.055        0.006      337.072        8.798      868.024
11/13/2013  21:54:00      -75.757      -21.587      -10.650       19.029       13.228       11.517      362.097      174.992      132.638        0.349        0.033       78.773       10.373        0.017      337.064        8.786      868.007
11/13/2013  21:55:00      -72.400      -12.281      -13.567       13.645       15.891       11.272      186.174      252.536      127.053        0.307        0.028       73.434       10.491        0.020      337.062        8.782      867.951
11/13/2013  21:56:00      -83.422      -29.192      -11.239       15.805       14.101       11.414      249.801      198.826      130.283        0.426        0.029       88.382        3.819        0.002      337.104        8.852      867.871
11/13/2013  21:57:00      -96.553      -41.911      -14.975       21.370       21.251       18.243      456.668      451.604      332.821        0.627        0.062      105.257       13.873        0.017      337.046        8.755      867.816
11/13/2013  21:58:00     -117.231      -59.905      -11.156       18.820       19.275       10.552      354.207      371.530      111.335        0.915        0.042      131.650        4.063        0.001      337.066        8.788      867.786
11/13/2013  21:59:00      -82.048      -53.132       -4.843       36.540       23.965       17.355     1335.143      574.307      301.194        0.589        0.111       97.749       13.035        0.018      336.969        8.627      867.790
11/13/2013  22:00:00     -110.757      -37.054       -9.444       17.179       20.495       13.761      295.130      420.060      189.360        0.732        0.045      116.791        9.124        0.006      336.904        8.518      867.828
11/13/2013  22:01:00     -104.483      -23.755      -12.039       14.006       13.217       10.167      196.182      174.677      103.375        0.605        0.024      107.149        7.387        0.005      336.878        8.474      867.838
11/13/2013  22:02:00     -101.868      -30.642      -22.230       15.451       14.777        9.527      238.727      218.357       90.758        0.618        0.027      106.377        4.618        0.002      336.861        8.448      867.836
11/13/2013  22:03:00      -74.671      -16.189       -9.056       12.059       14.911       12.345      145.415      222.348      152.398        0.322        0.026       76.406        9.332        0.015      336.839        8.410      867.843
11/13/2013  22:04:00     -103.539       -5.538      -17.383       12.459       15.749        9.664      155.226      248.045       93.391        0.577        0.025      103.687        2.410        0.001      337.009        8.693      867.839
11/13/2013  22:05:00      -97.668      -36.303      -17.489       12.404       13.201        9.983      153.864      174.271       99.652        0.580        0.021      104.197        9.537        0.008      336.961        8.613      867.815
11/13/2013  22:06:00      -91.287      -34.581      -16.145       10.315       20.090       11.647      106.398      403.602      135.661        0.522        0.032       97.617       12.293        0.016      336.878        8.476      867.803
11/13/2013  22:07:00      -78.961       -5.245      -11.680       13.143       12.533        9.404      172.739      157.086       88.435        0.341        0.021       79.135        7.045        0.008      336.895        8.502      867.800
11/13/2013  22:08:00      -50.151       10.962      -11.000       22.167       10.189        9.873      491.396      103.817       97.476        0.172        0.035       51.335        7.638        0.022      337.495        9.508      867.821
11/13/2013  22:09:00      -55.304        1.882      -10.045       12.916       12.588        9.130      166.828      158.459       83.364        0.179        0.020       55.336        6.677        0.015      337.220        9.048      867.838
11/13/2013  22:10:00      -80.150      -12.045      -16.714        9.753       12.538        8.594       95.112      157.204       73.862        0.359        0.016       81.050        5.262        0.004      336.917        8.539      867.841
11/13/2013  22:11:00      -80.439      -20.083      -13.874       11.321       11.789        9.188      128.176      138.975       84.417        0.371        0.018       82.908        5.148        0.004      336.807        8.358      867.822
11/13/2013  22:12:00      -48.666      -38.974       -6.966       29.392       11.649       13.808      863.908      135.704      190.651        0.256        0.060       62.348       13.034        0.044      336.802        8.349      867.817
11/13/2013  22:13:00      -60.892      -41.010       -3.537       26.807       19.494       14.861      718.630      380.013      220.842        0.336        0.066       73.414       11.228        0.023      336.818        8.376      867.827
11/13/2013  22:14:00     -103.856      -82.498      -11.964       36.325       30.767       21.901     1319.480      946.599      479.665        1.024        0.137      132.635       13.983        0.011      336.716        8.204      867.824
11/13/2013  22:15:00     -111.031      -66.435        0.771       47.086       28.354       22.024     2217.047      803.973      485.067        1.012        0.175      129.389       22.255        0.030      336.843        8.415      867.830
11/13/2013  22:16:00     -121.842      -54.398      -11.286       43.411       26.480       16.429     1884.483      701.204      269.924        1.039        0.143      133.434       13.237        0.010      336.786        8.322      867.832
11/13/2013  22:17:00     -108.683      -50.597       -8.281       25.376       22.205       16.872      643.925      493.074      284.661        0.793        0.071      119.883        9.208        0.006      336.645        8.087      867.817
11/13/2013  22:18:00      -86.536      -28.878      -12.094       11.592       17.797       11.888      134.365      316.745      141.321        0.453        0.030       91.227        7.996        0.008      336.672        8.132      867.784
11/13/2013  22:19:00      -87.398      -28.900      -14.199       10.579        9.479        6.452      111.922       89.844       41.629        0.446        0.012       92.052        4.804        0.003      336.615        8.033      867.744
11/13/2013  22:20:00     -105.355      -42.420      -12.666       12.794       17.097        7.968      163.691      292.315       63.492        0.679        0.026      113.574        4.766        0.002      336.638        8.075      867.686
11/13/2013  22:21:00     -100.147      -27.389      -11.538        7.513       12.332        8.292       56.446      152.069       68.752        0.559        0.014      103.825        4.359        0.002      336.690        8.163      867.626
11/13/2013  22:22:00      -81.029      -10.849       -8.859       18.421       13.822       12.714      339.336      191.039      161.658        0.373        0.035       81.752       12.921        0.025      336.724        8.220      867.570
11/13/2013  22:23:00      -94.535      -16.759      -15.716       12.886       10.926        9.440      166.058      119.383       89.115        0.492        0.019       96.009        7.363        0.006      336.687        8.158      867.521
11/13/2013  22:24:00      -78.602      -23.838      -15.741        7.999        8.877        8.403       63.981       78.801       70.617        0.360        0.011       82.137        4.004        0.002      336.742        8.250      867.507
11/13/2013  22:25:00      -74.352      -11.961      -11.750        8.736        8.656        8.013       76.317       74.934       64.200        0.301        0.011       75.308        5.856        0.006      336.833        8.401      867.503
11/13/2013  22:26:00      -64.934      -21.907      -11.022       13.938       11.497        7.762      194.268      132.178       60.243        0.260        0.019       68.530        6.391        0.009      336.853        8.434      867.509
11/13/2013  22:27:00      -75.502      -31.716      -11.148        8.667       11.294        7.055       75.113      127.556       49.774        0.354        0.013       81.893        4.105        0.003      336.815        8.371      867.513
11/13/2013  22:28:00      -91.349      -32.173      -15.890       19.929       11.196        7.531      397.166      125.347       56.712        0.511        0.029       96.849        6.630        0.005      336.723        8.216      867.517
11/13/2013  22:29:00      -94.986      -26.076      -14.522       24.071       20.678       17.341      579.429      427.561      300.704        0.561        0.065       98.500       15.939        0.026      336.715        8.205      867.516
11/13/2013  22:30:00      -77.464      -32.695       -9.862       14.631       23.707       13.590      214.065      562.032      184.694        0.406        0.048       84.081       10.119        0.014      336.573        7.965      867.540
11/13/2013  22:31:00     -113.881      -12.974      -15.396       30.551       20.568       14.485      933.352      423.028      209.823        0.747        0.078      114.617       14.528        0.016      336.562        7.948      867.559
11/13/2013  22:32:00     -106.834      -15.953      -16.732       34.814       26.324       15.185     1211.985      692.956      230.582        0.704        0.107      108.018       17.028        0.025      336.489        7.826      867.559
11/13/2013  22:33:00      -72.752      -24.694       -4.414       24.968       26.423       16.669      623.402      698.194      277.847        0.376        0.080       76.829       11.561        0.023      336.514        7.868      867.550
11/13/2013  22:34:00      -34.342      -29.869       -4.021       23.291       29.643       15.547      542.470      878.683      241.696        0.187        0.083       45.514       12.457        0.075      336.567        7.955      867.533
11/13/2013  22:35:00      -60.837       -8.331       -8.754       13.336        9.718       10.308      177.854       94.439      106.253        0.211        0.019       61.404        4.574        0.006      336.743        8.251      867.522
11/13/2013  22:36:00      -88.009       -2.959       -9.708       11.875        9.810        7.666      141.023       96.242       58.774        0.407        0.015       88.059        2.475        0.001      336.779        8.310      867.503
11/13/2013  22:37:00      -76.458      -12.719      -12.162       23.237       24.757       15.204      539.976      612.924      231.152        0.377        0.069       77.508       14.537        0.035      336.691        8.164      867.497
11/13/2013  22:38:00      -95.447      -28.302      -13.602       15.624       15.131       12.130      244.117      228.940      147.130        0.536        0.031       99.555       11.148        0.013      336.626        8.055      867.495
11/13/2013  22:39:00      -95.630      -26.963      -16.210       10.051       13.334        8.887      101.016      177.792       78.986        0.525        0.018       99.359        6.595        0.004      336.577        7.973      867.471
11/13/2013  22:40:00     -109.854      -32.170      -16.665        8.936        9.461        5.683       79.851       89.516       32.298        0.679        0.010      114.467        3.609        0.001      336.597        8.006      867.456
11/13/2013  22:41:00     -108.422      -24.644      -17.466       10.665       10.323        7.586      113.739      106.555       57.550        0.647        0.014      111.188        4.920        0.002      336.609        8.027      867.455
11/13/2013  22:42:00      -96.570      -28.527      -13.258       13.809       14.160        6.461      190.676      200.501       41.741        0.537        0.022      100.695        5.331        0.003      336.636        8.070      867.474
11/13/2013  22:43:00     -105.100      -43.596      -15.343       13.901       12.002        9.420      193.226      144.045       88.744        0.680        0.021      113.784        6.761        0.004      336.634        8.068      867.499
11/13/2013  22:44:00     -131.234      -63.307      -10.232       16.321       14.579       10.709      266.375      212.557      114.691        1.096        0.030      145.706        3.029        0.000      336.608        8.027      867.529
11/13/2013  22:45:00     -124.680      -51.632      -12.870       11.037        9.252        7.694      121.817       85.597       59.198        0.932        0.013      134.948        4.290        0.001      336.580        7.979      867.543
11/13/2013  22:46:00     -108.284      -51.741      -14.730       26.954       17.845       13.714      726.537      318.450      188.070        0.793        0.062      120.010        8.837        0.005      336.579        7.977      867.510
11/13/2013  22:47:00     -127.785      -61.267      -12.034       10.493       15.171       10.169      110.093      230.169      103.416        1.034        0.022      141.714        7.135        0.003      336.647        8.090      867.453
11/13/2013  22:48:00      -80.803      -37.966       -1.449       20.500       12.273       10.334      420.267      150.616      106.798        0.433        0.034       89.278        9.887        0.012      336.646        8.089      867.429
11/13/2013  22:49:00      -69.640      -19.988       -6.201       12.320       11.418        8.120      151.778      130.375       65.933        0.282        0.017       72.452        7.420        0.010      336.802        8.350      867.465
11/13/2013  22:50:00      -78.690      -20.811      -18.036       11.824        9.489        7.439      139.807       90.048       55.344        0.362        0.014       81.395        4.769        0.003      336.805        8.355      867.493
11/13/2013  22:51:00      -66.508      -37.559       -7.998       13.417       13.520        9.312      180.026      182.798       86.708        0.317        0.022       76.381        5.850        0.006      336.641        8.081      867.501
11/13/2013  22:52:00      -84.164      -38.480      -14.054       10.174        6.074        6.130      103.501       36.896       37.578        0.447        0.009       92.544        2.095        0.001      336.537        7.905      867.513
11/13/2013  22:53:00      -91.426      -31.658      -14.540        6.770        6.314        5.477       45.832       39.872       29.995        0.484        0.006       96.752        2.471        0.001      336.476        7.804      867.533
11/13/2013  22:54:00      -73.823      -27.316      -13.236        9.387        5.020        5.644       88.113       25.204       31.859        0.326        0.007       78.715        3.673        0.002      336.464        7.783      867.526
11/13/2013  22:55:00      -91.540      -30.872      -18.619        8.434        9.008        6.491       71.137       81.149       42.135        0.494        0.010       96.606        4.639        0.002      336.478        7.805      867.481
11/13/2013  22:56:00      -70.359      -33.495      -13.896       13.250       10.747        8.797      175.574      115.502       77.390        0.332        0.018       77.925        4.262        0.003      336.487        7.822      867.446
11/13/2013  22:57:00      -51.753      -25.806       -6.920       11.744       11.626        7.532      137.928      135.154       56.732        0.186        0.016       57.830        5.680        0.010      336.531        7.895      867.394
11/13/2013  22:58:00      -74.435      -30.436      -14.788       11.216       14.192        9.266      125.806      201.411       85.856        0.355        0.021       80.417        6.343        0.006      336.510        7.860      867.379
11/13/2013  22:59:00      -86.684      -43.452      -12.402       24.750       15.335       11.102      612.550      235.163      123.248        0.526        0.049       96.965        8.290        0.007      336.454        7.766      867.394
11/13/2013  23:00:00     -105.034      -41.967      -21.368       14.216       12.450       13.955      202.084      154.998      194.736        0.690        0.028      113.108       10.855        0.009      336.352        7.596      867.388
11/13/2013  23:01:00      -86.222      -27.068       -8.852       12.293       12.260        8.997      151.121      150.302       80.938        0.431        0.019       90.371        6.000        0.004      336.371        7.629      867.388
11/13/2013  23:02:00      -78.994      -20.976      -12.700       14.093       16.444       10.304      198.609      270.398      106.164        0.371        0.029       81.732        8.031        0.010      336.405        7.684      867.405
11/13/2013  23:03:00      -67.568      -28.659      -11.280       18.603       19.706       10.995      346.069      388.322      120.880        0.318        0.043       73.394        6.754        0.008      336.429        7.725      867.398
11/13/2013  23:04:00      -83.766      -35.933      -12.388       14.201       10.412        9.515      201.654      108.416       90.527        0.443        0.020       91.148        7.735        0.007      336.371        7.629      867.356
11/13/2013  23:05:00      -91.843      -42.927       -9.190       17.575       13.654       11.186      308.898      186.431      125.137        0.549        0.031      101.380        8.025        0.006      336.288        7.489      867.319
11/13/2013  23:06:00      -91.403      -49.106       -6.792       33.662       22.436       17.977     1133.158      503.362      323.190        0.639        0.098      103.759       16.619        0.026      336.270        7.458      867.333
11/13/2013  23:07:00      -65.187      -52.505        4.692       51.035       31.083       26.056     2604.565      966.168      678.916        0.564        0.212       83.703       28.417        0.115      336.180        7.307      867.351
11/13/2013  23:08:00      -86.919      -83.624       -4.205       47.114       41.068       25.978     2219.719     1686.548      674.835        0.957        0.229      120.614       19.885        0.027      336.142        7.244      867.336
11/13/2013  23:09:00     -118.153      -57.607      -11.793       27.487       25.999       14.522      755.529      675.926      210.876        0.953        0.082      131.449       11.399        0.008      336.242        7.412      867.305
11/13/2013  23:10:00     -127.703      -67.258       -7.007       26.662       24.702       16.244      710.849      610.205      263.865        1.123        0.079      144.332        9.998        0.005      336.161        7.276      867.324
11/13/2013  23:11:00     -132.591      -57.875      -14.761       24.022       17.156       12.543      577.069      294.333      157.339        1.109        0.051      144.671        9.156        0.004      336.010        7.024      867.341
11/13/2013  23:12:00      -87.959      -46.746       -6.930       23.226       13.814        8.471      539.449      190.816       71.758        0.539        0.040       99.609        3.086        0.001      336.043        7.080      867.327
11/13/2013  23:13:00     -105.771      -33.844      -13.224       10.258       12.340        9.644      105.235      152.275       93.001        0.643        0.018      111.054        7.854        0.005      336.085        7.148      867.319
11/13/2013  23:14:00     -116.776      -25.739      -13.490       13.335       10.402       11.393      177.822      108.194      129.793        0.745        0.021      119.579        5.801        0.002      336.090        7.157      867.321
11/13/2013  23:15:00     -112.497      -53.333      -12.015       18.809       11.419        6.218      353.769      130.398       38.667        0.808        0.026      124.499        3.962        0.001      336.074        7.133      867.307
11/13/2013  23:16:00      -88.215      -41.583      -10.715        8.774       10.754        9.066       76.985      115.653       82.187        0.495        0.014       97.524        5.305        0.003      336.160        7.275      867.288
11/13/2013  23:17:00      -94.624      -25.932      -12.587       15.452       11.991       10.331      238.749      143.791      106.723        0.514        0.024       98.113        6.322        0.004      336.112        7.195      867.267
11/13/2013  23:18:00      -86.782      -35.263      -12.597        9.964       11.134        7.035       99.279      123.963       49.486        0.460        0.014       93.672        4.074        0.002      336.102        7.176      867.249
11/13/2013  23:19:00      -98.757      -20.162      -15.981       12.186        8.761        8.579      148.504       76.762       73.593        0.536        0.015      100.794        7.541        0.006      336.208        7.354      867.254
11/13/2013  23:20:00      -98.597      -45.938      -16.006        8.949       17.118        9.038       80.083      293.014       81.688        0.627        0.023      108.773        8.359        0.006      336.194        7.333      867.282
11/13/2013  23:21:00      -86.641      -56.853      -11.736       14.222       16.379       15.828      202.275      268.265      250.524        0.580        0.036      103.629        7.379        0.005      336.137        7.235      867.296
11/13/2013  23:22:00      -75.321      -52.233      -14.383       21.215       17.231       16.304      450.058      296.903      265.826        0.481        0.051       91.660        9.657        0.011      336.093        7.163      867.271
11/13/2013  23:23:00      -54.683      -47.192      -10.168       24.352       27.815       13.522      593.036      773.650      182.842        0.343        0.077       72.231       14.263        0.039      336.194        7.332      867.251
11/13/2013  23:24:00      -80.179      -11.046      -15.373       23.185       20.704       14.376      537.564      428.651      206.665        0.398        0.059       80.936       11.533        0.020      336.198        7.339      867.226
11/13/2013  23:25:00      -68.110       -0.447      -12.069       15.535       17.126       11.058      241.346      293.304      122.288        0.272        0.033       68.112        8.854        0.017      336.405        7.685      867.164
11/13/2013  23:26:00      -72.287       -6.827       -9.839       16.162       12.225       11.099      261.225      149.453      123.189        0.295        0.027       72.609        6.443        0.008      336.256        7.437      867.113
11/13/2013  23:27:00      -53.249      -35.603      -13.209       14.992       14.481        9.950      224.760      209.695       99.012        0.241        0.027       64.055        6.617        0.011      336.250        7.426      867.087
11/13/2013  23:28:00      -68.915      -23.290       -8.471       17.521       14.717        9.962      306.986      216.605       99.239        0.299        0.031       72.744        5.405        0.006      336.200        7.341      867.085
11/13/2013  23:29:00      -61.551      -20.850      -16.252        9.752       10.342        7.061       95.107      106.965       49.853        0.237        0.013       64.987        5.373        0.007      336.178        7.306      867.081
11/13/2013  23:30:00      -57.705      -29.956      -12.328        9.185       15.884        9.424       84.368      252.314       88.819        0.240        0.021       65.018        3.320        0.003      336.171        7.295      867.089
11/13/2013  23:31:00      -71.523      -25.904      -13.941       16.697       13.779        9.801      278.786      189.854       96.056        0.327        0.028       76.069        3.864        0.003      336.160        7.274      867.077
11/13/2013  23:32:00      -86.192      -27.536      -16.557        9.486       12.455        6.298       89.990      155.122       39.670        0.437        0.014       90.484        2.690        0.001      336.101        7.177      867.065
11/13/2013  23:33:00      -75.457      -27.410      -16.062       10.573        9.241        7.628      111.795       85.394       58.189        0.348        0.013       80.281        5.902        0.005      336.065        7.117      867.065
11/13/2013  23:34:00      -60.091      -34.605      -19.756       16.292       14.700        8.852      265.444      216.096       78.349        0.288        0.028       69.343        3.332        0.002      336.133        7.227      867.055
11/13/2013  23:35:00      -77.477      -28.181      -16.665       14.623        9.537        7.458      213.826       90.962       55.617        0.372        0.018       82.443        4.497        0.003      336.129        7.222      867.025
11/13/2013  23:36:00     -104.515      -41.403      -14.260       14.859       14.602        9.359      220.795      213.218       87.589        0.668        0.026      112.417        5.572        0.002      336.096        7.167      866.992
11/13/2013  23:37:00     -124.204      -50.562      -12.779       12.944       11.496        9.246      167.543      132.157       85.487        0.927        0.019      134.102        6.938        0.003      336.062        7.111      866.971
11/13/2013  23:38:00     -137.082      -36.132      -19.087       13.369        9.412        9.193      178.731       88.589       84.518        1.041        0.018      141.764        5.399        0.001      336.079        7.139      866.942
11/13/2013  23:39:00     -125.420      -43.310      -14.984       25.167       14.023       11.795      633.384      196.640      139.114        0.940        0.048      132.688       11.133        0.007      336.072        7.128      866.930
11/13/2013  23:40:00     -114.875      -51.991      -13.429        8.120       10.137        7.172       65.932      102.753       51.439        0.815        0.011      126.093        2.971        0.001      336.028        7.055      866.946
11/13/2013  23:41:00      -99.600      -47.600      -10.379       11.529       15.034        9.558      132.917      226.010       91.346        0.637        0.023      110.390        7.014        0.004      336.037        7.070      866.974
11/13/2013  23:42:00      -80.012      -31.789       -8.715        9.388       16.028        7.917       88.127      256.905       62.682        0.395        0.020       86.096        4.059        0.002      336.039        7.071      866.980
11/13/2013  23:43:00      -65.912      -23.491       -2.782        9.506       11.379        7.455       90.361      129.489       55.576        0.259        0.014       69.973        4.969        0.005      336.105        7.183      866.962
11/13/2013  23:44:00      -95.459      -20.399       -8.917       23.253       13.165       14.749      540.694      173.314      217.545        0.527        0.047       97.614       13.628        0.019      336.045        7.082      866.908
11/13/2013  23:45:00     -115.526      -40.333      -15.197       16.790       14.502       11.554      281.895      210.315      133.494        0.791        0.031      122.364        8.869        0.005      335.970        6.956      866.866
11/13/2013  23:46:00     -106.936      -45.626      -14.639       11.633       10.598        9.949      135.328      112.326       98.980        0.704        0.017      116.263        6.566        0.003      335.918        6.873      866.855
11/13/2013  23:47:00     -109.344      -42.149      -15.637       14.836       13.381        6.896      220.105      179.050       47.549        0.721        0.022      117.187        3.765        0.001      335.908        6.856      866.855
11/13/2013  23:48:00     -113.258      -50.858      -12.820       16.338       21.203       15.069      266.937      449.550      227.088        0.826        0.047      124.152        7.061        0.003      335.919        6.873      866.864
11/13/2013  23:49:00     -131.129      -70.473      -15.062       12.968       18.944       12.982      168.181      358.885      168.545        1.154        0.035      148.867        6.810        0.002      335.868        6.789      866.878
11/13/2013  23:50:00     -130.995      -83.730      -19.335       18.818       20.507       16.949      354.136      420.530      287.263        1.280        0.053      155.469       11.606        0.006      335.840        6.740      866.862
11/13/2013  23:51:00     -111.208      -71.478      -13.777       30.127       18.277       14.594      907.628      334.037      212.994        0.956        0.073      132.198        5.530        0.002      335.806        6.685      866.845
11/13/2013  23:52:00     -124.377      -77.993      -15.250       18.894       18.952       17.063      356.972      359.166      291.142        1.140        0.050      146.808       11.275        0.006      335.771        6.627      866.823
11/13/2013  23:53:00     -145.625      -57.744       -1.337       35.910       29.477       20.590     1289.501      868.887      423.928        1.356        0.129      156.655       19.196        0.015      335.723        6.548      866.794
11/13/2013  23:54:00     -133.617      -72.671       -0.646       34.539       32.316       19.825     1192.951     1044.341      393.029        1.288        0.132      152.101       16.448        0.012      335.733        6.564      866.790
11/13/2013  23:55:00     -144.747      -59.370       -6.385       26.306       24.567       19.392      692.020      603.523      376.067        1.309        0.084      156.449       18.831        0.014      335.691        6.495      866.806
11/13/2013  23:56:00     -141.767      -43.883      -10.005       31.269       25.375       17.233      977.749      643.872      296.988        1.202        0.096      148.403       15.839        0.011      335.678        6.470      866.837
11/13/2013  23:57:00     -121.264      -57.262       -6.946       23.804       24.008       16.100      566.644      576.387      259.223        0.972        0.070      134.104       12.235        0.008      335.654        6.432      866.856
11/13/2013  23:58:00      -99.421      -57.596       -3.260       24.296       19.259       18.421      590.311      370.924      339.345        0.726        0.065      114.900       13.994        0.015      335.650        6.425      866.879
11/13/2013  23:59:00      -93.654      -49.421       -4.058       29.426       19.046       21.212      865.894      362.731      449.936        0.645        0.084      105.894       17.893        0.029      335.656        6.434      866.915
